[[{"header":{"parameterUnit":"m.s-1","parameterCategory":1,"la1":30.6,"la2":29.2853,"lo1":-89.7004,"lo2":-87.6739,"dy":0.0162,"dx":0.0183,"nx":112,"ny":82,"refTime":"2023-05-23T00:00:00:Z","depth":0,"parameterNumber":2,"parameterNumberName":"U-component_of_WINDS"},"data":[0.0,0.0,0.0,0.0,0.0,0.0,0.0,0.0,0.0,0.0,0.0,0.0,0.0,0.0,0.0,0.0,0.0,0.0,0.0,0.0,0.0,0.0,0.0,0.0,0.0,0.0,0.0,0.0,0.0,0.0,0.0,0.0,0.0,0.0,0.0,0.0,0.0,0.0,0.0,0.0,0.0,0.0,0.0,0.0,0.0,0.0,0.0,0.0,0.0,0.0,0.0,0.0,0.0,0.0,0.0,0.0,0.0,0.0,0.0,0.0,0.0,0.0,0.0,0.0,0.0,0.0,0.0,0.0,0.0,0.0,0.0,0.0,0.0,0.0,0.0,0.0,0.0,0.0,0.0,0.0,0.0,0.0,0.0,0.0,0.0,0.0,0.0,0.0,0.0,0.0,2.137,2.154,2.1308,2.115,2.115,2.0613,2.027,2.027,0.0,0.0,0.0,0.0,0.0,0.0,0.0,0.0,0.0,0.0,0.0,0.0,0.0,0.0,0.0,0.0,0.0,0.0,0.0,0.0,0.0,0.0,0.0,0.0,0.0,0.0,0.0,0.0,0.0,0.0,0.0,0.0,0.0,0.0,0.0,0.0,0.0,0.0,0.0,0.0,0.0,0.0,0.0,0.0,0.0,0.0,0.0,0.0,0.0,0.0,0.0,0.0,0.0,0.0,0.0,0.0,0.0,0.0,0.0,0.0,0.0,0.0,0.0,0.0,0.0,0.0,0.0,0.0,0.0,0.0,0.0,0.0,0.0,0.0,0.0,0.0,0.0,0.0,0.0,0.0,0.0,0.0,0.0,0.0,0.0,0.0,0.0,0.0,0.0,0.0,0.0,0.0,0.0,0.0,0.0,0.0,0.0,0.0,0.0,0.0,0.0,0.0,0.0,0.0,2.1119,2.0579,2.0494,2.046,2.046,2.0254,2.015,2.015,0.0,0.0,0.0,0.0,0.0,0.0,0.0,0.0,0.0,0.0,0.0,0.0,0.0,0.0,0.0,0.0,0.0,0.0,0.0,0.0,0.0,0.0,0.0,0.0,0.0,0.0,0.0,0.0,0.0,0.0,0.0,0.0,0.0,0.0,0.0,0.0,0.0,0.0,0.0,0.0,0.0,0.0,0.0,0.0,0.0,0.0,0.0,0.0,0.0,0.0,0.0,0.0,0.0,0.0,0.0,0.0,0.0,0.0,0.0,0.0,0.0,0.0,0.0,0.0,0.0,0.0,0.0,0.0,0.0,0.0,0.0,0.0,0.0,0.0,0.0,0.0,0.0,0.0,0.0,0.0,0.0,0.0,0.0,0.0,0.0,0.0,0.0,0.0,0.0,0.0,0.0,0.0,0.0,0.0,0.0,0.0,0.0,0.0,0.0,0.0,0.0,0.0,0.0,2.1493,2.1119,2.0628,2.0561,2.0561,2.0561,2.0357,2.0185,2.01,2.022,0.0,0.0,0.0,0.0,0.0,0.0,0.0,0.0,0.0,0.0,0.0,0.0,0.0,0.0,0.0,0.0,0.0,0.0,0.0,0.0,0.0,0.0,0.0,0.0,0.0,0.0,0.0,0.0,0.0,0.0,0.0,0.0,0.0,0.0,0.0,0.0,0.0,0.0,0.0,0.0,0.0,0.0,0.0,0.0,0.0,0.0,0.0,0.0,0.0,0.0,0.0,0.0,0.0,0.0,0.0,0.0,0.0,0.0,0.0,0.0,0.0,0.0,0.0,0.0,0.0,0.0,0.0,0.0,0.0,0.0,0.0,0.0,0.0,0.0,0.0,0.0,0.0,0.0,0.0,0.0,0.0,0.0,0.0,0.0,0.0,0.0,0.0,0.0,0.0,0.0,0.0,0.0,0.0,0.0,0.0,0.0,0.0,0.0,0.0,0.0,0.0,0.0,2.1569,2.1343,2.1117,2.1114,2.1114,2.108,2.0802,2.0589,2.0518,2.0461,0.0,0.0,0.0,0.0,0.0,0.0,0.0,0.0,0.0,0.0,0.0,0.0,0.0,0.0,0.0,0.0,0.0,0.0,0.0,0.0,0.0,0.0,0.0,0.0,0.0,0.0,0.0,0.0,0.0,0.0,0.0,0.0,0.0,0.0,0.0,0.0,0.0,0.0,0.0,0.0,0.0,0.0,0.0,0.0,0.0,0.0,0.0,0.0,0.0,0.0,0.0,0.0,0.0,0.0,0.0,0.0,0.0,0.0,0.0,0.0,0.0,0.0,0.0,0.0,0.0,0.0,0.0,0.0,0.0,0.0,0.0,0.0,0.0,0.0,0.0,0.0,0.0,0.0,0.0,0.0,0.0,0.0,0.0,0.0,0.0,0.0,0.0,0.0,0.0,0.0,0.0,0.0,0.0,0.0,0.0,0.0,0.0,0.0,0.0,0.0,0.0,0.0,2.238,2.1819,2.198,2.2003,2.198,2.1919,2.1803,2.1672,2.1672,2.1672,0.0,0.0,0.0,0.0,0.0,0.0,0.0,0.0,0.0,0.0,0.0,0.0,0.0,0.0,0.0,0.0,0.0,0.0,0.0,0.0,0.0,0.0,0.0,0.0,0.0,0.0,0.0,0.0,0.0,0.0,0.0,0.0,0.0,0.0,0.0,0.0,0.0,0.0,0.0,0.0,0.0,0.0,0.0,0.0,0.0,0.0,0.0,0.0,0.0,0.0,0.0,0.0,0.0,0.0,0.0,0.0,0.0,0.0,0.0,0.0,0.0,0.0,0.0,0.0,0.0,0.0,0.0,0.0,0.0,0.0,0.0,0.0,0.0,0.0,0.0,0.0,0.0,0.0,0.0,0.0,0.0,0.0,0.0,0.0,0.0,0.0,0.0,0.0,0.0,0.0,0.0,0.0,0.0,0.0,0.0,0.0,0.0,0.0,0.0,0.0,0.0,0.0,2.2964,2.2456,0.0,2.2293,2.2079,2.2041,2.1979,2.1901,2.1822,0.0,0.0,0.0,0.0,0.0,0.0,0.0,0.0,0.0,0.0,0.0,0.0,0.0,0.0,0.0,0.0,0.0,0.0,0.0,0.0,0.0,0.0,0.0,0.0,0.0,0.0,0.0,0.0,0.0,0.0,0.0,0.0,0.0,0.0,0.0,0.0,0.0,0.0,0.0,0.0,0.0,0.0,0.0,0.0,0.0,0.0,0.0,0.0,0.0,0.0,0.0,0.0,0.0,0.0,0.0,0.0,0.0,0.0,0.0,0.0,0.0,0.0,0.0,0.0,0.0,0.0,0.0,0.0,0.0,0.0,0.0,0.0,0.0,0.0,0.0,0.0,0.0,0.0,0.0,0.0,0.0,0.0,0.0,0.0,0.0,0.0,0.0,0.0,0.0,0.0,0.0,0.0,0.0,0.0,0.0,0.0,0.0,0.0,0.0,0.0,0.0,0.0,2.4614,2.3777,2.3222,0.0,2.3018,2.2681,2.2586,2.2521,2.2481,2.24,0.0,0.0,0.0,0.0,0.0,0.0,0.0,0.0,0.0,0.0,0.0,0.0,0.0,0.0,0.0,0.0,0.0,0.0,0.0,0.0,0.0,0.0,0.0,0.0,0.0,0.0,0.0,0.0,0.0,0.0,0.0,0.0,0.0,0.0,0.0,0.0,0.0,0.0,0.0,0.0,0.0,0.0,0.0,0.0,0.0,0.0,0.0,0.0,0.0,0.0,0.0,0.0,0.0,0.0,0.0,0.0,0.0,0.0,0.0,0.0,0.0,0.0,0.0,0.0,0.0,0.0,0.0,0.0,0.0,0.0,0.0,0.0,0.0,0.0,0.0,0.0,0.0,0.0,0.0,0.0,0.0,0.0,0.0,0.0,0.0,0.0,0.0,0.0,0.0,0.0,0.0,0.0,0.0,0.0,0.0,0.0,0.0,0.0,0.0,0.0,0.0,0.0,2.5922,2.4814,2.4106,2.4545,2.4245,2.3882,2.3638,2.3595,2.3595,0.0,0.0,0.0,0.0,0.0,0.0,0.0,0.0,0.0,0.0,0.0,0.0,0.0,0.0,0.0,0.0,0.0,0.0,0.0,0.0,0.0,0.0,0.0,0.0,0.0,0.0,0.0,0.0,0.0,0.0,0.0,0.0,0.0,0.0,0.0,0.0,0.0,0.0,0.0,0.0,0.0,0.0,0.0,0.0,0.0,0.0,0.0,0.0,0.0,0.0,0.0,0.0,0.0,0.0,0.0,0.0,0.0,0.0,0.0,0.0,0.0,0.0,0.0,0.0,0.0,0.0,0.0,0.0,0.0,0.0,0.0,0.0,0.0,0.0,0.0,0.0,0.0,0.0,0.0,0.0,0.0,0.0,0.0,0.0,0.0,0.0,0.0,0.0,0.0,0.0,0.0,0.0,0.0,0.0,0.0,0.0,0.0,0.0,0.0,0.0,0.0,0.0,0.0,2.6437,2.5655,2.5051,2.5144,2.4704,2.423,2.3782,2.3653,2.3595,2.3595,0.0,0.0,0.0,0.0,0.0,0.0,0.0,0.0,0.0,0.0,0.0,0.0,0.0,0.0,0.0,0.0,0.0,0.0,0.0,0.0,0.0,0.0,0.0,0.0,0.0,0.0,0.0,0.0,0.0,0.0,0.0,0.0,0.0,0.0,0.0,0.0,0.0,0.0,0.0,0.0,0.0,0.0,0.0,0.0,0.0,0.0,0.0,0.0,0.0,0.0,0.0,0.0,0.0,0.0,0.0,0.0,0.0,0.0,0.0,0.0,0.0,0.0,0.0,0.0,0.0,0.0,0.0,0.0,0.0,0.0,0.0,0.0,0.0,0.0,0.0,0.0,0.0,0.0,0.0,0.0,0.0,0.0,0.0,0.0,0.0,0.0,0.0,0.0,0.0,0.0,0.0,0.0,0.0,0.0,0.0,0.0,0.0,0.0,0.0,0.0,0.0,0.0,2.6858,2.6229,2.5689,2.5556,2.5137,2.4623,2.4051,2.3909,2.3824,2.3595,0.0,0.0,0.0,0.0,0.0,0.0,0.0,0.0,0.0,0.0,0.0,0.0,0.0,0.0,0.0,0.0,0.0,0.0,0.0,0.0,0.0,0.0,0.0,0.0,0.0,0.0,0.0,0.0,0.0,0.0,0.0,0.0,0.0,0.0,0.0,0.0,0.0,0.0,0.0,0.0,0.0,0.0,0.0,0.0,0.0,0.0,0.0,0.0,0.0,0.0,0.0,0.0,0.0,0.0,0.0,0.0,0.0,0.0,0.0,0.0,0.0,0.0,0.0,0.0,0.0,0.0,0.0,0.0,0.0,0.0,0.0,0.0,0.0,0.0,0.0,0.0,0.0,0.0,0.0,0.0,0.0,0.0,0.0,0.0,0.0,0.0,0.0,0.0,0.0,0.0,0.0,0.0,0.0,0.0,0.0,0.0,0.0,0.0,0.0,0.0,0.0,0.0,2.7149,2.6556,2.6068,2.5815,2.5443,2.4958,2.4343,2.4261,2.4036,2.3638,0.0,0.0,0.0,0.0,0.0,0.0,0.0,0.0,0.0,0.0,0.0,0.0,0.0,0.0,0.0,0.0,0.0,0.0,0.0,0.0,0.0,0.0,0.0,0.0,0.0,0.0,0.0,0.0,0.0,0.0,0.0,0.0,0.0,0.0,0.0,0.0,0.0,0.0,0.0,0.0,0.0,0.0,0.0,0.0,0.0,0.0,0.0,0.0,0.0,0.0,0.0,0.0,0.0,0.0,0.0,0.0,0.0,0.0,0.0,0.0,2.5908,0.0,0.0,0.0,0.0,0.0,0.0,0.0,0.0,0.0,0.0,0.0,0.0,0.0,0.0,0.0,0.0,0.0,0.0,0.0,0.0,0.0,0.0,0.0,0.0,0.0,0.0,0.0,0.0,0.0,0.0,0.0,0.0,0.0,0.0,0.0,0.0,0.0,0.0,0.0,0.0,0.0,2.6825,2.6607,2.633,2.5868,2.5351,2.4863,2.4343,2.3952,2.3696,2.3595,2.3595,0.0,0.0,0.0,0.0,0.0,0.0,0.0,0.0,0.0,0.0,0.0,0.0,0.0,0.0,0.0,0.0,0.0,0.0,0.0,0.0,0.0,0.0,0.0,0.0,0.0,0.0,0.0,0.0,0.0,0.0,0.0,0.0,0.0,0.0,0.0,0.0,0.0,0.0,0.0,0.0,0.0,0.0,0.0,0.0,0.0,0.0,0.0,0.0,0.0,0.0,0.0,0.0,0.0,0.0,0.0,0.0,0.0,0.0,0.0,0.0,2.6504,0.0,0.0,0.0,0.0,0.0,0.0,0.0,0.0,0.0,0.0,0.0,0.0,0.0,0.0,0.0,0.0,0.0,0.0,0.0,0.0,0.0,0.0,0.0,0.0,0.0,0.0,0.0,0.0,0.0,0.0,0.0,0.0,0.0,0.0,0.0,0.0,0.0,0.0,0.0,0.0,2.7195,2.6842,2.6586,2.6617,2.6339,2.6011,2.5649,2.5076,2.4536,2.4088,2.3789,0.0,0.0,0.0,0.0,0.0,0.0,0.0,0.0,0.0,0.0,0.0,0.0,0.0,0.0,0.0,0.0,0.0,0.0,0.0,0.0,0.0,0.0,0.0,0.0,0.0,0.0,0.0,0.0,0.0,0.0,0.0,0.0,0.0,0.0,0.0,0.0,0.0,0.0,0.0,0.0,0.0,0.0,0.0,0.0,0.0,0.0,0.0,0.0,0.0,0.0,0.0,0.0,0.0,2.7987,2.8064,2.8191,2.8208,2.8259,2.8338,2.8367,2.8155,2.7822,2.78,0.0,0.0,0.0,0.0,0.0,0.0,0.0,0.0,0.0,0.0,0.0,0.0,0.0,0.0,0.0,0.0,0.0,0.0,0.0,0.0,0.0,0.0,0.0,0.0,2.8832,2.895,2.8176,0.0,0.0,0.0,0.0,0.0,0.0,0.0,0.0,0.0,0.0,0.0,2.7954,2.7366,2.7159,2.7674,2.7594,2.7394,2.7153,2.6467,2.573,2.4972,2.4312,2.3954,0.0,0.0,0.0,0.0,0.0,0.0,0.0,0.0,0.0,0.0,0.0,0.0,0.0,0.0,0.0,0.0,0.0,0.0,0.0,0.0,0.0,0.0,0.0,0.0,0.0,0.0,0.0,0.0,0.0,0.0,0.0,0.0,2.7557,2.7655,0.0,0.0,0.0,0.0,0.0,0.0,0.0,0.0,0.0,0.0,0.0,0.0,0.0,2.8004,2.8066,2.8023,2.796,2.7923,2.7903,2.828,2.8961,2.9023,2.9419,3.0085,3.0192,0.0,2.7875,2.7813,0.0,0.0,0.0,0.0,0.0,0.0,0.0,0.0,0.0,0.0,0.0,0.0,0.0,0.0,0.0,0.0,0.0,0.0,0.0,0.0,0.0,0.0,2.9187,2.9383,2.9219,2.898,0.0,2.9077,2.9262,2.9254,2.9188,0.0,0.0,0.0,0.0,0.0,0.0,0.0,2.8902,2.8634,2.8521,2.8548,2.8097,2.776,2.7615,2.6839,2.6284,2.6166,2.5621,2.5345,2.5345,2.4792,0.0,0.0,0.0,0.0,0.0,0.0,0.0,0.0,0.0,0.0,0.0,0.0,0.0,0.0,0.0,0.0,0.0,0.0,0.0,0.0,0.0,0.0,0.0,0.0,0.0,0.0,0.0,0.0,0.0,2.7962,2.7971,2.8041,2.8068,2.8061,0.0,0.0,0.0,0.0,0.0,0.0,0.0,0.0,0.0,2.9561,2.9499,2.9466,2.945,2.9371,2.9329,2.93,2.927,2.944,2.9771,2.983,3.0072,3.0417,3.0501,3.0066,2.9313,2.9342,2.9342,2.9303,0.0,0.0,0.0,0.0,2.9115,2.9082,2.8979,2.8946,2.8912,2.8623,0.0,0.0,0.0,0.0,0.0,0.0,0.0,0.0,0.0,0.0,3.1036,3.1017,3.0879,3.0711,3.0594,3.0683,3.0599,0.0,3.0102,3.032,3.0184,0.0,0.0,0.0,0.0,2.9887,2.9607,2.9121,2.8925,2.9231,2.9015,2.8845,2.8864,2.7942,2.725,2.6918,2.6075,2.5615,2.5615,2.533,2.5315,0.0,0.0,0.0,0.0,0.0,0.0,0.0,0.0,0.0,0.0,0.0,0.0,0.0,0.0,0.0,0.0,0.0,0.0,0.0,0.0,0.0,0.0,0.0,0.0,0.0,0.0,0.0,0.0,2.8674,2.8717,2.8777,2.8773,2.8768,0.0,0.0,0.0,0.0,0.0,0.0,3.076,3.0732,3.0711,3.0711,3.0614,3.0552,3.0501,3.0659,3.0725,3.0706,3.0873,3.0957,3.0925,3.0994,3.1006,3.102,3.1094,3.1107,3.1039,3.0675,3.0462,3.0392,3.0321,3.0304,3.0304,3.0247,3.0213,3.0209,3.0262,3.0388,3.0505,3.0352,3.0428,3.048,3.0246,0.0,0.0,0.0,0.0,3.173,3.1445,3.188,3.2351,3.2146,3.2048,3.1965,3.1745,3.1862,3.17,0.0,3.0931,3.1302,3.1224,0.0,0.0,0.0,0.0,3.0547,3.0449,2.9846,2.9585,3.0007,2.9978,2.9954,3.0021,2.909,2.8284,2.7783,2.6824,2.6236,2.6108,2.5959,2.5944,2.6108,0.0,0.0,0.0,0.0,0.0,0.0,0.0,0.0,0.0,0.0,0.0,0.0,0.0,0.0,0.0,0.0,0.0,0.0,0.0,0.0,0.0,0.0,0.0,0.0,0.0,0.0,0.0,0.0,0.0,3.0661,3.0604,0.0,0.0,0.0,0.0,3.0633,3.0703,3.076,3.0801,3.0732,3.0711,3.0711,3.0564,3.0501,3.0501,3.1256,3.1609,3.1546,3.2378,3.2749,3.2664,3.2683,3.2664,3.2697,3.2807,3.2875,3.2748,3.1025,3.0356,3.0392,3.0321,3.0304,3.0304,3.0304,3.026,3.03,3.1049,3.1374,3.1531,3.2096,3.2272,3.2201,3.1811,3.2091,0.0,0.0,3.2447,3.2634,3.26,3.2507,3.2352,3.2145,3.1942,3.1723,3.1483,3.2034,3.2302,0.0,3.1366,3.1359,3.1302,0.0,3.221,3.1828,3.2001,3.2057,3.1666,3.1308,3.105,3.0948,3.0885,3.0781,3.0634,3.0081,2.9524,2.9027,2.8466,2.7969,2.752,2.6871,2.6841,2.7505,2.6243,0.0,0.0,0.0,0.0,0.0,0.0,0.0,0.0,0.0,0.0,0.0,0.0,0.0,0.0,0.0,0.0,0.0,0.0,0.0,0.0,0.0,0.0,0.0,0.0,0.0,0.0,0.0,0.0,3.0721,3.074,0.0,3.0758,3.1284,3.163,3.161,3.2143,3.248,3.248,3.2449,3.2446,3.2446,3.2347,3.2278,3.2244,3.2474,3.2551,3.2436,3.2763,3.2885,3.2865,3.2865,3.2872,3.2864,3.2904,3.2904,3.2814,3.2173,3.1968,3.2053,3.1955,3.1904,3.1891,3.1862,3.1838,3.1847,3.2153,3.2233,3.2294,3.2362,3.2405,3.2352,3.2066,3.2316,3.2661,3.246,3.2944,3.3547,3.3547,3.3862,3.4141,3.3942,3.3845,3.3703,3.33,3.3445,3.3481,3.3025,3.2944,3.2918,3.2865,3.304,3.313,3.2911,3.2556,3.2248,3.2092,3.1562,3.1151,3.1015,3.0975,3.0895,3.0692,3.0241,2.9705,2.9136,2.8591,2.8076,2.7625,2.735,2.7385,2.7625,2.7111,2.7075,0.0,0.0,0.0,0.0,0.0,0.0,0.0,0.0,0.0,0.0,0.0,0.0,0.0,0.0,0.0,0.0,0.0,0.0,0.0,0.0,0.0,0.0,0.0,0.0,0.0,0.0,3.1588,3.1577,3.1627,3.1648,3.1631,3.2165,3.2519,3.2536,3.3062,3.3392,3.3406,3.3406,3.3404,3.3398,3.3329,3.3276,3.3196,3.3403,3.3445,3.3333,3.3641,3.3776,3.3776,3.3776,3.3782,3.3774,3.3774,3.3742,3.3709,3.3695,3.3743,3.3742,3.3122,3.2839,3.2812,3.279,3.2781,3.279,3.3062,3.3349,3.3532,3.331,3.3292,3.3311,3.311,3.3276,3.35,3.3295,3.3766,3.4306,3.4306,3.4706,3.5035,3.4812,3.4773,3.4651,3.4154,3.4074,3.4023,3.3815,3.3807,3.3807,3.3753,3.3671,3.3605,3.3549,3.2957,3.2486,3.2317,3.1768,3.1291,3.1095,3.1015,3.0935,3.0773,3.0426,2.9968,2.9348,2.8873,2.8352,2.7845,2.766,2.7625,2.7625,2.7625,2.7625,2.7625,0.0,0.0,0.0,0.0,0.0,0.0,0.0,0.0,0.0,0.0,0.0,0.0,0.0,0.0,0.0,0.0,0.0,0.0,0.0,0.0,0.0,0.0,0.0,3.2145,3.2759,3.3296,3.3283,3.3297,3.3295,3.3308,3.3311,3.3378,3.3429,3.3469,3.3474,3.3476,3.3476,3.3473,3.3476,3.3427,3.3354,3.3281,3.3984,3.4314,3.425,3.5103,3.5493,3.5493,3.5493,3.5493,3.5493,3.5493,3.5493,3.5493,3.5427,3.5412,3.524,3.3686,3.2994,3.2889,3.3019,3.2994,3.301,3.3839,3.4653,3.5261,3.4997,3.5051,3.5176,3.4945,3.5037,3.5176,3.4964,3.4889,3.4908,3.4889,3.4908,3.4831,3.4551,3.4508,3.4375,3.3902,3.3815,3.3815,3.3815,3.3807,3.3807,3.3807,3.3753,3.3671,3.3587,3.3268,0.0,3.2385,3.1967,3.1582,3.1269,3.1095,3.0992,3.0912,3.0773,3.0468,2.9837,2.9348,2.8889,2.8336,2.7845,2.7625,2.7625,2.7625,2.7625,2.7625,0.0,0.0,0.0,0.0,0.0,0.0,0.0,0.0,0.0,0.0,0.0,0.0,0.0,0.0,0.0,0.0,0.0,0.0,0.0,0.0,0.0,0.0,3.3849,3.2986,3.3083,3.3209,3.3161,3.3197,3.3235,3.3219,3.3793,3.4198,3.4276,3.4864,3.5222,3.5271,3.5293,3.5291,3.5289,3.5271,3.524,3.5165,3.5263,3.5282,3.5214,3.5412,3.5493,3.5493,3.5493,3.5493,3.5493,3.5493,3.5493,3.5493,3.5493,3.546,3.5422,3.4875,3.4654,3.4625,3.4654,3.4654,3.4644,3.4894,3.5109,3.5285,3.52,3.5223,3.5226,3.4981,3.5034,3.5176,3.4964,3.5019,3.5089,3.4945,3.4908,3.4792,3.439,3.4375,3.442,3.4154,3.4099,3.4099,3.4099,3.3921,3.3807,3.3807,3.3753,3.3698,3.3671,3.328,0.0,3.283,3.2179,3.164,3.1582,3.1312,3.1112,3.0975,3.0895,3.0593,2.9968,2.9393,2.8889,2.8336,2.7845,2.7625,2.7625,2.7625,2.7625,0.0,0.0,0.0,0.0,0.0,0.0,0.0,0.0,0.0,0.0,0.0,0.0,0.0,0.0,0.0,0.0,0.0,0.0,0.0,0.0,0.0,0.0,3.4715,3.4823,3.432,3.4243,3.4212,3.4121,3.4195,3.4236,3.4157,3.462,3.4975,3.509,3.5513,3.5827,3.5952,3.5964,3.5972,3.5996,3.5995,3.5942,3.5856,3.578,3.5714,3.5631,3.5581,3.5528,3.5528,3.5515,3.5493,3.5493,3.5493,3.5493,3.5493,3.5493,3.5493,0.0,0.0,0.0,0.0,0.0,3.5379,3.5379,3.5364,3.5315,3.53,3.5304,3.5273,3.5226,3.5069,3.5105,3.5176,3.4964,3.4963,3.5054,3.4945,3.4908,3.4926,3.498,3.5011,3.5061,3.5218,3.5162,3.5077,3.5077,3.4944,0.0,3.4853,3.4238,3.3726,3.3698,3.3455,3.322,3.3024,3.2419,3.1932,3.1714,3.1389,3.1151,3.1015,3.0975,0.0,0.0,0.0,2.9104,2.8336,2.7845,0.0,0.0,0.0,2.7625,2.7625,0.0,0.0,0.0,2.8023,2.8263,0.0,0.0,0.0,0.0,0.0,0.0,0.0,0.0,0.0,0.0,0.0,0.0,0.0,0.0,0.0,0.0,3.5704,3.5684,3.5673,3.5673,3.562,3.5515,3.5608,3.5623,3.5481,3.5481,3.5557,3.5745,3.566,3.5687,3.5875,0.0,0.0,0.0,0.0,3.6074,3.5968,3.6056,3.6055,3.6001,3.5931,3.5899,3.5899,3.583,3.5803,3.579,3.5795,3.5795,3.5795,3.5795,3.5795,3.5757,3.557,3.5493,3.5493,3.5493,3.5493,3.5493,3.5427,0.0,0.0,3.5438,3.5411,3.5379,3.5458,3.5496,3.5444,3.5286,3.5211,3.5211,3.5192,3.5173,3.5344,3.6044,3.6052,3.6062,3.6609,3.6562,3.6408,3.6342,3.6342,3.6342,3.6303,3.5073,3.4055,3.4,3.3973,3.3777,3.3273,3.2859,3.2371,3.1841,0.0,0.0,3.1015,3.1015,3.0975,3.0912,3.0284,2.9406,2.8336,2.7845,2.7625,2.7625,2.7625,2.7625,2.7625,2.7625,2.7625,2.7625,2.8027,2.8207,0.0,0.0,0.0,0.0,0.0,0.0,0.0,0.0,0.0,0.0,0.0,0.0,0.0,0.0,0.0,3.5704,3.5704,3.5662,3.5553,3.554,3.5528,3.5496,3.5528,3.5483,3.5355,3.534,3.5405,3.5557,3.5527,3.5611,3.5803,3.5814,3.5855,3.5927,3.6591,3.6973,3.7006,3.7593,3.7882,3.7884,0.0,0.0,3.7771,3.7652,3.7614,3.7583,3.7544,3.7526,3.7526,3.7526,3.7526,3.7373,3.6026,3.5493,3.5493,3.5493,3.5493,3.5493,3.5493,3.546,3.5575,3.6223,3.6385,3.6454,3.7111,3.7269,0.0,3.7181,3.7163,3.7108,3.6957,3.6918,3.6896,3.6842,3.6963,3.706,3.6967,3.7073,3.7051,3.6649,3.6589,3.6554,3.6342,3.6028,3.5807,3.5779,3.5703,3.5341,3.4539,3.4114,3.3413,3.2301,3.1823,3.1487,3.119,3.1055,3.0975,3.0975,2.9978,2.9027,2.8336,2.7845,2.7625,2.7625,2.7625,2.7625,2.7625,2.7625,2.7625,2.7625,2.771,2.776,0.0,0.0,0.0,0.0,0.0,0.0,0.0,0.0,0.0,0.0,0.0,3.5502,0.0,0.0,3.5596,3.5596,3.5944,3.617,3.61,3.643,3.6315,3.5407,3.5374,3.5532,3.5815,3.5837,3.6071,3.6603,3.6656,3.671,3.6829,3.6978,3.7039,3.7,3.75,3.7808,3.7897,3.8261,3.8469,3.8506,3.8405,3.8355,3.835,3.8241,3.819,3.8194,3.808,3.8041,3.8061,3.7998,3.8007,3.7911,3.7084,3.6757,3.6757,3.6757,3.6757,3.6757,3.6709,3.6709,3.6772,3.7164,3.7283,3.7329,3.7702,3.7783,3.7747,3.771,3.7693,3.7675,3.7585,3.7547,3.7643,3.7944,3.7998,3.809,3.8398,3.8452,3.8361,3.8097,3.7962,3.7867,3.772,3.7595,3.7221,3.6413,3.619,3.5919,3.5476,3.4842,3.418,3.3512,3.2907,3.2474,3.2307,3.1911,3.1459,3.0969,3.0107,2.9345,2.8732,2.8222,2.7845,2.761,2.7625,2.7625,2.7625,2.7625,2.7625,2.7625,2.7625,2.7625,0.0,0.0,0.0,0.0,0.0,0.0,0.0,0.0,3.5223,3.5395,3.5484,3.5573,3.5741,3.5869,3.5925,3.5878,3.6421,3.6795,3.6696,3.7211,3.7051,3.5552,3.5545,3.5866,3.6388,3.6425,3.6749,3.7525,3.7581,3.7651,3.7836,3.8009,3.8141,3.8136,3.8384,3.858,3.8741,3.8907,3.9012,3.9083,3.8986,3.8927,3.8927,3.8868,3.8818,3.883,3.8667,3.8607,3.8627,3.8546,3.8522,3.8522,3.8517,3.8503,3.8464,3.8123,3.8007,3.7988,3.7939,3.7924,3.7963,3.8089,3.815,3.8169,3.8274,3.8314,3.8278,3.8244,3.8207,3.8207,3.8207,3.8226,3.8381,3.9088,3.9089,3.9079,3.9697,3.9693,3.9532,3.9357,3.9245,3.9156,3.9101,3.8921,3.8309,3.6964,3.6666,3.6486,3.6249,3.5618,3.5013,3.4618,3.4007,3.3556,3.3406,3.2848,3.2158,3.1381,3.0606,2.9944,2.9326,2.8573,2.7978,2.7625,2.7625,2.7625,2.7625,2.7625,2.7625,2.7625,2.7625,2.7625,3.4923,3.4868,3.5026,3.5232,3.5114,3.4904,0.0,0.0,3.4983,3.576,3.6102,3.653,3.7357,3.7523,3.7472,3.7241,3.7262,3.7166,3.675,3.6775,3.67,3.6373,3.6712,3.6877,3.6584,3.6515,3.6597,3.6808,3.6808,3.7055,3.7594,3.7561,3.7747,3.8246,3.8937,3.9371,3.956,4.0324,4.0758,4.0812,4.0812,4.0793,4.0793,4.0732,4.0704,4.0695,4.0556,4.0496,4.0496,4.0434,4.041,4.0391,4.0342,4.0309,4.0111,3.858,3.8007,3.8007,3.7988,3.7988,3.8108,3.8812,3.9045,3.9199,3.9898,4.0111,4.0111,4.0111,4.0057,4.002,4.002,4.0022,4.0043,4.0138,4.0139,4.0022,3.9628,3.9717,3.9647,3.8921,3.9156,3.9376,3.9156,3.9073,3.8905,3.8481,3.8334,3.7948,3.7161,3.6944,3.6245,3.4761,3.4526,3.4164,3.3448,3.3322,3.317,3.2864,3.1344,3.0334,3.0101,2.856,2.766,2.7625,2.7625,2.7625,2.7625,2.7625,2.7625,2.7625,2.7625,2.7625,3.5434,3.5268,3.5227,0.0,3.5124,3.5233,3.5844,3.6001,3.6179,3.6704,3.69,3.7053,3.7296,3.7394,3.7355,0.0,3.742,3.7671,3.7461,3.779,3.7968,3.7745,3.77,3.7553,3.732,3.7264,3.7485,3.7992,3.814,3.8271,3.8413,3.8679,3.8918,3.912,3.9627,3.9972,4.0106,4.0468,4.074,4.0937,4.0937,4.1015,4.1151,4.1093,4.1032,4.1001,4.0947,4.0876,4.0807,4.0779,4.0757,4.0747,4.0723,4.0684,4.0554,3.9798,3.9484,3.945,3.945,3.945,3.9508,3.9858,3.9957,4.0015,4.0351,4.0449,4.0449,4.0415,4.0379,4.0362,4.0362,4.0363,4.0364,4.0364,4.0364,4.0309,4.006,4.0119,4.008,3.9683,3.9566,3.9445,3.9331,3.9192,3.9073,3.895,3.8695,3.835,3.7958,3.7631,3.6952,3.5715,3.5578,3.5145,3.4109,3.4032,3.3777,3.3261,3.2142,3.1289,3.0879,2.9407,2.845,2.8173,2.7784,2.7625,2.7625,2.7625,2.7625,2.7625,2.7625,2.7625,3.5956,3.5733,0.0,3.5449,3.5422,3.5596,3.6463,3.6696,3.687,3.731,3.7457,3.751,3.7547,3.7638,3.7601,3.7292,3.7761,3.8098,3.7896,3.8269,3.8493,3.818,3.7875,3.7657,3.7577,3.7552,3.7772,3.837,3.8678,3.8793,3.8765,3.9239,3.9566,3.9649,3.9886,4.0062,4.0189,4.0181,4.0355,4.0688,4.056,4.074,4.1191,4.1152,4.1093,4.1051,4.1051,4.0994,4.0914,4.0894,4.0875,4.0888,4.0862,4.082,4.0761,4.0706,4.0622,4.0523,4.0523,4.0523,4.0504,4.0549,4.0534,4.0523,4.0543,4.0527,4.0499,4.0447,4.0432,4.0432,4.0432,4.0415,4.0398,4.0398,4.0398,4.0379,4.0307,4.0289,4.0252,4.012,3.9838,3.9595,3.9609,3.9458,3.9298,3.9219,3.8952,3.8718,3.8523,3.8016,3.7376,3.6719,3.6451,3.595,3.5061,3.488,3.4547,3.3927,3.2925,3.2158,3.1628,3.0219,2.9249,2.8861,2.8382,2.8038,2.7859,2.7859,2.7754,2.7625,2.7625,2.7625,3.6288,0.0,3.5962,3.6186,3.6062,3.5903,3.601,3.601,3.6289,3.7213,3.7609,3.8024,3.8804,3.8934,3.8869,3.8584,3.856,3.8323,3.7631,3.7542,3.7377,3.7017,3.6939,3.6921,0.0,3.6943,3.6943,3.696,3.734,3.7771,3.8186,3.8475,3.8906,3.9482,3.9376,3.9419,3.9611,3.9615,3.9889,4.0414,3.9945,4.0255,4.1191,4.1191,4.1191,4.1191,4.1191,4.1191,4.1172,4.1113,4.1093,4.1073,4.1013,4.0942,4.0889,4.0904,4.0764,4.0607,4.0607,4.0539,4.0519,4.0642,4.0621,4.0519,4.0655,4.0588,4.0489,4.0489,4.0495,4.0502,4.0502,4.0449,4.0398,4.0398,4.0398,4.0325,4.0062,4.0022,3.9943,3.9668,3.9775,3.988,3.988,3.9876,3.9785,3.9526,3.9477,3.9287,3.8847,3.8029,3.7505,3.7469,3.6759,3.6284,3.6266,3.5837,3.5543,3.5424,3.3758,3.2658,3.236,3.0726,2.9696,2.9549,2.9535,2.9205,2.8562,2.8562,2.8233,2.7625,2.7625,2.7625,3.6302,3.6103,3.602,3.5933,3.5687,3.574,3.687,3.7178,3.7362,3.7949,3.8338,3.8609,3.8722,3.8511,3.8223,3.7911,3.7667,3.7414,3.7132,3.6544,3.6074,3.5924,3.4834,0.0,0.0,0.0,0.0,3.69,3.7266,3.747,3.7344,3.7577,3.7832,3.8036,3.8199,3.8322,3.8394,3.8654,3.8943,3.9222,3.9463,3.9728,4.001,4.0142,4.0356,4.0605,4.0644,4.0879,4.1191,4.1172,4.1172,4.1152,4.1146,4.1094,4.1032,4.102,4.0942,4.0781,4.0761,4.072,4.0713,4.0749,4.0729,4.0696,4.0706,4.0668,4.0602,4.0519,4.0508,4.0492,4.0492,4.0476,4.046,4.046,4.046,4.0425,4.0356,4.0319,4.0285,4.0158,4.0042,3.9962,3.9897,3.9895,3.9807,3.9551,3.9127,3.8836,3.8818,3.8346,3.7897,3.7542,3.7283,3.686,3.6343,3.6174,3.5915,3.5594,3.4584,3.3973,3.3876,3.212,3.1081,3.0937,3.0152,2.9567,2.925,2.925,2.9131,2.8891,2.8457,2.8248,3.6522,3.6244,3.6092,3.5933,3.5734,3.5838,3.6996,3.7434,3.7665,3.7954,3.8363,3.8609,3.8263,3.7995,3.7737,3.7542,3.7266,3.6943,3.6441,3.5685,3.4684,3.3161,3.1846,3.1158,0.0,0.0,0.0,3.6288,3.6746,3.6843,3.6701,3.6911,3.7049,3.7086,3.7273,3.7327,3.7327,3.7575,3.7767,3.7857,3.8618,3.8842,3.8658,3.895,3.9328,3.9734,3.9777,4.0212,4.0879,4.0879,4.1016,4.1191,4.1191,4.1164,4.1144,4.1142,4.1077,4.0981,4.0876,4.0811,4.0811,4.0857,4.0848,4.0801,4.0749,4.0711,4.0668,4.0534,4.0489,4.0489,4.0489,4.0489,4.0489,4.0489,4.0508,4.0492,4.0489,4.0508,4.0495,4.0449,4.0289,4.012,4.004,3.9977,3.9829,3.967,3.91,3.8707,3.867,3.8446,3.8189,3.7879,3.7505,3.7094,3.658,3.6241,3.5915,3.5622,3.5005,3.464,3.4576,3.3251,3.2379,3.2042,3.1198,3.057,3.0033,2.9963,2.9804,2.9564,2.9146,2.8951,3.6921,3.6522,3.6172,3.6172,3.613,3.6172,3.634,3.6729,3.7079,3.723,3.7685,3.7933,0.0,0.0,3.7305,3.7197,3.7142,3.654,3.5091,3.4543,3.2884,0.0,0.0,0.0,0.0,0.0,0.0,3.4319,0.0,3.5467,3.5676,3.6017,3.6225,3.6383,3.6394,3.6429,3.6429,3.647,3.6452,3.651,3.745,3.7691,3.7235,3.7743,3.8166,3.8633,3.8619,3.9232,4.0227,4.0211,4.0565,4.1112,4.1132,4.1152,4.1152,4.1172,4.1197,4.1173,4.0986,4.087,4.0831,4.0967,4.091,4.08,4.082,4.0759,4.0681,4.0549,4.0504,4.0489,4.0489,4.0489,4.0489,4.0489,4.0495,4.0499,4.0508,4.0495,4.0502,4.0502,4.0432,4.0379,4.0307,4.008,3.9914,3.9914,3.9433,3.8942,3.8554,3.8401,3.8322,3.8401,3.7524,3.696,3.6981,3.6165,3.565,3.5622,3.5131,3.4769,3.4688,3.4087,3.3495,3.2841,3.2695,3.202,3.086,3.0679,3.0253,2.9738,2.9654,2.9624,3.6122,3.5864,3.5732,3.5732,3.5481,3.5362,3.5837,3.5525,3.5351,3.6239,3.626,3.6313,0.0,0.0,0.0,3.3108,3.1931,0.0,2.8135,2.7067,0.0,2.4855,0.0,2.2206,1.9986,2.19,0.0,0.0,2.6483,2.8054,2.7802,3.0301,3.1773,3.1757,3.4259,3.5605,3.5605,3.5837,3.6105,3.6405,3.6707,3.6665,3.6516,3.6748,3.7102,3.7533,3.7613,3.8204,3.9122,3.915,3.9489,3.9959,4.0266,4.0467,4.0625,4.082,4.1007,4.1136,4.1112,4.1082,4.103,4.1055,4.1046,4.1013,4.0961,4.0866,4.077,4.0662,4.0593,4.0489,4.0489,4.0489,4.0489,4.0489,4.0508,4.0508,4.0489,4.0508,4.0511,4.0482,4.0415,4.0325,4.0307,4.008,3.9914,3.9914,3.9433,3.9027,3.8828,3.8597,3.8433,3.8322,3.8135,3.7721,3.7017,3.6764,3.6357,3.565,3.547,3.5362,3.5362,3.4464,3.3802,3.3547,3.2749,3.2114,3.1682,3.1513,3.1381,3.1216,3.0578,3.0268,3.5994,3.5571,3.527,3.527,3.5102,3.4977,3.5333,3.5232,3.5256,3.589,3.5676,0.0,0.0,0.0,0.0,0.0,0.0,0.0,2.496,2.2747,2.0593,0.0,1.6446,0.0,1.1849,1.3185,1.3774,0.0,2.029,2.5001,2.4922,2.6618,2.7686,2.7732,3.1495,3.4264,3.5803,3.403,3.4003,3.5715,3.5715,3.5671,3.5644,3.5742,3.6034,3.6454,0.0,3.7114,3.7998,3.8102,3.8551,3.9218,3.951,3.9806,4.0122,4.0396,4.0568,4.0699,4.0935,4.1003,4.098,4.1066,4.1108,4.1081,4.1011,4.094,4.0866,4.0742,4.0642,4.0559,4.0519,4.0489,4.0489,4.0489,4.0492,4.0492,4.0489,4.0492,4.0495,4.0502,4.0432,4.0325,4.0307,4.0177,4.0039,3.9914,3.9532,3.9219,3.9017,3.8688,3.8478,3.8469,3.8252,3.7895,3.734,3.696,3.6481,3.5958,3.5694,3.547,3.527,3.488,3.4317,3.3531,3.3145,3.2641,3.2094,3.194,3.1841,3.1784,3.1321,3.1012,3.6062,3.5481,3.4883,3.4994,3.4977,3.4977,3.5024,3.5374,3.5742,3.582,0.0,3.5161,3.4944,3.1878,2.9157,2.8455,0.0,2.3465,2.1742,1.8586,1.5178,1.1609,0.8127,0.5032,0.2407,0.2313,0.222,0.1708,1.3606,2.1284,2.2049,2.2252,2.287,2.3969,2.8144,3.1838,3.4869,3.0969,3.0554,3.3514,3.4007,3.4235,3.4235,3.4673,3.5102,3.5498,3.5498,3.6027,3.6921,3.7138,3.7751,3.8627,3.887,3.9208,3.9639,3.99,4.0043,4.0159,4.0552,4.0742,4.0828,4.1035,4.1094,4.1085,4.1022,4.1019,4.0967,4.0789,4.073,4.0674,4.0564,4.0534,4.0519,4.0504,4.0495,4.0499,4.0508,4.0495,4.0499,4.0499,4.0449,4.0379,4.0325,4.0307,4.0215,3.9998,3.9717,3.9427,3.9165,3.8796,3.8559,3.8658,3.8201,3.7861,3.7738,3.6943,3.6433,3.6259,3.5827,3.5379,3.4927,3.5224,3.4721,3.3339,3.3495,3.3145,3.2247,3.2094,3.194,3.1841,3.1799,3.1727,3.5316,3.5024,3.4977,3.5362,3.5498,3.5498,3.5605,3.5153,0.0,0.0,3.4908,3.4541,3.5311,3.2029,0.0,2.3426,0.0,0.0,0.0,0.0,0.6399,0.0,0.0,0.0,0.0,0.0,0.0,0.0,0.0,0.3712,0.7001,0.9907,1.4126,1.9991,2.3722,2.5968,2.656,2.5816,2.5729,2.6324,2.9204,3.0624,3.0694,3.358,3.493,3.5024,3.5024,0.0,3.6051,3.6468,3.7052,3.7703,3.8409,3.8807,3.9081,3.9398,3.9731,4.0038,4.0174,4.0444,4.0766,4.1012,4.1105,4.1108,4.1081,4.1033,4.0987,4.096,4.0866,4.0761,4.0694,4.0655,4.0629,4.0534,4.0508,4.0508,4.0489,4.0508,4.0508,4.0508,4.0479,4.0485,4.0466,4.0379,4.027,4.0233,3.9873,3.9551,3.9433,3.8989,3.864,3.8541,3.8428,3.8099,3.7377,3.7058,3.662,3.5932,3.5711,3.5577,3.547,3.4673,3.4136,3.3869,3.3055,3.2547,3.2342,3.2247,3.2135,3.215,3.1898,3.1784,3.5977,3.5616,3.5362,3.582,3.5907,3.595,3.6079,0.0,0.0,0.0,3.4891,3.4268,3.4703,0.0,0.0,0.0,0.0,0.0,0.0,0.0,0.0,0.0,0.0,0.0,0.0,0.0,0.0,0.0,0.0,-0.6341,0.0083,0.5697,1.0425,1.4167,1.7383,2.1101,2.5269,2.2986,2.3629,2.7257,2.8929,3.0639,3.2447,3.4154,3.4899,3.4899,3.4994,3.5182,3.547,3.5837,3.6399,3.7076,3.7542,3.8039,3.8564,3.886,3.9175,3.9514,3.9838,4.0233,4.0642,4.087,4.1006,4.1105,4.1094,4.1078,4.1033,4.1,4.0898,4.0781,4.0711,4.0642,4.0593,4.0519,4.0489,4.0489,4.0489,4.0489,4.0489,4.0489,4.0492,4.0495,4.0502,4.0432,4.0325,4.0307,3.9876,3.9551,3.9483,3.9017,3.8676,3.8609,3.8609,3.8415,3.7911,3.7415,3.6943,3.6457,3.5941,3.5577,3.5224,3.4975,3.4431,3.3614,3.3355,3.2964,3.2398,3.2342,3.2247,3.2094,3.194,3.1841,3.6684,3.6232,3.582,3.6232,3.6357,3.644,3.6545,3.6316,0.0,0.0,3.5508,3.479,3.497,0.0,0.0,0.0,0.0,0.0,0.0,0.0,0.0,0.0,0.0,0.0,0.0,0.0,0.0,0.0,0.0,0.0,-0.5137,0.1654,0.5833,0.7196,1.095,1.5931,2.2224,1.9593,2.0928,2.64,2.7857,3.0018,3.2716,3.4235,3.4899,3.4947,3.5041,3.5105,3.5182,3.5577,3.6139,3.6786,3.7055,3.7595,3.8225,3.8433,3.8773,3.9138,3.9564,4.0083,4.0591,4.0781,4.0942,4.1093,4.1101,4.1091,4.1085,4.1047,4.0954,4.0846,4.0757,4.0636,4.054,4.0519,4.0489,4.0489,4.0489,4.0473,4.0441,4.0441,4.0389,4.0372,4.043,4.0379,4.0344,4.0342,3.9876,3.9532,3.9508,3.9045,3.8738,3.8707,3.8658,3.8528,3.8281,3.7631,3.7079,3.6746,3.6114,3.5515,3.4975,3.527,3.4816,3.3547,3.3716,3.3407,3.2586,3.2453,3.2247,3.2038,3.1996,3.1826,3.6357,3.6232,3.6274,3.6741,3.6917,3.7052,3.7111,0.0,0.0,3.7335,3.7076,3.6968,3.786,3.5287,3.2177,0.0,0.0,0.7309,0.0,0.0,0.0,0.0,0.0,0.0,0.0,0.0,0.0,0.0,0.0,0.0,-1.2469,-0.8307,-0.4531,-0.0847,0.5741,0.9639,1.0398,1.3137,1.4892,1.5613,2.1974,2.5138,2.5665,3.2008,3.4947,3.5105,3.4947,0.0,0.0,3.6147,3.6586,3.6978,3.7774,3.814,3.8192,3.8225,3.8697,3.9383,3.9441,4.0019,4.0789,4.0855,4.0978,4.1094,4.1108,4.1099,4.1108,4.1085,4.1081,4.1022,4.0846,4.0791,4.0729,4.0545,4.0489,4.0489,4.0489,4.0356,4.0233,4.0233,4.0023,3.9943,4.0196,4.0177,4.0215,4.0449,4.0039,3.9651,3.9524,3.9073,3.878,3.8707,3.859,3.8216,3.7488,3.7173,3.6724,3.5975,3.5711,3.5577,3.5532,3.5131,3.4816,3.4673,3.3751,3.3251,3.3145,3.2492,3.2191,3.2206,3.194,3.1784,3.7266,3.7097,3.6964,3.7432,3.7504,3.7485,3.7613,0.0,3.7676,3.7966,3.7934,3.7972,3.8314,3.775,3.5987,3.2243,0.0,0.0,0.0,0.0,0.0,0.0,0.0,0.0,0.0,0.0,0.0,0.0,0.0,0.0,-2.0349,-1.2163,-0.8032,-0.8857,0.0501,0.6665,0.876,1.0174,1.2997,1.7246,2.0048,2.3561,2.7723,3.0498,3.2985,3.5088,3.5041,3.5198,0.0,3.6054,3.6522,3.6939,3.7559,3.7967,3.821,3.8531,3.8935,3.9423,3.9722,4.0252,4.0808,4.0827,4.0982,4.1152,4.111,4.1101,4.1108,4.1108,4.1074,4.0992,4.0846,4.0707,4.061,4.0519,4.0489,4.0489,4.0489,4.0339,4.0196,4.0196,3.9983,3.984,3.9943,4.0042,4.0139,4.0252,3.9958,3.9651,3.9524,3.9073,3.8762,3.8707,3.8658,3.8496,3.8168,3.7542,3.702,3.6661,3.6071,3.5667,3.5622,3.5379,3.5131,3.4833,3.407,3.3511,3.3182,3.2602,3.2247,3.2094,3.1996,3.1826,3.8,3.7844,3.7632,3.8128,3.8023,3.7864,0.0,0.0,3.8322,3.8833,3.8514,3.8387,3.9096,3.8362,3.6787,3.4163,0.0,1.6569,0.0,0.0,0.0,0.0,0.0,0.0,0.0,0.0,0.0,0.0,0.0,0.0,-2.657,-1.7714,-1.2968,-1.341,-0.4587,0.2466,0.7182,0.8235,1.1792,1.7804,1.8842,2.2383,2.8183,2.9204,3.1703,3.5088,3.5041,3.5198,0.0,3.5898,3.6374,3.6939,3.734,3.7864,3.8443,3.8782,3.9232,3.976,4.008,4.0502,4.0918,4.0917,4.104,4.1171,4.1058,4.1055,4.1108,4.1108,4.1033,4.0933,4.0801,4.0642,4.0523,4.0504,4.0473,4.0441,4.0425,4.0195,4.0021,4.0001,3.9772,3.9618,3.9705,3.9835,3.9981,4.0101,3.9832,3.9604,3.9548,3.91,3.8762,3.8707,3.8707,3.8627,3.8465,3.7738,3.7155,3.6999,3.6182,3.5711,3.5622,3.5622,3.5424,3.5021,3.4333,3.3818,3.3443,3.2695,3.2247,3.1996,3.194,3.1769,3.8318,3.8186,3.8126,3.8749,3.8379,3.8186,0.0,0.0,3.867,4.0068,3.8897,3.8339,4.0722,3.6453,3.3026,3.4438,2.1204,0.0,0.0,0.0,0.0,0.0,0.0,0.0,0.0,0.0,0.0,0.0,0.0,0.0,-3.0553,-2.67,-2.1007,-1.3238,-0.948,-0.3965,0.3462,0.7015,1.0619,1.4243,1.7666,2.1123,2.4669,2.8124,3.1703,3.5088,0.0,3.5152,0.0,3.5793,3.6274,3.6939,3.734,3.8079,3.8891,3.8891,3.9537,4.0385,4.0401,4.075,4.1194,4.1198,4.1207,4.1146,4.0888,4.0929,4.1108,4.1108,4.0992,4.0867,4.0738,4.0662,4.0573,4.0523,4.0392,4.027,4.0214,3.9897,3.9575,3.9526,3.9298,3.9192,3.9477,3.9483,3.9656,4.012,3.9747,3.9458,3.9576,3.9127,3.8762,3.8707,3.8707,3.8496,3.7946,3.747,3.6981,3.6457,3.5898,3.5622,3.5622,3.5622,3.5622,3.5577,3.4529,3.3986,3.3986,3.2803,3.215,3.1996,3.1841,3.167,3.8487,3.8496,3.8427,3.9022,3.8782,3.8599,3.9335,0.0,3.9592,3.9004,3.8727,3.8465,3.8229,3.5082,3.1706,2.9237,2.2929,0.0,0.0,0.0,0.0,0.0,0.0,0.0,0.0,0.0,0.0,0.0,0.0,0.0,-3.0568,-2.9417,-2.6336,-2.1172,-1.7322,-1.0573,-0.0653,0.057,0.5473,1.4088,1.518,1.7587,2.0989,2.2055,2.5856,0.0,0.0,3.2921,3.5571,3.6464,3.6856,3.7031,3.8438,3.895,3.8997,3.9665,4.0133,4.0436,4.0819,4.1064,4.1209,4.1192,4.1191,4.1178,4.1044,4.1023,4.1017,4.098,4.0902,4.0819,4.0787,4.0582,4.0386,4.037,4.0194,4.0022,4.0002,3.9747,3.9526,3.9483,3.9272,3.9129,3.9219,3.9376,3.9556,3.9698,3.958,3.9477,3.9464,3.911,3.8743,3.8378,3.8578,3.8515,3.8083,3.7542,3.7058,3.658,3.6028,3.5684,3.5622,3.5224,3.5068,3.5068,3.402,3.3443,3.3443,3.2695,3.2247,3.1996,3.1712,3.1539,0.0,3.8731,3.8775,3.9373,3.9245,0.0,0.0,0.0,3.9369,3.8656,3.7878,3.6878,3.5427,3.1911,2.8211,2.501,2.0239,0.0,0.0,0.0,0.0,0.0,0.0,0.0,0.0,0.0,0.0,0.0,0.0,0.0,-3.0568,-3.0568,-2.9435,-2.69,-2.309,-1.6396,-0.6707,-0.2134,0.4307,1.2499,1.6999,2.0123,2.1857,2.1801,2.4747,0.0,2.9734,3.1862,0.0,3.6621,3.7128,3.7321,3.8832,3.9456,3.9546,4.0175,4.0495,4.0731,4.1072,4.1191,4.1208,4.1193,4.105,4.0906,4.0905,4.0942,4.0957,4.0917,4.0849,4.0787,4.0761,4.0554,4.0317,4.0317,4.0081,3.9876,3.9835,3.9628,3.9446,3.9401,3.9219,3.9101,3.9101,3.9245,3.9401,3.9483,3.9408,3.935,3.9401,3.9129,3.8755,3.8245,3.8396,3.8267,3.7685,3.7433,3.7117,3.6684,3.6114,3.5773,3.5667,3.5316,3.5021,3.4816,3.3969,3.3391,3.3182,3.2586,3.2191,3.1996,3.1712,3.1597,0.0,3.894,0.0,0.0,0.0,0.0,0.0,0.0,0.0,0.0,3.6532,3.4118,3.2496,2.7618,2.339,2.1967,0.0,0.0,0.0,0.0,0.0,0.0,0.0,0.0,0.0,0.0,0.0,0.0,0.0,0.0,-3.06,-3.06,-3.0459,-3.0302,-2.6937,-2.153,-1.4065,-0.2017,0.5897,0.986,2.1883,2.6892,2.5633,2.5605,2.7031,0.0,2.942,3.1719,0.0,3.654,3.7212,3.7827,3.8776,3.9658,4.0408,4.0429,4.0727,4.1113,4.1172,4.1209,4.1202,4.1169,4.0826,4.0436,4.0569,4.0725,4.0858,4.0885,4.0851,4.0768,4.0707,4.0534,4.0372,4.0283,4.0021,3.9758,3.9693,3.9539,3.9373,3.9256,3.9156,3.9101,3.9101,3.9101,3.9192,3.9433,3.9272,3.9183,3.935,3.9156,3.8785,3.8212,3.818,3.7825,3.6939,3.7097,3.7079,3.6706,3.6156,3.5817,3.5817,3.5622,3.5316,3.4833,3.4235,3.3665,3.3145,3.2492,3.215,3.1996,3.1841,3.1727,3.8268,0.0,3.9549,4.0335,4.0302,4.0192,0.0,0.0,0.0,0.0,0.0,0.0,0.0,0.0,0.0,0.0,0.0,0.0,0.0,0.0,0.0,0.0,0.0,0.0,0.0,0.0,0.0,0.0,0.0,-3.0392,-3.0392,-3.0392,-3.0335,-3.0303,-2.9435,-2.5408,-1.7945,-0.5957,0.3281,0.986,2.1883,2.5654,2.2002,2.2002,2.3816,2.689,2.6921,3.096,3.7596,3.8538,3.8823,3.8808,4.0106,4.0528,4.0429,4.0793,4.101,4.1113,4.1172,4.1194,4.117,4.0972,4.0653,4.0367,4.0547,4.0485,4.0434,4.0752,4.0815,4.0764,4.0598,4.0389,4.0195,4.0021,3.9781,3.9577,3.9552,3.9451,3.9391,3.9373,3.9256,3.9183,3.9183,3.9129,3.9129,3.9192,3.9156,3.9129,3.9156,3.9064,3.8688,3.7891,3.8062,3.7702,3.6516,3.6781,3.6781,3.636,3.6208,3.5993,3.5817,3.5379,3.5021,3.4816,3.3853,3.3093,3.2602,3.2342,3.2191,3.215,3.1883,3.1784,3.8199,3.9099,4.0038,4.0431,4.0454,4.0251,0.0,0.0,0.0,0.0,0.0,0.0,0.0,0.0,0.0,0.0,0.0,0.0,0.0,0.0,0.0,0.0,0.0,0.0,0.0,0.0,0.0,0.0,0.0,-3.0224,-3.0224,-3.0271,-3.0232,-3.0085,-3.016,-2.8355,-2.4452,-1.2442,-0.1647,0.7845,1.9839,2.5005,2.3973,2.6069,2.6688,2.6182,2.8265,3.2594,3.8261,3.9203,3.9494,3.9486,4.0671,4.0969,4.0766,4.1034,4.1123,4.1105,4.1187,4.1123,4.096,4.0553,4.0292,4.0195,4.0367,4.0326,4.0286,4.0693,4.0733,4.0646,4.0539,4.0286,4.004,3.9935,3.9727,3.9546,3.9546,3.9495,3.9373,3.9175,3.9027,3.8952,3.8923,3.8894,3.8942,3.9073,3.9101,3.9101,3.9101,3.8913,3.8548,3.7771,3.7719,3.736,3.6367,3.6492,3.6533,3.6276,3.6208,3.6122,3.5993,3.5362,3.4721,3.407,3.3251,3.2695,3.2398,3.2342,3.2247,3.2206,3.2038,3.194,3.8271,3.9389,4.0522,4.054,4.0359,3.9971,0.0,0.0,0.0,0.0,0.0,0.0,0.0,0.0,0.0,0.0,0.0,0.0,0.0,0.0,0.0,0.0,0.0,0.0,0.0,0.0,0.0,0.0,0.0,-2.9519,-2.9519,-2.9631,-2.9569,-2.9288,-2.9787,-3.0218,-3.0548,-1.8475,-0.6414,0.5442,1.7473,2.5093,2.8763,3.2654,3.1834,2.7616,0.0,0.0,3.8691,3.9494,3.9915,4.0095,4.0875,4.1146,4.1108,4.1166,4.1158,4.1094,4.109,4.0935,4.0653,4.0103,3.9934,3.9962,4.0138,4.0139,4.0195,4.0626,4.0631,4.0473,4.037,4.012,3.9892,3.9848,3.9684,3.9552,3.9552,3.9476,3.9275,3.8894,3.8759,3.8748,3.8688,3.8688,3.8778,3.9073,3.9073,3.9027,3.9027,3.8718,3.831,3.7684,3.7379,3.696,3.6343,3.6301,3.6301,3.6301,3.6191,3.6079,3.5975,3.5362,3.4464,3.3266,3.2749,3.2492,3.2398,3.2398,3.2342,3.2247,3.2191,3.215,3.8347,3.9669,4.1068,4.1077,4.0123,3.9042,0.0,0.0,0.0,0.0,0.0,0.0,0.0,0.0,0.0,0.0,0.0,0.0,0.0,0.0,0.0,0.0,0.0,0.0,0.0,0.0,0.0,0.0,0.0,-2.6888,-2.6888,-2.6887,-2.6911,-2.6842,-2.8798,-3.0001,-3.035,-1.8293,-0.6323,0.5442,1.7473,2.6769,3.3385,3.4071,3.3934,3.317,0.0,3.6635,4.0662,4.0813,4.0873,4.0917,4.1066,4.1114,4.1108,4.1108,4.1119,4.1042,4.066,4.0502,4.0378,3.9832,3.9668,3.9736,4.008,3.9922,3.9735,4.037,4.0519,4.037,3.98,3.9769,3.9848,3.9679,3.9439,3.9264,3.9264,3.912,3.895,3.8892,3.8931,3.8942,3.8942,3.897,3.9027,3.9101,3.8865,3.8688,3.8688,3.8378,3.7948,3.734,3.7246,3.6956,3.6343,3.6301,3.6301,3.6301,3.5898,3.5436,3.4864,3.4927,3.4496,3.3487,3.323,3.2841,3.2398,3.2398,3.2398,3.2342,3.2247,3.2191,3.8489,3.9798,4.1205,4.1203,4.0475,3.9557,0.0,0.0,0.0,0.0,0.0,0.0,0.0,0.0,0.0,0.0,0.0,0.0,0.0,0.0,0.0,0.0,0.0,0.0,0.0,0.0,0.0,0.0,0.0,0.0,-2.7991,-2.5746,-2.4967,-2.6169,-2.7322,-2.8027,-2.8242,-2.4011,-1.5997,-0.4362,0.1152,0.7713,1.5287,2.4254,2.6999,2.5188,0.0,3.9189,4.1093,4.1099,4.1108,4.1108,4.1108,4.1108,4.1078,4.081,4.0714,4.0633,4.0018,3.9875,3.9904,3.9508,3.9474,3.9631,3.9769,3.9687,3.951,3.9569,3.9764,3.9924,3.9769,3.9628,3.9502,3.9413,3.9202,3.9036,3.9036,3.8979,3.8833,3.8554,3.8455,3.8455,3.8646,3.8615,3.8628,3.8807,3.8718,3.8517,3.8346,3.7982,3.7596,3.7226,3.6974,3.6673,3.6343,3.6301,3.6301,3.6301,3.6114,3.5554,3.4657,3.4704,3.4235,3.3011,3.2926,3.2711,3.2398,3.2398,3.2398,3.2398,3.2342,3.2302,3.8605,3.9875,4.1191,4.1191,0.0,0.0,0.0,0.0,0.0,0.0,0.0,0.0,0.0,0.0,0.0,0.0,0.0,0.0,0.0,0.0,0.0,0.0,0.0,0.0,0.0,0.0,0.0,0.0,0.0,0.0,-2.8061,-2.4407,-2.3162,-2.5184,-2.5912,-2.6341,-2.6508,-2.8895,-2.4241,-1.269,-1.269,-0.8201,0.0606,1.6133,2.1288,1.8874,3.4384,4.1113,4.1108,4.1108,4.1108,4.1065,4.0686,4.0435,4.0279,3.9981,4.0,4.0075,3.942,3.9379,3.9538,3.9166,3.9256,3.9508,3.9445,3.9358,3.9212,3.9016,3.9141,3.9421,3.9604,3.9477,3.9283,3.921,3.9064,3.8862,3.8833,3.8773,3.8621,3.8285,3.815,3.8165,3.8415,3.8396,3.841,3.8579,3.8517,3.8378,3.8016,3.7559,3.7206,3.7091,3.6713,3.6444,3.6301,3.6216,3.6156,3.6301,3.6301,3.5732,3.4544,3.4544,3.4003,3.2703,3.2648,3.2523,3.2398,3.2398,3.2398,3.2398,3.2398,3.2398,3.859,3.9862,4.1191,4.1191,3.9103,0.0,3.87,2.8775,0.0,0.0,0.0,0.0,0.0,0.0,0.0,0.0,0.0,0.0,0.0,0.0,0.0,0.0,0.0,0.0,0.0,0.0,0.0,0.0,0.0,0.0,-2.4202,-2.1805,-2.1188,-2.2728,-2.4964,-2.6244,-2.6501,-2.8895,-2.4241,-1.269,-1.269,-0.6572,0.5221,1.7573,2.3034,2.3396,3.5813,4.1169,4.1108,4.1108,4.1108,4.0957,3.9451,3.8488,3.799,3.826,3.8826,3.9413,3.9067,3.9215,3.9491,3.8787,3.8855,3.9237,3.9223,3.8924,3.87,3.9282,3.9208,3.895,3.8979,3.9256,3.9527,3.9256,3.9064,3.8833,3.8572,3.8368,3.8241,3.8225,3.8437,3.864,3.8585,3.8826,3.8942,3.864,3.8346,3.7982,3.7614,3.7129,3.6829,3.6725,3.6585,3.6444,3.6301,3.5898,3.5854,3.6259,3.6301,3.5661,3.4184,3.4415,3.407,3.2897,3.2703,3.2523,3.2398,3.2398,3.2398,3.2398,3.2398,3.2398,3.8185,3.9624,4.0899,3.9658,3.6729,0.0,0.0,2.4735,1.8117,0.0,0.0,0.0,0.0,0.0,0.0,0.0,0.0,0.0,0.0,0.0,0.0,0.0,0.0,0.0,0.0,0.0,0.0,0.0,0.0,0.0,-2.4449,-2.0923,-1.9568,-2.1049,-2.3484,-2.4639,-2.4332,-2.8257,-2.808,-2.3811,-2.3705,-2.1268,-1.6185,0.3333,1.2179,1.3258,3.2717,4.1123,4.1101,4.1094,4.1108,4.0935,3.934,3.7924,3.682,3.6624,3.7159,3.7862,3.7358,3.7881,3.8682,3.8382,3.8646,3.8989,3.8836,3.8658,3.8554,3.8818,3.8778,3.8755,3.9221,3.9248,3.9138,3.9036,3.8743,3.8419,3.8322,3.8241,3.8192,3.8192,3.8256,3.8318,3.83,3.8378,3.836,3.798,3.7826,3.7596,3.7261,3.693,3.6725,3.6702,3.6502,3.6259,3.5898,3.5985,3.5985,3.5881,3.5854,3.5481,3.4545,3.4673,3.4136,3.2897,3.2843,3.2648,3.2398,3.2398,3.2398,3.2398,3.2398,3.2398,3.7947,3.9143,4.0292,0.0,0.0,0.0,2.0287,1.6306,1.1237,0.0,0.0,0.0,0.0,0.0,0.0,0.0,0.0,0.0,0.0,0.0,0.0,0.0,0.0,0.0,0.0,0.0,0.0,0.0,0.0,0.0,0.0,-2.0554,-1.8964,-2.0273,-2.1934,-2.2902,-2.3004,-2.6209,-2.8244,-2.9057,-2.7992,-2.8479,-2.9597,-0.9377,0.1908,0.6635,2.6805,3.6844,3.8965,3.8974,3.8397,3.747,3.7343,3.6419,3.5186,3.4987,3.5666,3.6543,3.5976,3.6788,3.8065,3.7666,3.8077,3.8634,3.8382,3.835,3.8433,3.8572,3.8572,3.8646,3.9309,3.9175,3.8862,3.8803,3.8528,3.8274,3.8207,3.8241,3.8289,3.8289,3.8271,3.8234,3.8234,3.8168,3.7948,3.7578,3.7505,3.7376,3.7048,3.6806,3.6661,3.6602,3.6402,3.6156,3.5854,3.5941,3.5941,3.5854,3.5481,3.5191,3.5068,3.4864,3.4235,3.3118,3.3081,3.285,3.2398,3.2398,3.2398,3.2398,3.2398,3.2398,3.791,3.8414,0.0,0.0,0.0,0.0,0.0,0.2184,-0.3903,0.0,0.0,0.0,0.0,0.0,0.0,0.0,0.0,0.0,0.0,0.0,0.0,0.0,0.0,0.0,0.0,0.0,0.0,0.0,0.0,0.0,0.0,-2.0566,-1.9612,-2.0283,-2.0311,-2.1169,-2.2962,-2.2573,-2.3533,-2.5733,-2.2797,-2.4504,-2.9844,-1.7825,-0.5865,0.6049,1.8189,2.7567,3.4242,3.4337,3.2475,2.9917,3.297,3.366,3.2924,3.3232,3.4457,3.5745,3.502,3.6151,3.7684,3.6571,3.7106,3.8168,3.7951,3.8056,3.8274,3.8762,3.8695,3.8585,3.9055,3.9064,3.8833,3.8572,3.851,3.8446,3.8241,3.8336,3.851,3.851,3.851,3.851,3.851,3.8267,3.7948,3.7542,3.7505,3.7376,3.7048,3.6806,3.6602,3.6343,3.6301,3.6301,3.6301,3.5722,3.5633,3.6259,3.5237,3.4911,3.5571,3.4958,3.4268,3.3582,3.3475,3.3071,3.2398,3.2398,3.2398,3.2398,3.2398,3.2398,3.6021,0.0,0.0,0.0,0.0,0.0,0.0,0.0,0.0,0.0,0.0,0.0,0.0,0.0,0.0,0.0,0.0,0.0,0.0,0.0,0.0,0.0,0.0,0.0,0.0,0.0,0.0,0.0,0.0,0.0,0.0,-2.1441,-2.0585,-1.9612,-2.0603,-2.1129,-2.1049,-2.1884,-2.2764,-2.3604,-2.272,-2.3868,-2.6377,-1.4313,-0.6993,-0.2955,1.215,2.1054,2.5159,2.8295,2.9613,2.9704,3.0618,3.1363,3.1921,3.2003,3.2786,3.3758,3.354,3.4393,3.5634,3.5916,3.6371,3.6917,3.765,3.7721,3.7703,3.8634,3.8378,3.7998,3.8766,3.8683,3.8419,3.8478,3.8401,3.8274,3.8225,3.8336,3.8415,3.8138,3.8303,3.8332,3.7739,3.7685,3.7559,3.7206,3.7147,3.7048,3.6806,3.6742,3.6602,3.6343,3.6301,3.6174,3.5854,3.5915,3.5722,3.5157,3.5052,3.5021,3.5021,3.4366,3.3748,3.3118,3.2942,3.2672,3.2398,3.2398,3.2398,3.2398,3.2398,3.2398,3.6649,0.0,0.0,0.0,0.0,0.0,0.0,0.0,0.0,0.0,0.0,0.0,0.0,0.0,0.0,0.0,0.0,0.0,0.0,0.0,0.0,0.0,0.0,0.0,0.0,0.0,0.0,0.0,0.0,0.0,0.0,-2.1983,-2.1221,-1.9825,-2.0347,-2.0665,-2.0717,-2.0105,-2.0329,-2.131,-1.9822,-2.0134,-2.1761,-1.5779,-1.1071,-0.6888,0.7643,1.5578,1.8507,2.2359,2.5097,2.7017,2.8211,2.9837,3.1524,3.1936,3.2431,3.2924,3.2924,3.3808,3.5036,3.5217,3.5908,3.6733,3.7319,3.7319,3.7358,3.8212,3.798,3.7667,3.8523,3.8483,3.8241,3.8336,3.8307,3.8192,3.8192,3.8336,3.8446,3.8171,3.8219,3.8117,3.7613,3.7394,3.7243,3.7009,3.693,3.6869,3.6742,3.6643,3.6461,3.6071,3.6216,3.6114,3.5616,3.5915,3.5783,3.4971,3.5068,3.5038,3.4752,3.4251,3.3866,3.3507,3.3087,3.2711,3.2398,3.2398,3.2398,3.2398,3.2398,3.2398,3.8564,0.0,0.0,0.0,0.0,0.0,0.0,0.0,0.0,0.0,0.0,0.0,0.0,0.0,0.0,0.0,0.0,0.0,0.0,0.0,0.0,0.0,0.0,0.0,0.0,0.0,0.0,0.0,0.0,0.0,0.0,-2.2435,-2.1583,-2.0653,-1.9825,-1.9979,-2.1218,-1.783,-1.7072,-1.8869,-1.5536,-1.4871,-1.6755,-1.9904,-1.6378,-0.7208,0.4038,1.0627,1.3715,1.6756,1.9876,2.3103,2.5728,2.8699,3.1509,3.236,3.271,3.271,3.271,3.3858,3.5206,3.4444,3.5447,3.6974,3.6759,3.6821,3.7058,3.756,3.756,3.7596,3.8314,3.8354,3.8192,3.8192,3.8192,3.8192,3.8192,3.8336,3.846,3.8428,3.8132,3.7859,3.7843,3.7376,3.6987,3.6987,3.6908,3.6788,3.6702,3.6544,3.6216,3.5722,3.6028,3.6071,3.5705,3.5827,3.5766,3.5328,3.5148,3.4913,3.4592,3.435,3.4251,3.4333,3.3531,3.2895,3.2398,3.2398,3.2398,3.2398,3.2398,3.2398,0.0,3.8228,0.0,0.0,0.0,0.0,0.0,0.0,0.0,0.0,0.0,0.0,0.0,0.0,0.0,0.0,0.0,0.0,0.0,0.0,0.0,0.0,0.0,0.0,0.0,0.0,0.0,0.0,0.0,0.0,-2.3891,-2.3672,-2.2936,-2.1593,-2.0478,-1.9669,-1.9252,-1.7726,-1.6938,-1.6756,-1.6093,-1.553,-1.5043,-1.7252,-1.5081,-0.9155,-0.097,0.503,0.919,1.3346,1.8092,2.2891,2.3525,2.6582,3.0763,3.0955,3.1013,3.1013,3.1013,3.2133,3.3451,3.326,3.3973,3.5023,3.5535,3.5542,3.5674,3.7253,3.7306,3.7117,3.8216,3.8354,3.8192,3.8192,3.8192,3.8192,3.8192,3.8336,3.8364,3.788,3.7844,3.7738,3.7281,3.7087,3.6987,3.6987,3.6908,3.6788,3.6702,3.6199,3.595,3.6114,3.5898,3.5854,3.6131,3.5661,3.5174,3.464,3.4769,3.4673,3.4284,3.3818,3.363,3.3786,3.2986,3.2492,3.2398,3.2398,3.2398,3.2398,3.2398,3.2398,0.0,0.0,0.0,0.0,0.0,0.0,0.0,0.0,0.0,0.0,0.0,0.0,0.0,0.0,0.0,0.0,0.0,0.0,0.0,0.0,0.0,0.0,0.0,0.0,0.0,0.0,0.0,0.0,0.0,-2.4636,-2.4636,-2.4337,-2.3745,-2.2947,-2.1628,-2.0643,-1.9972,-1.87,-1.7908,-1.7504,-1.6714,-1.5891,-1.497,-1.6613,-1.5393,-1.1642,-0.6788,-0.1328,0.4511,0.9043,1.4721,2.0808,2.2248,2.5093,2.8636,3.0499,3.0867,3.0555,3.1013,3.2237,3.3502,3.3066,3.4006,3.5318,3.5073,3.5078,3.5431,3.6636,3.6829,3.6925,3.7966,3.8207,3.8192,3.8192,3.8192,3.8192,3.809,3.8122,3.8104,3.7685,3.7595,3.7504,3.7203,3.7066,3.6987,3.6987,3.6869,3.6725,3.6702,3.6301,3.5968,3.5985,3.5941,3.5941,3.5854,3.5464,3.5035,3.4704,3.4769,3.4609,3.4235,3.3869,3.3767,3.3887,3.2895,3.2398,3.2398,3.2398,3.2398,3.2398,3.2398,3.2398,0.0,0.0,0.0,0.0,0.0,0.0,0.0,0.0,0.0,0.0,0.0,0.0,0.0,0.0,0.0,0.0,0.0,0.0,0.0,0.0,0.0,0.0,0.0,0.0,0.0,0.0,0.0,0.0,0.0,-2.5312,-2.5312,-2.4636,-2.4264,-2.4108,-2.2861,-2.1983,-2.1461,-2.0129,-1.9353,-1.8957,-1.7359,-1.6304,-1.5876,-1.6798,-1.599,-1.3574,-1.093,-0.6188,-0.0085,0.5199,1.1297,1.7579,2.124,2.4037,2.6462,2.9999,3.091,3.0435,3.1228,3.2623,3.3874,3.2961,3.417,3.5803,3.4719,3.48,3.5453,3.602,3.6405,3.6865,3.7649,3.8003,3.8192,3.8158,3.8158,3.8106,3.7952,3.7899,3.7828,3.7594,3.7372,3.7259,3.7259,3.7105,3.6987,3.6987,3.6806,3.6643,3.6544,3.6301,3.6028,3.5616,3.5941,3.5985,3.5453,3.5299,3.5081,3.4864,3.4816,3.4609,3.4186,3.407,3.402,3.4037,3.2949,3.2398,3.2398,3.2398,3.2398,3.2398,3.2398,3.2398,0.0,0.0,0.0,0.0,0.0,0.0,0.0,0.0,0.0,0.0,0.0,0.0,0.0,0.0,0.0,0.0,0.0,0.0,0.0,0.0,0.0,0.0,0.0,0.0,0.0,0.0,0.0,0.0,-2.5312,-2.5312,-2.5312,-2.5229,-2.4791,-2.412,-2.3891,-2.3084,-2.1538,-2.1451,-2.0595,-1.8966,-1.7836,-1.7432,-1.7585,-1.6667,-1.5433,-1.3672,-0.8737,-0.6051,-0.4442,0.3912,0.9456,1.3199,1.9471,2.3296,2.5648,2.8034,2.9254,2.9628,2.9785,3.1258,3.2924,3.1977,3.2779,3.3972,3.3531,3.3834,3.4561,3.583,3.6364,3.6689,3.7449,3.7916,3.8158,3.7969,3.7934,3.7934,3.7917,3.7899,3.7793,3.741,3.7182,3.7027,3.7027,3.7027,3.6948,3.6851,3.6766,3.6502,3.5907,3.5732,3.5661,3.5633,3.5661,3.5616,3.5436,3.5283,3.4925,3.4333,3.4609,3.4577,3.407,3.4036,3.3767,3.3339,3.2749,3.2398,3.2398,3.2398,3.2398,3.2398,3.2398,3.2398,0.0,0.0,0.0,0.0,0.0,0.0,0.0,0.0,0.0,0.0,0.0,0.0,0.0,0.0,0.0,0.0,0.0,0.0,0.0,0.0,0.0,0.0,0.0,0.0,0.0,0.0,0.0,0.0,-2.3745,-2.3986,-2.3986,-2.3588,-2.3503,-2.4108,-2.3209,-2.2382,-2.1649,-2.1745,-2.0914,-1.9134,-1.9054,-1.8647,-1.7997,-1.7261,-1.6198,-1.4622,-1.1725,-0.8793,-0.548,0.1018,0.5895,0.9984,1.7098,2.1025,2.305,2.571,2.7878,2.9504,2.9504,3.0983,3.2725,3.1838,3.247,3.362,3.3271,3.3646,3.4366,3.5671,3.6172,3.6504,3.7223,3.7667,3.7846,3.7739,3.7739,3.7703,3.7594,3.7558,3.7484,3.7182,3.7066,3.6987,3.6987,3.6987,3.693,3.6829,3.6725,3.6561,3.6199,3.6071,3.5985,3.5985,3.5985,3.5941,3.5871,3.5526,3.5237,3.5115,3.4958,3.4625,3.4036,3.3986,3.363,3.2803,3.2547,3.2398,3.2398,3.2398,3.2398,3.2398,3.2398,3.2398,0.0,0.0,0.0,0.0,0.0,0.0,0.0,0.0,0.0,0.0,0.0,0.0,0.0,0.0,0.0,0.0,0.0,0.0,0.0,0.0,0.0,0.0,0.0,0.0,0.0,0.0,0.0,0.0,-2.2638,-2.3032,-2.3032,-2.2392,-2.2456,-2.343,-2.2296,-2.1532,-2.1064,-2.0874,-2.0285,-1.9143,-1.9539,-1.9045,-1.7836,-1.7585,-1.6601,-1.497,-1.4294,-1.1398,-0.6636,-0.1446,0.2632,0.646,1.4889,1.9207,2.1159,2.3943,2.6906,2.9504,2.9504,3.0837,3.2431,3.1739,3.2336,3.3344,3.3235,3.3646,3.4366,3.5537,3.6062,3.6357,3.7048,3.741,3.7594,3.7558,3.7503,3.7484,3.7334,3.7259,3.7182,3.7027,3.6987,3.6987,3.6987,3.6987,3.6908,3.6788,3.6684,3.6561,3.6318,3.6301,3.6259,3.6114,3.6216,3.6216,3.5975,3.5722,3.5543,3.5577,3.5178,3.4673,3.4036,3.3869,3.3371,3.2453,3.2398,3.2398,3.2398,3.2398,3.2398,3.2398,3.2398,3.2398,0.0,0.0,0.0,0.0,0.0,0.0,0.0,0.0,0.0,0.0,0.0,0.0,0.0,0.0,0.0,0.0,0.0,0.0,0.0,0.0,0.0,0.0,0.0,0.0,0.0,0.0,0.0,0.0,-2.2947,-2.3032,-2.3032,-2.2947,-2.2553,-2.1845,-2.1759,-2.0911,-1.9349,-1.8603,-1.8399,-1.8745,-1.8327,-1.7827,-1.7334,-1.6935,-1.5786,-1.4041,-1.4041,-1.2462,-0.9465,-0.2218,0.0678,0.1773,1.3082,1.8834,2.1094,2.3379,2.6464,2.9504,2.9504,3.0389,3.1582,3.1539,3.1966,3.2532,3.3039,3.3646,3.4366,3.5537,3.6062,3.6316,3.6873,3.7334,3.754,3.7372,3.7297,3.7297,3.7297,3.7143,3.7009,3.6987,3.6987,3.6987,3.6987,3.6891,3.6788,3.6742,3.6602,3.6318,3.5722,3.6028,3.6114,3.5661,3.6028,3.6028,3.5311,3.5677,3.5633,3.488,3.4833,3.4577,3.4036,3.3511,3.3002,3.2382,3.2398,3.2398,3.2398,3.2398,3.2398,3.2398,3.2398,3.2398,0.0,0.0,0.0,0.0,0.0,0.0,0.0,0.0,0.0,0.0,0.0,0.0,0.0,0.0,0.0,0.0,0.0,0.0,0.0,0.0,0.0,0.0,0.0,0.0,0.0,0.0,0.0,0.0,0.0,-2.1461,-2.1461,-2.0914,-2.074,-2.0941,-2.0372,-1.9818,-1.9201,-1.8132,-1.8006,-1.8736,-1.8886,-1.839,-1.7342,-1.7342,-1.5471,-1.2184,-1.2547,-1.1792,-0.9957,-0.2855,0.0775,0.265,0.9892,1.61,2.0868,2.1702,2.4927,2.8903,2.9317,3.0072,3.0896,3.1351,3.191,3.2453,3.2641,3.3335,3.4234,3.4878,3.5357,3.5837,3.6527,3.6771,3.693,3.7066,3.7105,3.7105,3.7105,3.7066,3.6987,3.6987,3.6987,3.6987,3.6987,3.6908,3.6788,3.6702,3.6602,3.6402,3.6071,3.6216,3.6259,3.6071,3.6216,3.6174,3.5871,3.6019,3.5932,3.547,3.5131,3.4625,3.4036,3.3495,3.2949,3.2382,3.2398,3.2398,3.2398,3.2398,3.2398,3.2398,3.2398,3.2342,0.0,0.0,0.0,0.0,0.0,0.0,0.0,0.0,0.0,0.0,0.0,0.0,0.0,0.0,0.0,0.0,0.0,0.0,0.0,0.0,0.0,0.0,0.0,0.0,0.0,0.0,0.0,0.0,0.0,0.0,-2.0167,-1.9618,-1.9529,-2.0051,-1.8991,-1.8337,-1.8337,-1.7738,-1.7602,-1.8014,-1.8576,-1.8078,-1.669,-1.6854,-1.5058,-1.1679,-1.1428,-1.0747,-0.9269,-0.3143,0.0694,0.3181,0.8263,1.4533,2.0793,2.0793,2.4048,2.8532,2.903,2.9766,3.0584,3.1029,3.161,3.212,3.2342,3.2926,3.3697,3.4399,3.4847,3.5345,3.6259,3.6568,3.6708,3.6829,3.6829,3.6829,3.6829,3.6908,3.6987,3.6987,3.6987,3.6987,3.6948,3.6829,3.6725,3.6643,3.6502,3.6402,3.6301,3.6301,3.6301,3.6301,3.6301,3.6259,3.6122,3.6122,3.6036,3.5773,3.5068,3.448,3.4036,3.3303,3.2734,3.2398,3.2398,3.2398,3.2398,3.2398,3.2398,3.2398,3.2398,3.2342,0.0,0.0,0.0,0.0,0.0,0.0,0.0,0.0,0.0,0.0,0.0,0.0,0.0,0.0,0.0,0.0,0.0,0.0,0.0,0.0,0.0,0.0,0.0,0.0,0.0,0.0,0.0,0.0,-1.9222,-1.9222,-1.9222,-1.9222,-1.9222,-1.9222,-1.7513,-1.6617,-1.6617,-1.7107,-1.7204,-1.6738,-1.7229,-1.673,-1.5394,-1.5304,-1.4384,-1.2613,-1.0833,-0.9347,-0.7774,-0.3149,0.026,0.3001,0.8084,1.4444,2.0793,2.0793,2.4048,2.8481,2.8481,2.9345,3.0464,3.0524,3.097,3.164,3.2176,3.2398,3.2749,3.4137,3.4576,3.4878,3.6156,3.6748,3.6908,3.6568,3.6502,3.6502,3.6502,3.6748,3.697,3.6987,3.6987,3.6948,3.6811,3.6725,3.6643,3.6502,3.6402,3.6301,3.6301,3.6301,3.6301,3.6301,3.6301,3.6216,3.6019,3.6019,3.5888,3.5622,3.4577,3.3986,3.3986,3.2964,3.2398,3.2398,3.2398,3.2398,3.2398,3.2398,3.2398,3.2398,3.2398,3.2302,2.8717,0.0,0.0,0.0,0.0,0.0,0.0,0.0,0.0,0.0,0.0,0.0,0.0,0.0,0.0,0.0,0.0,0.0,0.0,0.0,0.0,0.0,0.0,0.0,0.0,0.0,0.0,0.0,-1.7658,-1.7827,-1.8318,-1.7334,-1.6683,-1.6683,-1.5951,-1.5545,-1.5545,-1.6796,-1.7302,-1.7229,-1.7635,-1.6968,-1.5394,-1.3961,-1.3134,-1.2528,-0.8661,-0.7264,-0.7701,-0.4768,-0.035,0.4877,0.665,1.2864,2.0793,2.0793,2.3727,2.7842,2.8352,2.903,2.9889,3.0329,3.1233,3.212,3.1853,3.2312,3.3039,3.3479,3.3919,3.4448,3.5453,3.6174,3.6527,3.6139,3.6054,3.6054,3.6054,3.6139,3.635,3.6891,3.6987,3.6948,3.6811,3.6725,3.6643,3.6502,3.6402,3.6301,3.6301,3.6301,3.6301,3.6301,3.6301,3.6276,3.6165,3.6079,3.5932,3.5773,3.4625,3.3986,3.3986,3.2964,3.2398,3.2398,3.2398,3.2398,3.2398,3.2398,3.2398,3.2398,3.2191,3.2038,0.0,0.0,0.0,0.0,0.0,0.0,0.7561,0.5953,0.0,0.0,0.0,0.0,0.0,0.0,0.0,0.0,0.0,0.0,0.0,0.0,0.0,0.0,0.0,0.0,0.0,-1.5011,-1.5516,-1.5996,-1.6003,-1.6413,-1.7253,-1.6183,-1.5944,-1.6601,-1.5703,-1.5213,-1.5213,-1.6624,-1.6968,-1.6312,-1.7465,-1.6878,-1.4796,-1.3445,-1.2523,-1.1655,-0.796,-0.6295,-0.6025,-0.3612,0.0613,0.5695,0.6496,1.2306,2.0311,2.0311,2.3195,2.7108,2.7484,2.8441,2.9566,2.995,3.0984,3.1966,3.1582,3.1951,3.2571,3.3093,3.3885,3.4706,3.5005,3.5644,3.6156,3.5793,3.5705,3.5644,3.5554,3.5509,3.5776,3.655,3.6731,3.669,3.6667,3.6626,3.6544,3.6444,3.6343,3.6301,3.6301,3.6301,3.6301,3.6301,3.6301,3.6276,3.6122,3.6019,3.5932,3.5728,3.4625,3.3986,3.3986,3.2964,3.2398,3.2398,3.2398,3.2398,3.2342,3.2398,3.2398,3.2287,3.2038,3.1898,0.0,0.0,0.0,0.0,0.0,0.0,1.0701,0.8702,0.6699,0.0,0.0,0.0,0.0,0.0,0.0,0.0,0.0,0.0,0.0,0.0,0.0,0.0,0.0,0.0,-1.4085,-1.433,-1.442,-1.4504,-1.4594,-1.5011,-1.5928,-1.544,-1.5854,-1.7415,-1.6018,-1.5191,-1.5191,-1.6437,-1.6281,-1.4817,-1.6796,-1.637,-1.3776,-1.3109,-1.1923,-1.0255,-0.7861,-0.5753,-0.3639,-0.0788,0.253,0.5961,0.7205,1.264,1.9686,1.9686,2.2496,2.6346,2.6346,2.771,2.9504,2.9504,3.0389,3.1482,3.1482,3.1539,3.1853,3.2879,3.4202,3.5207,3.4704,3.5203,3.5776,3.5407,3.5333,3.5224,3.4991,3.4975,3.5207,3.6028,3.6199,3.6301,3.6402,3.6444,3.6444,3.6259,3.6259,3.6301,3.6301,3.6301,3.6301,3.6301,3.6301,3.6233,3.6019,3.5975,3.5888,3.5622,3.4577,3.3986,3.3986,3.2964,3.2398,3.2398,3.2398,3.2342,3.2191,3.2287,3.2302,3.215,3.1883,3.1799,0.0,0.0,0.0,0.0,0.0,0.0,1.1918,0.9602,0.7508,0.0,0.0,0.0,0.0,0.0,0.0,0.0,0.0,0.0,0.0,0.0,0.0,0.0,0.0,0.0,-1.1305,-1.1901,-1.2583,-1.3288,-1.3893,-1.4062,-1.362,-1.3542,-1.3626,-1.3951,-1.4035,-1.4035,-1.4035,-1.5213,-1.5636,-1.5228,-1.5726,-1.4601,-1.2298,-1.0686,-0.9579,-0.8674,-0.4889,-0.3474,-0.3551,0.0795,0.4318,0.7212,0.8949,1.3761,1.9686,1.954,2.2274,2.6195,2.6195,2.7577,2.9345,2.9442,3.0389,3.1482,3.1482,3.1853,3.2382,3.3039,3.3937,3.4657,3.4317,3.4833,3.5407,3.5071,3.4835,3.4675,3.4594,3.4787,3.5024,3.5362,3.5749,3.595,3.5847,3.6199,3.6318,3.581,3.6071,3.6301,3.6301,3.6301,3.6301,3.6301,3.6233,3.6208,3.6165,3.5949,3.5817,3.5773,3.4673,3.3986,3.3986,3.2964,3.2398,3.2398,3.2287,3.2247,3.2191,3.215,3.1996,3.1898,3.1841,3.1727,0.0,0.0,0.0,2.1458,0.0,0.0,0.0,1.1187,0.952,0.0,0.0,0.0,0.0,0.0,0.0,0.0,0.0,0.0,0.0,0.0,0.0,0.0,0.0,0.0,-0.8586,-0.9287,-1.0341,-1.1666,-1.2705,-1.3307,-1.3372,-1.3039,-1.3039,-1.3464,-1.3288,-1.3203,-1.3203,-1.421,-1.4468,-1.4048,-1.5047,-1.4008,-1.1193,-0.9919,-0.8628,-0.7193,-0.3212,-0.1878,-0.2136,0.3183,0.6183,0.7759,0.9675,1.3848,1.8795,1.8725,2.1559,2.5417,2.5545,2.7139,2.9156,2.9345,3.0237,3.1307,3.1351,3.1853,3.2382,3.2367,3.3303,3.4235,3.3799,3.4399,3.5071,3.4787,3.4594,3.4448,3.4151,3.4201,3.4399,3.4626,3.4833,3.5128,3.5599,3.5881,3.5941,3.5677,3.5985,3.6301,3.6301,3.6301,3.6301,3.6233,3.6208,3.614,3.5993,3.5861,3.5667,3.5316,3.448,3.3869,3.3614,3.2857,3.2398,3.2398,3.2191,3.2094,3.2094,3.1868,3.1769,3.1799,3.1727,3.1597,0.0,0.0,0.0,0.0,0.0,1.679,0.0,0.0,0.0,0.0,0.0,0.0,0.0,0.0,0.0,0.0,0.0,0.0,0.0,0.0,0.0,0.0,0.0,0.0,-0.6022,-0.7179,-0.8511,-1.0193,-1.1494,-1.2528,-1.3197,-1.2869,-1.3039,-1.3704,-1.3039,-1.2613,-1.2448,-1.3288,-1.3288,-1.2443,-1.4287,-1.3412,-1.0168,-0.9497,-0.8028,-0.5797,-0.2236,-0.0896,-0.0625,0.5036,0.7508,0.7948,1.0555,1.4171,1.7903,1.8223,2.1004,2.4636,2.4826,2.6642,2.9016,2.9156,3.0115,3.119,3.1394,3.1838,3.212,3.1739,3.2641,3.3594,3.3198,3.3885,3.4578,3.4448,3.4399,3.425,3.3797,3.3745,3.3848,3.405,3.4101,3.4382,3.5161,3.5481,3.5571,3.5481,3.5924,3.6259,3.6174,3.6216,3.6233,3.6079,3.6079,3.6053,3.5817,3.5667,3.5379,3.4816,3.4219,3.3665,3.3251,3.2695,3.2398,3.2342,3.2135,3.1996,3.194,3.1655,3.1597,3.1727,3.1597,3.1482,0.0,0.0,0.0,0.0,1.9068,0.0,0.0,0.0,0.0,1.1273,0.0,0.9291,0.8519,0.0,0.0,0.0,0.0,0.0,0.0,0.0,0.0,0.0,0.0,0.0,0.0,-0.6367,-0.8225,-0.9296,-1.0616,-1.1494,-1.158,-1.2272,-1.279,-1.2869,-1.279,-1.2272,-1.1494,-1.2357,-1.2357,-1.1494,-1.2784,-1.1724,-0.8765,-0.84,-0.6919,-0.4385,-0.1792,-0.0896,-0.0715,0.4863,0.725,0.7948,1.3084,1.6285,1.8063,1.9201,2.1662,2.4409,2.448,2.6395,2.8853,2.9016,3.0086,3.1394,3.1864,3.1838,3.1682,3.1936,3.2185,3.2407,3.2734,3.3198,3.3665,3.4034,3.3949,3.3745,3.3694,3.3899,3.405,3.4101,3.4101,3.4151,3.4234,3.5021,3.5436,3.4958,3.5688,3.6156,3.5705,3.5975,3.6036,3.556,3.5711,3.5817,3.5817,3.527,3.488,3.4816,3.3853,3.3235,3.3182,3.2695,3.2342,3.2247,3.2094,3.194,3.1841,3.1597,3.1539,3.1539,3.1539,3.1482,0.0,0.0,0.0,0.0,0.0,0.0,1.5011,0.0,1.2936,0.0,0.0,0.0,0.0,0.0,0.0,0.0,1.0024,0.0,0.0,0.0,0.0,0.0,0.0,0.0,0.0,0.0,0.0,0.0,-0.8043,-0.91,-1.0274,-1.0529,-1.1133,-1.21,-1.178,-1.1607,-1.1499,-1.1037,-1.0859,-1.089,-1.1144,-0.9908,-0.7457,-0.7092,-0.5513,-0.2955,-0.1433,-0.0628,-0.0089,0.5044,0.7162,0.7767,1.3587,1.6234,1.6879,1.7857,2.0497,2.3565,2.3627,2.5852,2.8762,2.9656,3.0176,3.0539,3.1131,3.1336,3.1307,3.1452,3.1751,3.2003,3.2226,3.2633,3.3061,3.3371,3.3387,3.3351,3.3435,3.3555,3.3658,3.3658,3.3658,3.3658,3.3658,3.4448,3.5068,3.4816,3.5419,3.5793,3.5633,3.5694,3.5605,3.5316,3.5577,3.5622,3.527,3.4975,3.4512,3.3903,3.3145,3.2749,3.2749,3.2437,3.2247,3.2191,3.1996,3.1841,3.1799,3.1597,3.1482,3.1482,3.1482,3.1482,3.0015,0.0,0.0,0.0,0.0,0.0,0.0,0.0,0.0,0.0,0.0,0.0,0.0,0.0,1.093,0.0,0.0,1.1621,0.0,0.0,0.0,0.0,0.0,0.0,0.0,0.0,0.0,0.0,0.0,-0.7078,-0.8786,-0.8952,-0.9648,-1.1063,-1.0829,-1.0743,-1.0977,-1.0072,-0.9812,-1.0197,-1.0014,-0.8869,-0.6939,-0.6307,-0.4537,-0.1878,-0.0806,0.0268,0.1516,0.5753,0.7599,0.8376,1.3607,1.5606,1.5846,1.7607,2.0256,2.2955,2.3531,2.5714,2.8505,3.0115,3.0251,2.9931,3.0568,3.0955,3.1087,3.1014,3.1321,3.1622,3.1736,3.2043,3.2376,3.261,3.2788,3.2911,3.3065,3.3187,3.3309,3.3309,3.3309,3.3309,3.3309,3.4018,3.4593,3.4593,3.5005,3.5283,3.5144,3.5207,3.5224,3.4991,3.5424,3.547,3.4864,3.4673,3.4119,3.3039,3.2602,3.2398,3.2342,3.2247,3.215,3.2094,3.1898,3.1784,3.1727,3.1597,3.1482,3.1482,3.1482,3.1482,0.0,0.0,0.0,2.1182,0.0,0.0,0.0,0.0,1.4088,0.0,0.0,0.0,0.0,1.3392,1.3562,0.0,0.0,0.0,0.0,0.0,0.0,0.0,0.0,0.0,0.0,0.0,0.0,0.0,-0.4535,0.0,-0.7119,-0.8074,-0.886,-0.9666,-0.9854,-0.968,-0.9318,-0.9648,-0.9648,-0.9235,-0.9662,-0.9048,-0.7471,-0.6483,-0.4351,-0.1336,0.0089,0.1956,0.4425,0.7257,0.9018,1.0129,1.3425,1.4734,1.5289,1.9877,2.2125,2.3103,2.4696,2.6252,2.7868,3.0054,3.0326,2.9931,3.0568,3.0955,3.1073,3.0895,3.0821,3.094,3.1364,3.1437,3.1437,3.1823,3.2256,3.2586,3.2602,3.3011,3.3309,3.3309,3.3309,3.3309,3.3309,3.3745,3.4151,3.4151,3.4431,3.4447,3.3919,3.4529,3.4849,3.4399,3.5102,3.5379,3.4833,3.4317,3.3578,3.2492,3.2398,3.2342,3.2191,3.2191,3.2094,3.1841,3.1784,3.1727,3.1539,3.1482,3.1482,3.1482,3.1482,3.1482,0.0,0.0,2.5807,1.9994,0.0,0.0,0.0,0.0,0.0,0.0,0.0,0.0,0.0,0.0,0.0,0.0,0.0,0.0,0.0,0.0,0.0,0.0,0.0,0.0,0.0,0.0,0.0,0.0,-0.232,0.0,-0.5808,-0.6065,-0.6766,-0.8173,-0.848,-0.8668,-0.8727,-0.8911,-0.8644,-0.7852,-0.7937,-0.7221,-0.5528,-0.3735,-0.1868,0.0089,0.1515,0.3291,0.5414,0.7618,0.9274,1.0818,1.36,1.4985,1.5718,1.8876,2.0584,2.1717,2.4897,2.6032,2.6445,2.9142,2.9219,2.8583,3.0176,3.0387,3.019,3.0568,3.0702,3.0687,3.0851,3.0866,3.0925,3.1394,3.1823,3.216,3.216,3.2492,3.2834,3.2834,3.2834,3.2958,3.324,3.345,3.3642,3.3866,3.3986,3.3953,3.37,3.4202,3.448,3.43,3.5102,3.5224,3.4333,3.3459,3.2803,3.2453,3.2398,3.2342,3.2191,3.2094,3.1996,3.1784,3.167,3.1597,3.1482,3.1482,3.1482,3.1482,3.1482,3.1482,2.5395,2.566,0.0,1.8953,1.8267,0.0,1.4859,0.0,0.0,0.0,0.0,0.0,0.0,0.0,0.0,0.0,0.0,0.0,0.0,1.1757,0.0,0.0,0.0,0.0,0.0,0.0,0.0,-0.0089,-0.0447,-0.1521,0.0,-0.3846,-0.4463,-0.6142,-0.6077,-0.6349,-0.7217,-0.659,-0.6239,-0.634,-0.6074,-0.5542,-0.4828,-0.2496,-0.0534,0.1069,0.2671,0.48,0.7274,0.8507,1.0149,1.2043,1.3951,1.5068,1.6049,1.9016,2.109,2.29,2.5448,2.6032,2.6126,2.8441,2.8441,2.7868,2.967,2.9931,2.9747,3.0387,3.0568,3.0568,3.0568,3.0568,3.0687,3.0984,3.1379,3.1724,3.1724,3.2048,3.2367,3.2367,3.2492,3.2656,3.2958,3.3134,3.3293,3.3523,3.3507,3.3439,3.3251,3.3799,3.4118,3.3917,3.4738,3.4864,3.3818,3.2895,3.2398,3.2398,3.2342,3.2247,3.215,3.1996,3.1721,3.1366,3.1462,3.1347,3.1165,3.1362,3.1482,3.1482,3.1482,3.1482]},{"header":{"parameterUnit":"m.s-1","parameterCategory":1,"la1":30.6,"la2":29.2853,"lo1":-89.7004,"lo2":-87.6739,"dy":0.0162,"dx":0.0183,"nx":112,"ny":82,"refTime":"2023-05-23T00:00:00:Z","depth":0,"parameterNumber":3,"parameterNumberName":"V-component_of_WINDS"},"data":[0.0,0.0,0.0,0.0,0.0,0.0,0.0,0.0,0.0,0.0,0.0,0.0,0.0,0.0,0.0,0.0,0.0,0.0,0.0,0.0,0.0,0.0,0.0,0.0,0.0,0.0,0.0,0.0,0.0,0.0,0.0,0.0,0.0,0.0,0.0,0.0,0.0,0.0,0.0,0.0,0.0,0.0,0.0,0.0,0.0,0.0,0.0,0.0,0.0,0.0,0.0,0.0,0.0,0.0,0.0,0.0,0.0,0.0,0.0,0.0,0.0,0.0,0.0,0.0,0.0,0.0,0.0,0.0,0.0,0.0,0.0,0.0,0.0,0.0,0.0,0.0,0.0,0.0,0.0,0.0,0.0,0.0,0.0,0.0,0.0,0.0,0.0,0.0,0.0,0.0,1.4212,1.3988,1.4305,1.4536,1.4536,1.5322,1.5836,1.5836,0.0,0.0,0.0,0.0,0.0,0.0,0.0,0.0,0.0,0.0,0.0,0.0,0.0,0.0,0.0,0.0,0.0,0.0,0.0,0.0,0.0,0.0,0.0,0.0,0.0,0.0,0.0,0.0,0.0,0.0,0.0,0.0,0.0,0.0,0.0,0.0,0.0,0.0,0.0,0.0,0.0,0.0,0.0,0.0,0.0,0.0,0.0,0.0,0.0,0.0,0.0,0.0,0.0,0.0,0.0,0.0,0.0,0.0,0.0,0.0,0.0,0.0,0.0,0.0,0.0,0.0,0.0,0.0,0.0,0.0,0.0,0.0,0.0,0.0,0.0,0.0,0.0,0.0,0.0,0.0,0.0,0.0,0.0,0.0,0.0,0.0,0.0,0.0,0.0,0.0,0.0,0.0,0.0,0.0,0.0,0.0,0.0,0.0,0.0,0.0,0.0,0.0,0.0,0.0,1.4582,1.5367,1.5513,1.5558,1.5558,1.5824,1.5957,1.5957,0.0,0.0,0.0,0.0,0.0,0.0,0.0,0.0,0.0,0.0,0.0,0.0,0.0,0.0,0.0,0.0,0.0,0.0,0.0,0.0,0.0,0.0,0.0,0.0,0.0,0.0,0.0,0.0,0.0,0.0,0.0,0.0,0.0,0.0,0.0,0.0,0.0,0.0,0.0,0.0,0.0,0.0,0.0,0.0,0.0,0.0,0.0,0.0,0.0,0.0,0.0,0.0,0.0,0.0,0.0,0.0,0.0,0.0,0.0,0.0,0.0,0.0,0.0,0.0,0.0,0.0,0.0,0.0,0.0,0.0,0.0,0.0,0.0,0.0,0.0,0.0,0.0,0.0,0.0,0.0,0.0,0.0,0.0,0.0,0.0,0.0,0.0,0.0,0.0,0.0,0.0,0.0,0.0,0.0,0.0,0.0,0.0,0.0,0.0,0.0,0.0,0.0,0.0,1.4025,1.4582,1.5334,1.5424,1.5424,1.5424,1.5691,1.5913,1.5988,1.5869,0.0,0.0,0.0,0.0,0.0,0.0,0.0,0.0,0.0,0.0,0.0,0.0,0.0,0.0,0.0,0.0,0.0,0.0,0.0,0.0,0.0,0.0,0.0,0.0,0.0,0.0,0.0,0.0,0.0,0.0,0.0,0.0,0.0,0.0,0.0,0.0,0.0,0.0,0.0,0.0,0.0,0.0,0.0,0.0,0.0,0.0,0.0,0.0,0.0,0.0,0.0,0.0,0.0,0.0,0.0,0.0,0.0,0.0,0.0,0.0,0.0,0.0,0.0,0.0,0.0,0.0,0.0,0.0,0.0,0.0,0.0,0.0,0.0,0.0,0.0,0.0,0.0,0.0,0.0,0.0,0.0,0.0,0.0,0.0,0.0,0.0,0.0,0.0,0.0,0.0,0.0,0.0,0.0,0.0,0.0,0.0,0.0,0.0,0.0,0.0,0.0,0.0,1.4686,1.4944,1.5626,1.5695,1.5695,1.5741,1.6107,1.6377,1.6467,1.6569,0.0,0.0,0.0,0.0,0.0,0.0,0.0,0.0,0.0,0.0,0.0,0.0,0.0,0.0,0.0,0.0,0.0,0.0,0.0,0.0,0.0,0.0,0.0,0.0,0.0,0.0,0.0,0.0,0.0,0.0,0.0,0.0,0.0,0.0,0.0,0.0,0.0,0.0,0.0,0.0,0.0,0.0,0.0,0.0,0.0,0.0,0.0,0.0,0.0,0.0,0.0,0.0,0.0,0.0,0.0,0.0,0.0,0.0,0.0,0.0,0.0,0.0,0.0,0.0,0.0,0.0,0.0,0.0,0.0,0.0,0.0,0.0,0.0,0.0,0.0,0.0,0.0,0.0,0.0,0.0,0.0,0.0,0.0,0.0,0.0,0.0,0.0,0.0,0.0,0.0,0.0,0.0,0.0,0.0,0.0,0.0,0.0,0.0,0.0,0.0,0.0,0.0,1.5744,1.6219,1.7327,1.7424,1.7484,1.7592,1.7735,1.7865,1.7865,1.7865,0.0,0.0,0.0,0.0,0.0,0.0,0.0,0.0,0.0,0.0,0.0,0.0,0.0,0.0,0.0,0.0,0.0,0.0,0.0,0.0,0.0,0.0,0.0,0.0,0.0,0.0,0.0,0.0,0.0,0.0,0.0,0.0,0.0,0.0,0.0,0.0,0.0,0.0,0.0,0.0,0.0,0.0,0.0,0.0,0.0,0.0,0.0,0.0,0.0,0.0,0.0,0.0,0.0,0.0,0.0,0.0,0.0,0.0,0.0,0.0,0.0,0.0,0.0,0.0,0.0,0.0,0.0,0.0,0.0,0.0,0.0,0.0,0.0,0.0,0.0,0.0,0.0,0.0,0.0,0.0,0.0,0.0,0.0,0.0,0.0,0.0,0.0,0.0,0.0,0.0,0.0,0.0,0.0,0.0,0.0,0.0,0.0,0.0,0.0,0.0,0.0,0.0,1.5931,1.6541,0.0,1.7339,1.7642,1.769,1.7798,1.7894,1.7989,0.0,0.0,0.0,0.0,0.0,0.0,0.0,0.0,0.0,0.0,0.0,0.0,0.0,0.0,0.0,0.0,0.0,0.0,0.0,0.0,0.0,0.0,0.0,0.0,0.0,0.0,0.0,0.0,0.0,0.0,0.0,0.0,0.0,0.0,0.0,0.0,0.0,0.0,0.0,0.0,0.0,0.0,0.0,0.0,0.0,0.0,0.0,0.0,0.0,0.0,0.0,0.0,0.0,0.0,0.0,0.0,0.0,0.0,0.0,0.0,0.0,0.0,0.0,0.0,0.0,0.0,0.0,0.0,0.0,0.0,0.0,0.0,0.0,0.0,0.0,0.0,0.0,0.0,0.0,0.0,0.0,0.0,0.0,0.0,0.0,0.0,0.0,0.0,0.0,0.0,0.0,0.0,0.0,0.0,0.0,0.0,0.0,0.0,0.0,0.0,0.0,0.0,1.5306,1.6265,1.6949,0.0,1.7742,1.8203,1.829,1.84,1.8449,1.8547,0.0,0.0,0.0,0.0,0.0,0.0,0.0,0.0,0.0,0.0,0.0,0.0,0.0,0.0,0.0,0.0,0.0,0.0,0.0,0.0,0.0,0.0,0.0,0.0,0.0,0.0,0.0,0.0,0.0,0.0,0.0,0.0,0.0,0.0,0.0,0.0,0.0,0.0,0.0,0.0,0.0,0.0,0.0,0.0,0.0,0.0,0.0,0.0,0.0,0.0,0.0,0.0,0.0,0.0,0.0,0.0,0.0,0.0,0.0,0.0,0.0,0.0,0.0,0.0,0.0,0.0,0.0,0.0,0.0,0.0,0.0,0.0,0.0,0.0,0.0,0.0,0.0,0.0,0.0,0.0,0.0,0.0,0.0,0.0,0.0,0.0,0.0,0.0,0.0,0.0,0.0,0.0,0.0,0.0,0.0,0.0,0.0,0.0,0.0,0.0,0.0,0.0,1.6198,1.6895,1.7594,1.8412,1.9028,1.9512,1.9747,1.9798,1.9798,0.0,0.0,0.0,0.0,0.0,0.0,0.0,0.0,0.0,0.0,0.0,0.0,0.0,0.0,0.0,0.0,0.0,0.0,0.0,0.0,0.0,0.0,0.0,0.0,0.0,0.0,0.0,0.0,0.0,0.0,0.0,0.0,0.0,0.0,0.0,0.0,0.0,0.0,0.0,0.0,0.0,0.0,0.0,0.0,0.0,0.0,0.0,0.0,0.0,0.0,0.0,0.0,0.0,0.0,0.0,0.0,0.0,0.0,0.0,0.0,0.0,0.0,0.0,0.0,0.0,0.0,0.0,0.0,0.0,0.0,0.0,0.0,0.0,0.0,0.0,0.0,0.0,0.0,0.0,0.0,0.0,0.0,0.0,0.0,0.0,0.0,0.0,0.0,0.0,0.0,0.0,0.0,0.0,0.0,0.0,0.0,0.0,0.0,0.0,0.0,0.0,0.0,0.0,1.5651,1.6581,1.7378,1.7688,1.8363,1.9016,1.9604,1.9759,1.9798,1.9798,0.0,0.0,0.0,0.0,0.0,0.0,0.0,0.0,0.0,0.0,0.0,0.0,0.0,0.0,0.0,0.0,0.0,0.0,0.0,0.0,0.0,0.0,0.0,0.0,0.0,0.0,0.0,0.0,0.0,0.0,0.0,0.0,0.0,0.0,0.0,0.0,0.0,0.0,0.0,0.0,0.0,0.0,0.0,0.0,0.0,0.0,0.0,0.0,0.0,0.0,0.0,0.0,0.0,0.0,0.0,0.0,0.0,0.0,0.0,0.0,0.0,0.0,0.0,0.0,0.0,0.0,0.0,0.0,0.0,0.0,0.0,0.0,0.0,0.0,0.0,0.0,0.0,0.0,0.0,0.0,0.0,0.0,0.0,0.0,0.0,0.0,0.0,0.0,0.0,0.0,0.0,0.0,0.0,0.0,0.0,0.0,0.0,0.0,0.0,0.0,0.0,0.0,1.5118,1.6073,1.6922,1.7157,1.7765,1.8471,1.9303,1.9448,1.9552,1.9798,0.0,0.0,0.0,0.0,0.0,0.0,0.0,0.0,0.0,0.0,0.0,0.0,0.0,0.0,0.0,0.0,0.0,0.0,0.0,0.0,0.0,0.0,0.0,0.0,0.0,0.0,0.0,0.0,0.0,0.0,0.0,0.0,0.0,0.0,0.0,0.0,0.0,0.0,0.0,0.0,0.0,0.0,0.0,0.0,0.0,0.0,0.0,0.0,0.0,0.0,0.0,0.0,0.0,0.0,0.0,0.0,0.0,0.0,0.0,0.0,0.0,0.0,0.0,0.0,0.0,0.0,0.0,0.0,0.0,0.0,0.0,0.0,0.0,0.0,0.0,0.0,0.0,0.0,0.0,0.0,0.0,0.0,0.0,0.0,0.0,0.0,0.0,0.0,0.0,0.0,0.0,0.0,0.0,0.0,0.0,0.0,0.0,0.0,0.0,0.0,0.0,0.0,1.4588,1.5565,1.6368,1.6765,1.7324,1.805,1.8934,1.904,1.9291,1.9747,0.0,0.0,0.0,0.0,0.0,0.0,0.0,0.0,0.0,0.0,0.0,0.0,0.0,0.0,0.0,0.0,0.0,0.0,0.0,0.0,0.0,0.0,0.0,0.0,0.0,0.0,0.0,0.0,0.0,0.0,0.0,0.0,0.0,0.0,0.0,0.0,0.0,0.0,0.0,0.0,0.0,0.0,0.0,0.0,0.0,0.0,0.0,0.0,0.0,0.0,0.0,0.0,0.0,0.0,0.0,0.0,0.0,0.0,0.0,0.0,0.4685,0.0,0.0,0.0,0.0,0.0,0.0,0.0,0.0,0.0,0.0,0.0,0.0,0.0,0.0,0.0,0.0,0.0,0.0,0.0,0.0,0.0,0.0,0.0,0.0,0.0,0.0,0.0,0.0,0.0,0.0,0.0,0.0,0.0,0.0,0.0,0.0,0.0,0.0,0.0,0.0,0.0,1.5177,1.5594,1.6056,1.6719,1.7424,1.8147,1.8934,1.9396,1.9708,1.9798,1.9798,0.0,0.0,0.0,0.0,0.0,0.0,0.0,0.0,0.0,0.0,0.0,0.0,0.0,0.0,0.0,0.0,0.0,0.0,0.0,0.0,0.0,0.0,0.0,0.0,0.0,0.0,0.0,0.0,0.0,0.0,0.0,0.0,0.0,0.0,0.0,0.0,0.0,0.0,0.0,0.0,0.0,0.0,0.0,0.0,0.0,0.0,0.0,0.0,0.0,0.0,0.0,0.0,0.0,0.0,0.0,0.0,0.0,0.0,0.0,0.0,0.4793,0.0,0.0,0.0,0.0,0.0,0.0,0.0,0.0,0.0,0.0,0.0,0.0,0.0,0.0,0.0,0.0,0.0,0.0,0.0,0.0,0.0,0.0,0.0,0.0,0.0,0.0,0.0,0.0,0.0,0.0,0.0,0.0,0.0,0.0,0.0,0.0,0.0,0.0,0.0,0.0,1.446,1.5186,1.5974,1.6632,1.7105,1.7877,1.9153,1.9328,1.9604,2.0213,1.9962,0.0,0.0,0.0,0.0,0.0,0.0,0.0,0.0,0.0,0.0,0.0,0.0,0.0,0.0,0.0,0.0,0.0,0.0,0.0,0.0,0.0,0.0,0.0,0.0,0.0,0.0,0.0,0.0,0.0,0.0,0.0,0.0,0.0,0.0,0.0,0.0,0.0,0.0,0.0,0.0,0.0,0.0,0.0,0.0,0.0,0.0,0.0,0.0,0.0,0.0,0.0,0.0,0.0,0.3933,0.3944,0.4025,0.3902,0.4097,0.4488,0.4303,0.4522,0.4968,0.509,0.0,0.0,0.0,0.0,0.0,0.0,0.0,0.0,0.0,0.0,0.0,0.0,0.0,0.0,0.0,0.0,0.0,0.0,0.0,0.0,0.0,0.0,0.0,0.0,0.9229,1.011,1.0186,0.0,0.0,0.0,0.0,0.0,0.0,0.0,0.0,0.0,0.0,0.0,1.4013,1.5169,1.6158,1.6628,1.691,1.7705,1.9279,1.9229,1.9566,2.0586,2.031,2.01,0.0,0.0,0.0,0.0,0.0,0.0,0.0,0.0,0.0,0.0,0.0,0.0,0.0,0.0,0.0,0.0,0.0,0.0,0.0,0.0,0.0,0.0,0.0,0.0,0.0,0.0,0.0,0.0,0.0,0.0,0.0,0.0,0.4426,0.3764,0.0,0.0,0.0,0.0,0.0,0.0,0.0,0.0,0.0,0.0,0.0,0.0,0.0,0.3811,0.3322,0.3814,0.4116,0.4235,0.4232,0.4479,0.4911,0.4402,0.4397,0.4698,0.4243,0.0,0.4415,0.4904,0.0,0.0,0.0,0.0,0.0,0.0,0.0,0.0,0.0,0.0,0.0,0.0,0.0,0.0,0.0,0.0,0.0,0.0,0.0,0.0,0.0,0.0,0.9273,0.8634,0.9494,1.0548,0.0,0.9799,0.9296,0.9576,0.9837,0.0,0.0,0.0,0.0,0.0,0.0,0.0,1.6103,1.6615,1.6884,1.7069,1.7728,1.8287,1.8715,1.9679,2.0351,2.0535,2.1027,2.1267,2.1267,2.0803,0.0,0.0,0.0,0.0,0.0,0.0,0.0,0.0,0.0,0.0,0.0,0.0,0.0,0.0,0.0,0.0,0.0,0.0,0.0,0.0,0.0,0.0,0.0,0.0,0.0,0.0,0.0,0.0,0.0,0.4366,0.4305,0.3195,0.295,0.3011,0.0,0.0,0.0,0.0,0.0,0.0,0.0,0.0,0.0,0.2521,0.3166,0.3618,0.3747,0.4455,0.4842,0.4903,0.4964,0.5125,0.5383,0.4925,0.4898,0.509,0.4558,0.4426,0.4577,0.4516,0.4516,0.4641,0.0,0.0,0.0,0.0,0.6189,0.6248,0.6624,0.6683,0.6741,0.7804,0.0,0.0,0.0,0.0,0.0,0.0,0.0,0.0,0.0,0.0,0.868,0.8748,0.922,0.9831,1.0311,1.0044,0.9795,0.0,1.066,1.1035,1.1511,0.0,0.0,0.0,0.0,1.482,1.5413,1.6392,1.7123,1.7564,1.7955,1.8554,1.9378,2.0023,2.0535,2.0936,2.1304,2.1493,2.1493,2.1255,2.1242,0.0,0.0,0.0,0.0,0.0,0.0,0.0,0.0,0.0,0.0,0.0,0.0,0.0,0.0,0.0,0.0,0.0,0.0,0.0,0.0,0.0,0.0,0.0,0.0,0.0,0.0,0.0,0.0,0.4094,0.3781,0.2518,0.2328,0.239,0.0,0.0,0.0,0.0,0.0,0.0,0.1141,0.1745,0.208,0.208,0.3015,0.3751,0.4287,0.5062,0.5487,0.5483,0.5652,0.5738,0.5801,0.5535,0.5467,0.5609,0.5064,0.4857,0.4916,0.4584,0.4553,0.4882,0.5415,0.5617,0.5617,0.6017,0.6284,0.649,0.7056,0.6946,0.6693,0.7991,0.8011,0.7812,0.8673,0.0,0.0,0.0,0.0,0.7034,0.8059,0.817,0.8141,0.8915,0.919,0.9544,1.0315,1.0584,1.0761,0.0,1.1411,1.1703,1.1908,0.0,0.0,0.0,0.0,1.4982,1.5181,1.6374,1.7427,1.7941,1.8102,1.8627,1.9683,2.0087,2.0549,2.1222,2.1528,2.1724,2.1907,2.1782,2.1769,2.1907,0.0,0.0,0.0,0.0,0.0,0.0,0.0,0.0,0.0,0.0,0.0,0.0,0.0,0.0,0.0,0.0,0.0,0.0,0.0,0.0,0.0,0.0,0.0,0.0,0.0,0.0,0.0,0.0,0.0,0.1942,0.2207,0.0,0.0,0.0,0.0,0.2075,0.1542,0.1141,0.1076,0.1745,0.208,0.208,0.3482,0.4287,0.4287,0.516,0.5645,0.5776,0.6001,0.6144,0.6275,0.6279,0.6275,0.6208,0.5711,0.5428,0.548,0.5471,0.5216,0.4882,0.5415,0.5617,0.5617,0.5617,0.5951,0.644,0.6671,0.674,0.6846,0.7706,0.7972,0.8253,0.965,0.8674,0.0,0.0,0.7491,0.7011,0.7078,0.758,0.8216,0.899,0.9689,1.0384,1.1149,1.158,1.1757,0.0,1.1416,1.1491,1.1703,0.0,1.2769,1.3592,1.4837,1.5896,1.666,1.7444,1.8017,1.823,1.8375,1.8586,1.8865,1.9628,2.0386,2.1089,2.1744,2.2348,2.299,2.2548,2.2523,2.2977,2.202,0.0,0.0,0.0,0.0,0.0,0.0,0.0,0.0,0.0,0.0,0.0,0.0,0.0,0.0,0.0,0.0,0.0,0.0,0.0,0.0,0.0,0.0,0.0,0.0,0.0,0.0,0.0,0.0,-0.0268,-0.0335,0.0,0.047,0.0546,0.0828,0.138,0.1263,0.1134,0.1134,0.1417,0.1488,0.1488,0.2475,0.325,0.3745,0.4564,0.5228,0.5792,0.5851,0.5946,0.5943,0.5943,0.6018,0.6165,0.595,0.595,0.6008,0.6036,0.5637,0.5005,0.5706,0.5985,0.6055,0.641,0.6622,0.6769,0.6834,0.6925,0.7012,0.7769,0.8004,0.8216,0.927,0.8357,0.7166,0.7943,0.7682,0.7131,0.7131,0.743,0.7882,0.8699,0.9069,0.9585,1.09,1.1272,1.1528,1.1939,1.1991,1.2063,1.2206,1.2518,1.2884,1.3381,1.4751,1.5816,1.6088,1.7226,1.8076,1.8269,1.8337,1.8472,1.8808,1.9452,2.0226,2.1071,2.1741,2.2433,2.3078,2.2949,2.2877,2.3078,2.2749,2.2518,0.0,0.0,0.0,0.0,0.0,0.0,0.0,0.0,0.0,0.0,0.0,0.0,0.0,0.0,0.0,0.0,0.0,0.0,0.0,0.0,0.0,0.0,0.0,0.0,0.0,0.0,-0.1448,-0.2001,-0.2142,-0.1797,-0.0759,-0.0421,-0.0071,0.0426,0.0505,0.0656,0.0875,0.0875,0.0948,0.1166,0.182,0.2619,0.3489,0.4249,0.5073,0.5878,0.5932,0.5956,0.5956,0.5956,0.6033,0.6184,0.6184,0.6254,0.6324,0.6397,0.6026,0.5571,0.584,0.6086,0.623,0.6448,0.6595,0.6746,0.6877,0.6937,0.7204,0.792,0.7993,0.7997,0.8794,0.8143,0.735,0.8147,0.8029,0.7684,0.7684,0.7774,0.8089,0.8922,0.9074,0.9528,1.118,1.1484,1.1632,1.2224,1.2305,1.2305,1.2452,1.2673,1.29,1.3046,1.433,1.5321,1.5675,1.6802,1.7794,1.8134,1.8269,1.8405,1.8674,1.9198,1.9835,2.0741,2.1365,2.2051,2.275,2.3005,2.3078,2.3078,2.3078,2.3078,2.3078,0.0,0.0,0.0,0.0,0.0,0.0,0.0,0.0,0.0,0.0,0.0,0.0,0.0,0.0,0.0,0.0,0.0,0.0,0.0,0.0,0.0,0.0,0.0,-0.0491,-0.2938,-0.431,-0.3205,-0.306,-0.262,-0.1454,-0.1382,-0.1166,-0.0729,-0.073,-0.0438,0.0146,0.0219,0.0511,0.1169,0.1825,0.2625,0.3425,0.4323,0.5205,0.5962,0.619,0.6338,0.6338,0.6338,0.6338,0.6338,0.6338,0.6338,0.6338,0.6486,0.6563,0.6531,0.5788,0.5892,0.6244,0.5748,0.5892,0.6342,0.6578,0.6893,0.7334,0.808,0.7931,0.7638,0.847,0.8169,0.7638,0.8475,0.8699,0.8703,0.8699,0.8703,0.8927,0.9744,0.9895,1.0346,1.1922,1.2224,1.2224,1.2224,1.2305,1.2305,1.2305,1.2452,1.2673,1.2893,1.3695,0.0,1.5534,1.6376,1.7148,1.7872,1.8134,1.8347,1.8482,1.8674,1.9131,2.0031,2.0741,2.1376,2.2039,2.275,2.3078,2.3078,2.3078,2.3078,2.3078,0.0,0.0,0.0,0.0,0.0,0.0,0.0,0.0,0.0,0.0,0.0,0.0,0.0,0.0,0.0,0.0,0.0,0.0,0.0,0.0,0.0,0.0,-0.3632,-0.3613,-0.4282,-0.4667,-0.4292,-0.4003,-0.3493,-0.2833,-0.2511,-0.2017,-0.1197,-0.1141,-0.0922,-0.0385,0.0,0.0385,0.0539,0.1232,0.1924,0.2768,0.3629,0.4488,0.5263,0.6005,0.6338,0.6338,0.6338,0.6338,0.6338,0.6338,0.6338,0.6338,0.6338,0.6412,0.6405,0.6464,0.6579,0.673,0.6579,0.6579,0.6734,0.6783,0.6904,0.7019,0.7242,0.7326,0.7407,0.8237,0.8008,0.7638,0.8475,0.8246,0.794,0.8551,0.8703,0.9079,1.0432,1.0346,1.0196,1.118,1.1409,1.1409,1.1409,1.1929,1.2305,1.2305,1.2452,1.2599,1.2673,1.3615,0.0,1.4617,1.5956,1.7001,1.7148,1.7716,1.8144,1.8337,1.8472,1.8931,1.9835,2.0677,2.1376,2.2039,2.275,2.3078,2.3078,2.3078,2.3078,0.0,0.0,0.0,0.0,0.0,0.0,0.0,0.0,0.0,0.0,0.0,0.0,0.0,0.0,0.0,0.0,0.0,0.0,0.0,0.0,0.0,0.0,-0.5033,-0.4971,-0.49,-0.4889,-0.4961,-0.5176,-0.4806,-0.4355,-0.4194,-0.3944,-0.3368,-0.2454,-0.2561,-0.227,-0.1334,-0.0942,-0.0549,-0.0079,0.0314,0.102,0.2115,0.2659,0.3439,0.4533,0.5318,0.5786,0.5786,0.6103,0.6338,0.6338,0.6338,0.6338,0.6338,0.6338,0.6338,0.0,0.0,0.0,0.0,0.0,0.6637,0.6637,0.6714,0.6865,0.6942,0.7022,0.7176,0.7407,0.7855,0.7783,0.7638,0.8475,0.8394,0.8093,0.8551,0.8703,0.8951,0.9948,1.0122,1.0302,1.1189,1.168,1.1992,1.1992,1.2374,0.0,1.2685,1.2546,1.2526,1.2599,1.3178,1.376,1.4274,1.5463,1.6446,1.6862,1.7579,1.8076,1.8269,1.8337,0.0,0.0,0.0,2.1049,2.2039,2.275,0.0,0.0,0.0,2.3078,2.3078,0.0,0.0,0.0,2.2091,2.1687,0.0,0.0,0.0,0.0,0.0,0.0,0.0,0.0,0.0,0.0,0.0,0.0,0.0,0.0,0.0,0.0,-0.5018,-0.5015,-0.5093,-0.5093,-0.5323,-0.5864,-0.5401,-0.5165,-0.5461,-0.5461,-0.5076,-0.4073,-0.4457,-0.4066,-0.243,0.0,0.0,0.0,0.0,0.0079,0.1413,0.1653,0.2363,0.3704,0.4491,0.4886,0.4886,0.5755,0.6152,0.623,0.6312,0.6312,0.6312,0.6312,0.6312,0.6305,0.6352,0.6338,0.6338,0.6338,0.6338,0.6338,0.6486,0.0,0.0,0.7049,0.7285,0.7439,0.7537,0.7545,0.7696,0.839,0.8616,0.8616,0.8693,0.877,0.8812,0.907,0.966,1.0426,1.1455,1.2234,1.2803,1.3048,1.3048,1.3048,1.3213,1.2766,1.2479,1.2628,1.2702,1.3051,1.4038,1.4888,1.5788,1.6664,0.0,0.0,1.8269,1.8269,1.8337,1.8482,1.9386,2.059,2.2039,2.275,2.3078,2.3078,2.3078,2.3078,2.3078,2.3078,2.3078,2.3078,2.2494,2.2237,0.0,0.0,0.0,0.0,0.0,0.0,0.0,0.0,0.0,0.0,0.0,0.0,0.0,0.0,0.0,-0.5018,-0.5018,-0.5171,-0.5631,-0.5709,-0.5786,-0.586,-0.5786,-0.5938,-0.6553,-0.663,-0.6163,-0.5076,-0.5151,-0.4688,-0.3526,-0.2976,-0.2429,-0.1883,-0.0878,-0.0,0.0646,0.1806,0.2566,0.2815,0.0,0.0,0.4053,0.5041,0.5454,0.5533,0.6283,0.6617,0.6617,0.6617,0.6617,0.659,0.6352,0.6338,0.6338,0.6338,0.6338,0.6338,0.6338,0.6412,0.6433,0.6795,0.699,0.7251,0.755,0.7752,0.0,0.8073,0.8154,0.8312,0.8958,0.9119,0.9285,0.9958,0.9732,0.9671,1.06,1.0369,1.0449,1.1908,1.2154,1.232,1.3048,1.3113,1.3033,1.3111,1.326,1.339,1.3518,1.4305,1.5227,1.5842,1.6655,1.7364,1.8008,1.8202,1.8337,1.8337,1.9748,2.1089,2.2039,2.275,2.3078,2.3078,2.3078,2.3078,2.3078,2.3078,2.3078,2.3078,2.2944,2.2884,0.0,0.0,0.0,0.0,0.0,0.0,0.0,0.0,0.0,0.0,0.0,-0.5941,0.0,0.0,-0.5479,-0.5479,-0.5532,-0.5729,-0.6041,-0.6424,-0.6731,-0.6802,-0.6556,-0.6666,-0.745,-0.7536,-0.7175,-0.6454,-0.6381,-0.6061,-0.5422,-0.4295,-0.373,-0.3726,-0.2704,-0.1816,-0.0992,-0.025,0.0755,0.1934,0.2349,0.2514,0.2598,0.3682,0.452,0.5113,0.5776,0.6025,0.6028,0.6529,0.6702,0.6685,0.6539,0.6481,0.6481,0.6481,0.6481,0.6481,0.6638,0.6638,0.6732,0.6972,0.7078,0.7256,0.7585,0.7773,0.7851,0.793,0.8012,0.8094,0.8505,0.8582,0.869,0.9197,0.9386,0.9585,1.0109,1.0213,1.0548,1.1466,1.1969,1.2395,1.2896,1.3313,1.3547,1.3253,1.3351,1.3519,1.3529,1.479,1.5848,1.6255,1.7405,1.828,1.8652,1.8517,1.8439,1.8424,1.9552,2.0643,2.1553,2.2249,2.275,2.3065,2.3078,2.3078,2.3078,2.3078,2.3078,2.3078,2.3078,2.3078,0.0,0.0,0.0,0.0,0.0,0.0,0.0,0.0,-0.7326,-0.7362,-0.7219,-0.7076,-0.7028,-0.6567,-0.6254,-0.6407,-0.6586,-0.682,-0.7133,-0.774,-0.8299,-0.8617,-0.7962,-0.7869,-0.882,-0.8913,-0.8653,-0.8233,-0.816,-0.7831,-0.7098,-0.6105,-0.536,-0.5105,-0.4543,-0.363,-0.2285,-0.2124,-0.0936,0.1194,0.1191,0.1189,0.1189,0.2122,0.314,0.4253,0.5262,0.5684,0.5687,0.645,0.6706,0.6706,0.6619,0.6703,0.6696,0.6722,0.6702,0.6698,0.6861,0.6943,0.695,0.7231,0.7329,0.7333,0.7613,0.7708,0.7788,0.7955,0.8034,0.8034,0.8034,0.8038,0.8158,0.8308,0.8935,0.9653,1.0082,1.0636,1.1149,1.1752,1.2186,1.2534,1.2705,1.3307,1.3754,1.3454,1.3527,1.3732,1.3915,1.5211,1.642,1.6884,1.8082,1.8985,1.9287,1.8965,1.8754,1.8763,1.9498,2.0292,2.1209,2.1925,2.2555,2.3078,2.3078,2.3078,2.3078,2.3078,2.3078,2.3078,2.3078,2.3078,-0.8143,-0.8291,-0.7685,-0.7088,-0.7464,-0.8138,0.0,0.0,-0.8803,-0.8999,-0.8501,-0.7848,-0.7516,-0.7379,-0.7539,-0.8341,-0.8517,-0.9009,-1.0365,-1.0632,-1.0958,-1.1556,-1.0354,-1.0054,-1.1535,-1.1688,-1.1364,-1.0729,-1.0729,-0.9842,-0.782,-0.8069,-0.7252,-0.4866,-0.4695,-0.3964,-0.2333,-0.1496,-0.0534,0.0801,0.0801,0.0801,0.0801,0.0889,0.1244,0.1955,0.5429,0.6868,0.6868,0.6766,0.6672,0.6669,0.648,0.6565,0.6802,0.6716,0.6702,0.6702,0.6698,0.6698,0.6805,0.7193,0.7325,0.7354,0.7755,0.7888,0.7888,0.7888,0.8059,0.8142,0.8142,0.8325,0.8511,0.8532,0.8623,0.9148,1.0804,1.0549,1.0809,1.3307,1.2534,1.1757,1.2534,1.279,1.3112,1.3911,1.4142,1.4283,1.4265,1.4553,1.5385,1.6767,1.7026,1.7784,1.9214,1.9238,1.9344,1.9746,2.055,2.124,2.167,2.2515,2.3005,2.3078,2.3078,2.3078,2.3078,2.3078,2.3078,2.3078,2.3078,2.3078,-0.9246,-0.9864,-0.9935,0.0,-1.0155,-1.0269,-1.0194,-1.0069,-0.9864,-0.9407,-0.9029,-0.8896,-0.9299,-0.9064,-0.9141,0.0,-1.029,-1.0624,-1.1275,-1.1734,-1.2337,-1.3181,-1.3073,-1.2839,-1.2306,-1.2288,-1.218,-1.207,-1.1661,-1.1155,-1.0653,-0.9644,-0.8717,-0.7959,-0.7076,-0.6063,-0.5102,-0.3986,-0.2224,0.0268,0.0268,0.0268,0.0269,0.0269,0.0537,0.1074,0.2684,0.4026,0.501,0.4917,0.5547,0.6545,0.645,0.6444,0.6514,0.666,0.6873,0.6956,0.6956,0.6956,0.6966,0.7118,0.7225,0.7236,0.757,0.768,0.768,0.7856,0.794,0.8028,0.8028,0.812,0.8212,0.8212,0.8212,0.8384,0.9157,0.8986,0.9161,1.0448,1.088,1.1311,1.1837,1.2357,1.279,1.3222,1.3893,1.4434,1.4476,1.5204,1.6356,1.8099,1.8324,1.8687,1.9594,1.9648,1.9698,1.969,2.0576,2.1404,2.2026,2.2667,2.3244,2.364,2.3314,2.3078,2.3078,2.3078,2.3078,2.3078,2.3078,2.3078,-1.0651,-1.1438,0.0,-1.2293,-1.237,-1.2344,-1.1848,-1.157,-1.1272,-1.061,-1.03,-1.0402,-1.1122,-1.0881,-1.0871,-1.1758,-1.2087,-1.2379,-1.2864,-1.3458,-1.4105,-1.5039,-1.5688,-1.5502,-1.4049,-1.3947,-1.4028,-1.4156,-1.3412,-1.3074,-1.3159,-1.153,-1.0509,-1.0346,-0.9392,-0.8607,-0.7994,-0.7085,-0.5313,-0.2756,-0.2303,-0.1334,0.0,0.0,0.0179,0.0537,0.0537,0.1342,0.2592,0.2591,0.3396,0.4659,0.5198,0.5374,0.5366,0.6174,0.6707,0.7054,0.7054,0.7054,0.7051,0.6786,0.6874,0.7054,0.7058,0.7146,0.7415,0.7588,0.7768,0.7768,0.7768,0.7856,0.7944,0.7944,0.7944,0.794,0.8201,0.8288,0.8372,0.8803,0.984,1.0702,1.0799,1.1408,1.2015,1.2272,1.3033,1.3711,1.4307,1.5553,1.7033,1.8407,1.8975,1.9418,1.9736,1.9936,2.0046,1.9984,2.0874,2.1691,2.2456,2.3084,2.3686,2.4217,2.3816,2.3527,2.3376,2.3376,2.3288,2.3078,2.3078,2.3078,-1.2672,0.0,-1.3625,-1.2903,-1.3304,-1.3782,-1.3553,-1.3553,-1.3478,-1.3453,-1.2858,-1.2355,-1.2608,-1.265,-1.2911,-1.3853,-1.4035,-1.4615,-1.6265,-1.6519,-1.6935,-1.7755,-1.7917,-1.7908,0.0,-1.7819,-1.7819,-1.7827,-1.7017,-1.5838,-1.4372,-1.4099,-1.2923,-1.0671,-1.1198,-1.1117,-1.0336,-1.0245,-1.0038,-0.9703,-0.8218,-0.4854,0.0,0.0,0.0,0.0,0.0,0.009,0.009,0.009,0.0179,0.0358,0.2239,0.3042,0.3218,0.5022,0.6183,0.6795,0.6795,0.6966,0.6962,0.6074,0.6343,0.6962,0.5985,0.6428,0.7139,0.7139,0.7323,0.7507,0.7507,0.768,0.7944,0.7944,0.7944,0.8113,0.8973,0.9148,0.9405,1.0351,1.0009,0.9666,0.9666,0.985,1.0289,1.1241,1.1413,1.1918,1.3281,1.5365,1.6698,1.678,1.8327,1.9292,1.9283,2.007,2.0624,2.0867,2.1818,2.255,2.2976,2.3898,2.4589,2.4795,2.4782,2.4506,2.3966,2.3966,2.369,2.3078,2.3078,2.3078,-1.4944,-1.5418,-1.5662,-1.5811,-1.6358,-1.6571,-1.5461,-1.5021,-1.4717,-1.4,-1.3201,-1.2825,-1.3522,-1.4112,-1.4768,-1.5703,-1.6281,-1.6854,-1.7513,-1.832,-1.8979,-1.9303,-2.0827,0.0,0.0,0.0,0.0,-1.7997,-1.718,-1.6683,-1.6724,-1.6144,-1.5381,-1.4601,-1.4282,-1.3948,-1.369,-1.3121,-1.2747,-1.2649,-1.2727,-1.0274,-0.5534,-0.5285,-0.3265,0.0,0.0,0.0,0.0,0.0,0.0,0.009,0.0718,0.1794,0.3139,0.5037,0.5027,0.4376,0.5366,0.5813,0.5722,0.5003,0.5001,0.5267,0.563,0.5897,0.634,0.6962,0.7143,0.7231,0.7231,0.7319,0.7408,0.7408,0.7408,0.7492,0.7753,0.7837,0.8013,0.8719,0.9061,0.941,0.9763,0.9854,1.0202,1.1154,1.2431,1.3372,1.3366,1.472,1.5891,1.6617,1.7188,1.8078,1.9222,1.9539,2.001,2.0654,2.1611,2.2168,2.2316,2.3444,2.4174,2.4389,2.4526,2.4591,2.4544,2.4544,2.4443,2.4243,2.3879,2.3703,-1.674,-1.7288,-1.7603,-1.8013,-1.8404,-1.8458,-1.7251,-1.6569,-1.5988,-1.5238,-1.4343,-1.3957,-1.488,-1.5448,-1.6018,-1.6617,-1.718,-1.7819,-1.8567,-1.9578,-2.0737,-2.2368,-2.4107,-2.4896,0.0,0.0,0.0,-1.8991,-1.8221,-1.8069,-1.8399,-1.7705,-1.7276,-1.7195,-1.6692,-1.6522,-1.6522,-1.595,-1.5644,-1.5681,-1.6392,-1.5007,-1.1635,-1.1815,-0.9623,-0.5673,-0.383,-0.1844,0.0,0.0,0.0,0.0,0.0,0.0808,0.1976,0.3238,0.3323,0.3045,0.4026,0.4469,0.4469,0.4024,0.4113,0.4378,0.5003,0.545,0.5897,0.6874,0.7139,0.7139,0.7139,0.7139,0.7139,0.7139,0.7143,0.7231,0.7139,0.7143,0.7323,0.768,0.8288,0.8894,0.9244,0.9598,1.0115,1.0722,1.2516,1.3802,1.3789,1.4566,1.5333,1.5884,1.6698,1.7594,1.8638,1.9371,2.001,2.0566,2.1451,2.1962,2.2027,2.3067,2.385,2.4365,2.4594,2.4755,2.4978,2.5031,2.5008,2.4808,2.4456,2.4293,-1.7908,-1.8709,-1.9335,-1.9335,-1.9413,-1.9335,-1.9018,-1.8212,-1.7488,-1.7163,-1.6288,-1.5906,0.0,0.0,-1.7001,-1.705,-1.7122,-1.802,-2.0158,-2.0858,-2.2601,0.0,0.0,0.0,0.0,0.0,0.0,-2.1445,0.0,-2.0169,-1.9877,-1.9252,-1.8858,-1.8638,-1.8744,-1.8762,-1.8762,-1.8683,-1.8674,-1.8603,-1.9082,-1.8689,-1.7661,-1.8715,-1.8204,-1.6002,-1.1074,-0.5863,-0.079,-0.0526,-0.0354,-0.0359,-0.0269,-0.018,0.0,0.0,0.1079,0.2518,0.2686,0.2948,0.3213,0.3224,0.3669,0.4198,0.42,0.4914,0.5808,0.6786,0.7051,0.7139,0.7139,0.7139,0.7139,0.7139,0.7323,0.7415,0.7143,0.7323,0.7507,0.7507,0.7768,0.794,0.8201,0.9161,0.9859,0.9859,1.1494,1.3124,1.4223,1.4741,1.4999,1.4741,1.6609,1.7827,1.7738,1.9432,2.0479,2.0566,2.1318,2.1832,2.1886,2.2776,2.3672,2.4636,2.4862,2.5129,2.5326,2.5515,2.5385,2.4843,2.4883,2.4858,-1.9511,-1.9982,-2.0216,-2.0216,-2.0692,-2.0934,-2.007,-2.0304,-2.041,-1.9167,-1.8876,-1.8602,0.0,0.0,0.0,-2.1707,-2.3306,0.0,-2.6816,-2.8029,0.0,-3.0286,0.0,-3.216,-3.1523,-3.1422,0.0,0.0,-2.6715,-2.639,-2.6965,-2.4868,-2.3618,-2.3607,-2.1616,-2.0557,-2.0557,-2.007,-1.9502,-1.885,-1.8905,-1.8985,-1.8807,-1.8825,-1.8904,-1.8918,-1.655,-1.4379,-1.2054,-0.761,-0.5726,-0.5616,-0.4232,-0.2209,0.0,0.0,-0.1522,-0.3057,-0.0269,0.0986,0.1433,0.1792,0.1972,0.2239,0.3044,0.3935,0.4825,0.5805,0.652,0.7139,0.7139,0.7139,0.7139,0.7139,0.7143,0.7143,0.7139,0.7143,0.7234,0.7503,0.7856,0.8113,0.8201,0.9161,0.9859,0.9859,1.1494,1.2869,1.3275,1.4048,1.4657,1.4999,1.5311,1.6206,1.7755,1.823,1.9027,2.0479,2.0789,2.0934,2.0934,2.2274,2.3231,2.3599,2.4791,2.5545,2.577,2.5977,2.5984,2.5847,2.5544,2.5398,-1.9747,-2.0537,-2.1088,-2.1088,-2.1405,-2.1645,-2.1021,-2.0961,-2.0767,-1.9894,-1.9877,0.0,0.0,0.0,0.0,0.0,0.0,0.0,-2.9615,-3.0741,-3.2015,0.0,-3.4871,0.0,-3.5414,-3.5502,-3.5193,0.0,-3.1095,-2.9273,-2.957,-2.8295,-2.7446,-2.7371,-2.3305,-2.0487,-1.9238,-2.1575,-2.1871,-2.0207,-2.0207,-2.0285,-2.0372,-2.0119,-2.0077,-2.0207,0.0,-1.8707,-1.7921,-1.3868,-1.1786,-1.0968,-0.9943,-0.7918,-0.5282,-0.3002,-0.3549,-0.5087,-0.3132,-0.2059,-0.1163,0.0806,0.1436,0.1614,0.2598,0.3312,0.3935,0.5364,0.6074,0.6605,0.6962,0.7139,0.7139,0.7139,0.7231,0.7231,0.7139,0.7231,0.7323,0.7507,0.7768,0.8113,0.8201,0.8723,0.9336,0.9859,1.1149,1.2272,1.2772,1.3795,1.4482,1.4671,1.5068,1.5794,1.7017,1.7827,1.8789,1.9932,2.0401,2.0789,2.1088,2.169,2.2499,2.3588,2.4192,2.4933,2.5758,2.598,2.6131,2.6201,2.5934,2.5907,-1.958,-2.0692,-2.1797,-2.1655,-2.1645,-2.1645,-2.1568,-2.0837,-2.0119,-2.006,0.0,-2.0505,-2.11,-2.3804,-2.6024,-2.6303,0.0,-2.9899,-3.1341,-3.2029,-3.3499,-3.654,-3.7429,-3.8225,-3.936,-3.9229,-3.9097,-3.9123,-3.4105,-3.0969,-3.0911,-3.0909,-3.0626,-2.9999,-2.49,-2.0973,-1.854,-2.3871,-2.5299,-2.2926,-2.2509,-2.2339,-2.2339,-2.1983,-2.1405,-2.0702,-2.0702,-2.0487,-2.0046,-1.8617,-1.7105,-1.5606,-1.5311,-1.4368,-1.2498,-0.7846,-0.5985,-0.5733,-0.6151,-0.5364,-0.3482,0.009,0.1256,0.1524,0.2419,0.2778,0.3224,0.4828,0.5453,0.5716,0.6697,0.6874,0.6962,0.7051,0.7323,0.7415,0.7143,0.7323,0.7415,0.7415,0.768,0.794,0.8113,0.8201,0.8548,0.951,1.0549,1.1585,1.2443,1.3548,1.4321,1.4166,1.5144,1.5876,1.6116,1.7819,1.8966,1.9381,2.0167,2.0944,2.1614,2.1165,2.1907,2.3891,2.3672,2.4192,2.5535,2.5758,2.598,2.6131,2.6213,2.627,-2.1011,-2.1568,-2.1645,-2.0934,-2.0702,-2.0702,-2.0557,-2.1018,0.0,0.0,-2.1497,-2.1899,-2.0904,-2.4026,0.0,-2.9057,0.0,0.0,0.0,0.0,-3.8238,0.0,0.0,0.0,0.0,0.0,0.0,0.0,0.0,-3.6079,-3.7775,-3.5722,-3.3278,-3.0637,-2.9295,-2.8339,-2.7866,-2.8924,-2.921,-2.8728,-2.6411,-2.5244,-2.519,-2.2864,-2.1721,-2.1568,-2.1568,0.0,-2.0087,-1.8984,-1.7772,-1.659,-1.4936,-1.4606,-1.4709,-1.2801,-1.1018,-0.9428,-0.9275,-0.6587,-0.2761,-0.0537,0.0807,0.1436,0.1614,0.224,0.2956,0.3314,0.3935,0.4734,0.5719,0.5985,0.6163,0.6874,0.7143,0.7143,0.7139,0.7143,0.7143,0.7143,0.7411,0.7595,0.7591,0.794,0.8285,0.846,0.9941,1.1154,1.1494,1.3045,1.4159,1.4314,1.4559,1.5296,1.6935,1.7577,1.8559,2.002,2.0411,2.0644,2.0789,2.1983,2.2809,2.3169,2.4348,2.5087,2.5382,2.5535,2.5676,2.5688,2.6062,2.6201,-1.9737,-2.0459,-2.0934,-2.006,-1.9904,-1.9825,-1.959,0.0,0.0,0.0,-2.1486,-2.236,-2.179,0.0,0.0,0.0,0.0,0.0,0.0,0.0,0.0,0.0,0.0,0.0,0.0,0.0,0.0,0.0,0.0,-3.6901,-3.7871,-3.7559,-3.4637,-2.8728,-3.2521,-3.2338,-2.7576,-3.0782,-3.0933,-2.798,-2.6625,-2.5257,-2.3791,-2.2392,-2.1807,-2.1807,-2.1655,-2.1349,-2.0789,-2.007,-1.8948,-1.7585,-1.6519,-1.5854,-1.5288,-1.424,-1.2918,-1.1424,-1.0396,-0.846,-0.6074,-0.3217,-0.0895,0.0807,0.1256,0.1704,0.224,0.2777,0.3578,0.4556,0.545,0.6074,0.652,0.6962,0.7139,0.7139,0.7139,0.7139,0.7139,0.7139,0.7231,0.7323,0.7507,0.7768,0.8113,0.8201,0.985,1.1154,1.1322,1.296,1.4173,1.4243,1.4243,1.465,1.5703,1.6756,1.7819,1.8877,1.9923,2.0644,2.1165,2.1538,2.236,2.3537,2.3902,2.4504,2.5312,2.5382,2.5535,2.5758,2.598,2.6131,-1.839,-1.9265,-2.006,-1.9265,-1.9027,-1.8868,-1.8621,-1.9107,0.0,0.0,-2.0916,-2.2164,-2.2171,0.0,0.0,0.0,0.0,0.0,0.0,0.0,0.0,0.0,0.0,0.0,0.0,0.0,0.0,0.0,0.0,0.0,-3.6555,-3.7874,-3.5817,-2.9687,-3.5539,-3.5366,-2.8192,-3.2933,-3.3168,-2.8685,-2.7495,-2.5752,-2.3553,-2.2339,-2.1807,-2.1731,-2.1578,-2.1512,-2.1349,-2.0644,-1.952,-1.8141,-1.7674,-1.664,-1.5347,-1.4657,-1.373,-1.2717,-1.1251,-1.046,-0.9464,-0.6459,-0.3042,0.0179,0.0987,0.1345,0.1524,0.2331,0.3133,0.3933,0.5095,0.5983,0.6602,0.6962,0.7139,0.7139,0.7139,0.7228,0.7404,0.7404,0.7577,0.7665,0.7676,0.794,0.8116,0.8025,0.985,1.1149,1.1235,1.2875,1.4004,1.4088,1.4166,1.4405,1.4887,1.6265,1.7488,1.8221,1.9608,2.0712,2.1538,2.1088,2.1756,2.3599,2.339,2.3829,2.5004,2.5241,2.5535,2.5828,2.591,2.6119,-1.9027,-1.9265,-1.9186,-1.8318,-1.8006,-1.7772,-1.7602,0.0,0.0,-1.8921,-1.9922,-2.0809,-2.0771,-2.1098,-1.9334,0.0,0.0,-1.4579,0.0,0.0,0.0,0.0,0.0,0.0,0.0,0.0,0.0,0.0,0.0,0.0,-3.6998,-3.7089,-3.7579,-3.8819,-3.8994,-3.866,-3.7815,-3.8153,-3.8049,-3.7462,-3.2272,-2.9694,-2.9266,-2.412,-2.1731,-2.1512,-2.1731,0.0,0.0,-1.9423,-1.8541,-1.7836,-1.6229,-1.5506,-1.5431,-1.5347,-1.4565,-1.3465,-1.3293,-1.1854,-0.9981,-0.962,-0.5213,0.009,0.0628,0.1076,0.1436,0.1524,0.1614,0.206,0.3933,0.4467,0.5001,0.6694,0.7139,0.7139,0.7139,0.7753,0.8368,0.8368,0.9056,0.9405,0.8544,0.8632,0.8548,0.768,0.9336,1.0717,1.0961,1.2601,1.3828,1.4088,1.4237,1.5054,1.6593,1.7334,1.831,1.9942,2.0411,2.0644,2.0722,2.1318,2.1756,2.1983,2.3305,2.4047,2.4192,2.5158,2.5606,2.5618,2.598,2.6201,-1.718,-1.7496,-1.773,-1.6862,-1.6796,-1.6886,-1.6648,0.0,-1.787,-1.7805,-1.6004,-1.4386,-1.442,-1.7804,-1.5835,-0.1196,0.0,0.0,0.0,0.0,0.0,0.0,0.0,0.0,0.0,0.0,0.0,0.0,0.0,0.0,-3.3206,-3.5576,-3.661,-3.6198,-3.8278,-3.9302,-3.9109,-3.8987,-3.8015,-3.6156,-3.3866,-3.0985,-2.7602,-2.5365,-2.3311,-2.1502,-2.1578,-2.1359,0.0,-1.9678,-1.8709,-1.7917,-1.6624,-1.5824,-1.5438,-1.5372,-1.4654,-1.3286,-1.0829,-1.0036,-0.9986,-0.999,-0.5486,0.009,0.0538,0.0987,0.1436,0.1436,0.1793,0.2597,0.3933,0.5179,0.616,0.6962,0.7139,0.7139,0.7139,0.7841,0.8544,0.8544,0.9231,0.9749,0.9405,0.9061,0.8807,0.8372,0.9593,1.0717,1.0961,1.2601,1.3822,1.4088,1.4166,1.4489,1.5228,1.6519,1.7658,1.8479,1.9687,2.0489,2.0566,2.0944,2.1318,2.1766,2.2872,2.3683,2.4108,2.5016,2.5535,2.5758,2.591,2.6119,-1.5643,-1.5966,-1.646,-1.5793,-1.5944,-1.6268,0.0,0.0,-1.7263,-1.6684,-1.1226,-0.6682,-0.7158,-0.8154,-0.3057,1.459,0.0,2.0461,0.0,0.0,0.0,0.0,0.0,0.0,0.0,0.0,0.0,0.0,0.0,0.0,-2.9769,-3.3141,-3.4916,-3.4707,-3.7356,-3.8926,-3.9231,-3.9163,-3.7977,-3.571,-3.4885,-3.1966,-2.7216,-2.6411,-2.4327,-2.1502,-2.1578,-2.1359,0.0,-2.0001,-1.9036,-1.7917,-1.7017,-1.617,-1.5435,-1.5375,-1.4864,-1.369,-1.0927,-0.8701,-0.7399,-0.9353,-0.5494,0.0269,0.1703,0.1792,0.1436,0.1436,0.224,0.3401,0.4378,0.5802,0.7054,0.7051,0.7228,0.7404,0.7492,0.8452,0.924,0.9327,1.0101,1.0616,1.0361,0.9932,0.9414,0.889,1.0024,1.089,1.0875,1.2516,1.3822,1.4088,1.4088,1.425,1.4573,1.6116,1.7326,1.7747,1.9441,2.0411,2.0566,2.0566,2.0867,2.1461,2.251,2.3243,2.3745,2.4862,2.5535,2.591,2.598,2.6188,-1.4901,-1.5235,-1.5695,-1.5459,-1.5799,-1.6111,0.0,0.0,-1.6814,-1.5682,-0.5987,0.1758,0.0178,1.0195,2.2911,3.5817,3.6177,0.0,0.0,0.0,0.0,0.0,0.0,0.0,0.0,0.0,0.0,0.0,0.0,0.0,-2.751,-2.9653,-3.2817,-3.7124,-3.6988,-3.7722,-3.9575,-3.9281,-3.8949,-3.8609,-3.5822,-3.2998,-3.006,-2.7278,-2.4327,-2.1502,0.0,-2.1436,0.0,-2.0148,-1.9186,-1.7917,-1.7017,-1.6163,-1.5418,-1.5418,-1.5375,-1.5402,-1.5306,-0.8662,-0.1169,-0.7822,-0.5425,0.0718,0.4478,0.3671,0.1436,0.1436,0.2597,0.4115,0.5092,0.6077,0.6881,0.7054,0.7669,0.8285,0.8456,0.9763,1.1068,1.1241,1.2015,1.2357,1.1413,1.1322,1.0626,0.8803,1.0279,1.1408,1.0697,1.2431,1.3822,1.4088,1.4088,1.4489,1.5621,1.6683,1.7738,1.8877,2.0001,2.0566,2.0566,2.0566,2.0566,2.0644,2.2209,2.3032,2.3032,2.4719,2.5688,2.591,2.6131,2.6339,-1.4008,-1.4489,-1.4943,-1.459,-1.5375,-1.6186,-1.6093,0.0,-1.3151,-0.3498,0.8941,1.7936,1.7422,1.8262,2.2616,3.3485,3.634,0.0,0.0,0.0,0.0,0.0,0.0,0.0,0.0,0.0,0.0,0.0,0.0,0.0,-2.7523,-2.816,-2.9899,-3.2758,-3.4181,-3.5693,-3.7397,-3.732,-3.775,-3.8707,-3.7809,-3.5861,-3.3106,-3.2241,-2.9097,0.0,0.0,-2.3266,-2.0848,-2.0108,-1.9084,-1.7861,-1.6415,-1.5638,-1.5362,-1.5425,-1.5406,-1.4418,-0.7289,-0.2691,-0.036,-0.2519,0.0,0.4146,0.5313,0.4131,0.2509,0.2776,0.3758,0.4741,0.5008,0.6337,0.7485,0.7573,0.836,0.9148,0.9235,1.0279,1.1241,1.1322,1.21,1.2619,1.2272,1.1757,1.1063,1.0544,1.0977,1.1413,1.1316,1.2613,1.3815,1.4636,1.4328,1.4496,1.5387,1.6519,1.7577,1.8638,1.9766,2.0498,2.0566,2.1165,2.1385,2.1385,2.2947,2.3745,2.3745,2.4862,2.5535,2.591,2.6258,2.6465,0.0,-1.4193,-1.4691,-1.4428,-1.3801,0.0,0.0,0.0,-0.3791,0.9817,1.9404,2.5822,2.743,2.5611,2.6422,3.4265,3.7082,0.0,0.0,0.0,0.0,0.0,0.0,0.0,0.0,0.0,0.0,0.0,0.0,0.0,-2.7523,-2.7523,-2.6504,-2.4328,-2.9821,-3.3617,-3.5326,-3.3682,-3.3277,-3.411,-3.2481,-3.1435,-3.0927,-3.0991,-2.9104,0.0,-2.5961,-2.4119,0.0,-2.0509,-1.9534,-1.8203,-1.6884,-1.4654,-1.2469,-1.4623,-1.2963,-0.8658,-0.2242,0.0,0.045,0.3332,0.4949,0.5749,0.6296,0.5027,0.3583,0.421,0.4654,0.5008,0.5366,0.6514,0.7746,0.7746,0.8886,0.985,0.9932,1.0804,1.1591,1.1671,1.2272,1.2705,1.2705,1.2186,1.1671,1.1322,1.158,1.1843,1.1671,1.2619,1.3724,1.4873,1.4643,1.4977,1.6288,1.6764,1.7407,1.839,1.9608,2.0342,2.0489,2.1011,2.1461,2.1756,2.3021,2.3818,2.4108,2.5004,2.5606,2.591,2.6258,2.6396,0.0,-1.4077,0.0,0.0,0.0,0.0,0.0,0.0,0.0,0.0,2.5225,2.6536,3.0703,3.1632,3.3096,3.7292,0.0,0.0,0.0,0.0,0.0,0.0,0.0,0.0,0.0,0.0,0.0,0.0,0.0,0.0,-2.6483,-2.6483,-2.2538,-1.381,-2.3936,-3.0464,-3.2348,-2.7974,-2.606,-2.6548,-2.2172,-2.1972,-2.541,-2.5494,-2.5652,0.0,-2.6374,-2.4339,0.0,-2.1203,-2.0205,-1.8144,-1.7062,-1.2695,-0.758,-1.2457,-0.8193,0.0,0.0,0.036,0.1979,0.9033,0.8864,0.6133,0.7245,0.6177,0.4746,0.5473,0.5287,0.5006,0.5902,0.6874,0.7665,0.7921,0.924,1.0467,1.0636,1.1338,1.2037,1.2283,1.2534,1.2705,1.2705,1.2705,1.2357,1.1494,1.21,1.2448,1.1843,1.2534,1.3639,1.4956,1.5039,1.5861,1.7917,1.7496,1.7488,1.8301,1.9529,2.0264,2.0264,2.0566,2.1011,2.1766,2.266,2.3463,2.4192,2.5158,2.5688,2.591,2.6131,2.627,-1.1974,0.0,-1.3521,-1.3203,-1.3975,-1.0114,0.0,0.0,0.0,0.0,0.0,0.0,0.0,0.0,0.0,0.0,0.0,0.0,0.0,0.0,0.0,0.0,0.0,0.0,0.0,0.0,0.0,0.0,0.0,-1.676,-1.676,-1.676,-1.5791,-1.3571,-1.6149,-1.846,-2.0372,-1.6039,-1.8143,-2.6548,-2.2172,-2.2998,-2.8415,-2.8415,-2.7277,-2.5517,-2.9638,-2.5635,-1.6445,-2.0168,-1.8,-1.168,-0.5547,-0.4707,-0.6675,-0.3659,-0.1432,0.0,0.0,0.3785,0.8939,1.0691,1.0042,0.8488,0.779,0.7595,0.7221,0.6,0.5555,0.5638,0.6612,0.7577,0.8452,0.924,1.0381,1.1348,1.1435,1.178,1.2043,1.2037,1.2283,1.2448,1.2448,1.2619,1.2619,1.2357,1.2534,1.2619,1.2534,1.2881,1.3795,1.5598,1.5282,1.6101,1.8807,1.8238,1.8238,1.9231,1.9557,1.9951,2.0264,2.0944,2.1461,2.1756,2.3158,2.4264,2.5016,2.5382,2.5606,2.5688,2.605,2.6201,-1.0325,-1.2328,-1.408,-1.402,-0.7863,0.1845,0.0,0.0,0.0,0.0,0.0,0.0,0.0,0.0,0.0,0.0,0.0,0.0,0.0,0.0,0.0,0.0,0.0,0.0,0.0,0.0,0.0,0.0,0.0,-0.7047,-0.7047,-1.1168,-0.9532,-0.0854,-0.4844,-1.1673,-2.135,-1.2828,-1.2726,-2.0984,-1.6647,-1.8251,-2.5043,-2.2166,-2.3716,-2.8699,-2.7776,-2.1882,-1.3361,-1.9333,-1.7173,-0.9298,-0.2043,-0.0805,-0.2761,0.0269,0.0897,0.0807,0.4057,0.79,1.1263,1.1342,1.0891,1.0022,0.8488,0.8204,0.8105,0.6263,0.5997,0.6438,0.6966,0.8105,0.9244,0.9772,1.0738,1.1527,1.1527,1.1699,1.2037,1.254,1.2869,1.3033,1.3118,1.3203,1.3124,1.279,1.2705,1.2705,1.2705,1.3209,1.4126,1.5838,1.6011,1.6927,1.9134,1.8895,1.8816,1.939,1.9557,1.9715,1.9951,2.0934,2.1907,2.2872,2.4047,2.4862,2.5312,2.5382,2.5535,2.5618,2.5828,2.598,-0.866,-1.1574,-1.435,-1.327,0.2027,1.8216,0.0,0.0,0.0,0.0,0.0,0.0,0.0,0.0,0.0,0.0,0.0,0.0,0.0,0.0,0.0,0.0,0.0,0.0,0.0,0.0,0.0,0.0,0.0,0.2972,0.2972,-0.4561,-0.155,1.4443,0.6945,-0.6354,-2.5182,-1.1713,-0.81,-1.4459,-1.0088,-1.1768,-1.8501,-1.3442,-1.8103,-2.9875,0.0,0.0,-0.9916,-1.5857,-1.4135,-0.7341,-0.1874,0.0718,0.1436,0.1438,0.1078,0.1794,0.9298,1.1641,1.1274,1.1499,1.1451,1.0989,0.9082,0.8715,0.8452,0.6435,0.6526,0.7228,0.7573,0.8803,0.9946,1.012,1.0819,1.1435,1.1435,1.1693,1.2289,1.3203,1.3535,1.3626,1.3795,1.3795,1.3542,1.279,1.279,1.2869,1.2869,1.3711,1.4706,1.6093,1.6838,1.7827,1.9222,1.9301,1.9301,1.9301,1.9548,1.9794,1.9942,2.0934,2.2274,2.4059,2.4791,2.5158,2.5312,2.5312,2.5382,2.5535,2.5606,2.5688,-0.8677,-0.9707,-0.9481,-0.3774,1.0845,2.3343,0.0,0.0,0.0,0.0,0.0,0.0,0.0,0.0,0.0,0.0,0.0,0.0,0.0,0.0,0.0,0.0,0.0,0.0,0.0,0.0,0.0,0.0,0.0,1.4372,1.4372,1.3041,1.3564,1.653,1.389,0.3418,-1.5464,-0.1963,-0.1606,-1.4459,-1.0088,-0.948,-1.2151,-1.2993,-1.4579,-1.7451,0.0,-2.3339,-0.2843,-0.2318,-0.1427,-0.0179,0.0806,0.1256,0.1436,0.1436,0.1077,0.2061,1.1467,1.3258,1.1388,1.2273,1.1939,1.0926,0.9069,0.9492,1.0091,0.7573,0.6962,0.7573,0.9831,1.0193,1.012,1.0911,1.1682,1.2192,1.2192,1.2711,1.3222,1.3392,1.3215,1.3124,1.3124,1.3039,1.2869,1.2705,1.3288,1.3795,1.3795,1.4636,1.5718,1.7017,1.7269,1.7925,1.9222,1.9301,1.9301,1.9301,2.0001,2.0769,2.168,2.1614,2.2295,2.3886,2.4143,2.4636,2.5312,2.5312,2.5312,2.5382,2.5535,2.5606,-0.7831,-0.666,-0.3877,-0.0809,0.5869,1.362,0.0,0.0,0.0,0.0,0.0,0.0,0.0,0.0,0.0,0.0,0.0,0.0,0.0,0.0,0.0,0.0,0.0,0.0,0.0,0.0,0.0,0.0,0.0,0.0,2.328,2.0025,2.0128,2.4403,1.8866,0.9242,-0.4473,0.0786,-0.373,-1.7995,-1.5974,-1.5991,-1.7663,-1.3652,-1.3608,-1.683,0.0,-1.1423,0.0179,0.1076,0.1436,0.1436,0.1436,0.1436,0.1704,0.4289,0.6631,0.9194,1.3293,1.3536,1.2105,1.2457,1.1974,1.1084,1.0193,1.0356,1.0864,1.0418,0.973,0.9401,1.0193,1.0804,1.1327,1.1768,1.2454,1.2966,1.2966,1.3137,1.3561,1.4223,1.4378,1.4378,1.3971,1.4055,1.3964,1.3457,1.3711,1.421,1.472,1.5636,1.6542,1.7359,1.7934,1.8585,1.9222,1.9301,1.9301,1.9301,1.9608,2.0527,2.1973,2.1897,2.266,2.4539,2.4587,2.4874,2.5312,2.5312,2.5312,2.5312,2.5382,2.5465,-0.5426,-0.3401,0.0,0.0,0.0,0.0,0.0,0.0,0.0,0.0,0.0,0.0,0.0,0.0,0.0,0.0,0.0,0.0,0.0,0.0,0.0,0.0,0.0,0.0,0.0,0.0,0.0,0.0,0.0,0.0,2.97,2.5385,2.5611,3.1378,2.4163,1.4601,0.302,0.1325,-0.6723,-2.1016,-2.1016,-2.1225,-2.1378,-1.4336,-1.254,-1.4417,-0.5139,-0.009,0.1436,0.1436,0.1436,0.1524,0.2488,0.2739,0.2993,0.6511,1.0999,1.5283,1.464,1.3655,1.2751,1.282,1.2283,1.1516,1.1311,1.1472,1.1895,1.2395,1.206,1.1397,1.089,1.1413,1.2198,1.2363,1.2881,1.3476,1.3561,1.373,1.4153,1.4985,1.522,1.513,1.465,1.4643,1.4552,1.4041,1.421,1.4636,1.5553,1.6624,1.7448,1.7691,1.8505,1.9073,1.9301,1.946,1.9529,1.9301,1.9301,2.0216,2.2113,2.2113,2.2936,2.4981,2.5052,2.5182,2.5312,2.5312,2.5312,2.5312,2.5312,2.5312,-0.0505,-0.0348,0.0,0.0,0.5931,0.0,0.3386,1.3802,0.0,0.0,0.0,0.0,0.0,0.0,0.0,0.0,0.0,0.0,0.0,0.0,0.0,0.0,0.0,0.0,0.0,0.0,0.0,0.0,0.0,0.0,3.241,3.3417,3.3743,3.3224,3.1104,2.1252,0.3078,0.1325,-0.6723,-2.1016,-2.1016,-1.8951,-1.5162,-1.4486,-0.9718,-0.1944,-0.0703,0.0449,0.1436,0.1436,0.1436,0.1788,0.572,0.6787,0.6102,0.5889,0.9861,1.5426,1.5291,1.4176,1.2831,1.3926,1.3379,1.2277,1.1992,1.293,1.3704,1.1729,1.2174,1.3222,1.3137,1.2283,1.1521,1.2283,1.2881,1.3561,1.423,1.4824,1.5257,1.5347,1.4755,1.4159,1.4139,1.3464,1.3124,1.3873,1.472,1.5636,1.6453,1.761,1.8362,1.8612,1.8843,1.9073,1.9301,2.0001,2.0079,1.9381,1.9301,2.0382,2.2841,2.2349,2.2872,2.479,2.4981,2.5182,2.5312,2.5312,2.5312,2.5312,2.5312,2.5312,0.7856,0.4865,0.125,0.6548,1.2289,0.0,0.0,1.7079,2.0298,0.0,0.0,0.0,0.0,0.0,0.0,0.0,0.0,0.0,0.0,0.0,0.0,0.0,0.0,0.0,0.0,0.0,0.0,0.0,0.0,0.0,3.2444,3.4822,3.5668,3.4518,2.7255,1.7252,0.451,-0.3971,-1.3847,-2.4982,-1.9111,-1.5452,-1.4069,-1.9918,-1.7556,-0.8487,-0.1929,0.0897,0.0987,0.1256,0.1436,0.2235,1.0818,1.3897,1.3675,1.564,1.7131,1.8161,1.7719,1.6079,1.4271,1.4734,1.3971,1.3045,1.3372,1.388,1.4223,1.3366,1.3542,1.3724,1.246,1.2375,1.2717,1.2966,1.3815,1.4748,1.4999,1.5257,1.5431,1.5431,1.5166,1.4901,1.4894,1.4636,1.4629,1.5538,1.5959,1.6542,1.7375,1.8112,1.8612,1.87,1.9002,1.9381,2.0001,1.9844,1.9844,1.9991,2.0079,2.0692,2.222,2.1983,2.2809,2.479,2.4861,2.5052,2.5312,2.5312,2.5312,2.5312,2.5312,2.5312,0.8586,0.9307,0.8748,0.0,0.0,0.0,2.6678,2.3179,2.1586,0.0,0.0,0.0,0.0,0.0,0.0,0.0,0.0,0.0,0.0,0.0,0.0,0.0,0.0,0.0,0.0,0.0,0.0,0.0,0.0,0.0,0.0,3.5245,3.6236,3.5115,2.7823,1.7893,0.5417,-0.0286,-0.9519,-2.2096,-0.9163,-0.6706,-1.3566,-1.5006,-1.4996,-1.3235,-0.3173,0.3304,0.6783,0.5738,0.6512,0.8996,1.5947,1.9161,2.011,2.2182,2.1643,1.9841,1.9534,1.7645,1.5379,1.6085,1.5191,1.4062,1.4734,1.4817,1.4657,1.423,1.423,1.3971,1.2112,1.254,1.3476,1.3646,1.4405,1.5173,1.534,1.5257,1.5082,1.5082,1.5075,1.5061,1.5061,1.5228,1.5718,1.6535,1.6698,1.7033,1.787,1.8451,1.878,1.8851,1.9152,1.9529,2.0079,1.9923,1.9923,2.0079,2.0692,2.1145,2.1385,2.168,2.266,2.4394,2.4478,2.4754,2.5312,2.5312,2.5312,2.5312,2.5312,2.5312,0.0165,1.2481,0.0,0.0,0.0,0.0,0.0,3.1232,2.9154,0.0,0.0,0.0,0.0,0.0,0.0,0.0,0.0,0.0,0.0,0.0,0.0,0.0,0.0,0.0,0.0,0.0,0.0,0.0,0.0,0.0,0.0,3.5442,3.5934,3.5131,3.5003,2.5453,0.5672,1.4729,0.927,-1.0397,0.9972,0.8139,-1.2668,0.2943,0.1503,-1.2825,-0.3248,0.8231,1.987,1.5648,1.7632,2.306,2.0803,2.1755,2.4362,2.3704,2.1741,1.9712,2.0629,1.8619,1.6093,1.8134,1.7106,1.5228,1.5914,1.5763,1.5173,1.3822,1.3893,1.4139,1.2784,1.2881,1.3561,1.423,1.4398,1.4566,1.5257,1.4908,1.4398,1.4398,1.4398,1.4398,1.4398,1.4977,1.5718,1.6617,1.6698,1.7033,1.787,1.8451,1.8851,1.9222,1.9301,1.9301,1.9301,2.0313,2.0469,1.9381,2.1068,2.1603,2.0537,2.1527,2.2574,2.3514,2.3768,2.436,2.5312,2.5312,2.5312,2.5312,2.5312,2.5312,1.2667,0.0,0.0,0.0,0.0,0.0,0.0,0.0,0.0,0.0,0.0,0.0,0.0,0.0,0.0,0.0,0.0,0.0,0.0,0.0,0.0,0.0,0.0,0.0,0.0,0.0,0.0,0.0,0.0,0.0,0.0,3.4988,3.5476,3.5934,2.8751,2.2168,1.652,1.2006,0.6635,0.067,0.6784,0.9162,0.8507,1.8485,2.1365,1.8397,1.6955,1.9462,2.419,1.9997,2.0257,2.3207,2.2553,2.3741,2.5849,2.5685,2.4482,2.2985,2.3267,2.1805,1.9752,1.9399,1.8532,1.751,1.6468,1.6402,1.6296,1.4062,1.4636,1.5545,1.3633,1.3984,1.4748,1.4482,1.4741,1.5173,1.5347,1.4908,1.465,1.5409,1.4992,1.481,1.6312,1.6386,1.6624,1.7448,1.7619,1.787,1.8451,1.862,1.8851,1.9222,1.9301,1.9539,2.0079,2.001,2.0313,2.1125,2.1375,2.1461,2.1461,2.2424,2.3412,2.4394,2.4599,2.4957,2.5312,2.5312,2.5312,2.5312,2.5312,2.5312,1.6221,0.0,0.0,0.0,0.0,0.0,0.0,0.0,0.0,0.0,0.0,0.0,0.0,0.0,0.0,0.0,0.0,0.0,0.0,0.0,0.0,0.0,0.0,0.0,0.0,0.0,0.0,0.0,0.0,0.0,0.0,3.4673,3.5144,3.595,3.0024,2.4957,2.099,1.9246,1.6171,1.1873,1.6485,2.085,2.4923,2.5008,2.7061,3.0441,2.8525,2.7675,2.7567,2.6647,2.6562,2.69,2.6078,2.6051,2.6452,2.5861,2.511,2.4362,2.4362,2.2911,2.0948,2.0641,1.9496,1.8115,1.7204,1.7204,1.7025,1.4956,1.5538,1.6281,1.4307,1.458,1.5257,1.4908,1.509,1.5431,1.5431,1.4908,1.4566,1.5325,1.5151,1.5304,1.655,1.7041,1.7367,1.7951,1.8112,1.8282,1.862,1.8772,1.9082,1.9687,1.946,1.9608,2.0459,2.001,2.0245,2.1431,2.1385,2.1471,2.1821,2.267,2.3276,2.379,2.4371,2.4874,2.5312,2.5312,2.5312,2.5312,2.5312,2.5312,1.3562,0.0,0.0,0.0,0.0,0.0,0.0,0.0,0.0,0.0,0.0,0.0,0.0,0.0,0.0,0.0,0.0,0.0,0.0,0.0,0.0,0.0,0.0,0.0,0.0,0.0,0.0,0.0,0.0,0.0,0.0,3.4382,3.4878,3.5414,3.595,3.1665,2.2165,3.25,3.2795,2.3197,3.3701,3.7994,3.6343,2.5939,2.4055,2.9181,3.3488,3.345,3.0624,3.4354,3.46,3.239,3.0526,2.8449,2.644,2.5169,2.4648,2.4648,2.4648,2.2837,2.0738,2.1943,2.0362,1.7934,1.8327,1.8158,1.7577,1.6332,1.6429,1.6445,1.4803,1.4915,1.5431,1.5431,1.5431,1.5431,1.5431,1.4908,1.4475,1.4559,1.5213,1.5779,1.5869,1.7033,1.804,1.804,1.8201,1.8442,1.87,1.8922,1.946,2.0313,1.9766,1.9687,2.0304,2.0167,2.0235,2.0914,2.1328,2.1711,2.2038,2.2521,2.267,2.2403,2.3588,2.4564,2.5312,2.5312,2.5312,2.5312,2.5312,2.5312,0.0,1.2421,0.0,0.0,0.0,0.0,0.0,0.0,0.0,0.0,0.0,0.0,0.0,0.0,0.0,0.0,0.0,0.0,0.0,0.0,0.0,0.0,0.0,0.0,0.0,0.0,0.0,0.0,0.0,0.0,3.3339,3.3495,3.4003,3.4894,3.547,3.4942,3.3178,3.5945,3.6323,3.4354,3.6791,3.7962,3.7947,3.4414,3.3479,3.4772,3.7058,3.7575,3.686,3.7687,3.5893,3.254,3.2084,3.0046,2.7217,2.6909,2.6841,2.6841,2.6841,2.5332,2.3531,2.3834,2.27,2.1044,2.0207,2.0314,2.0081,1.6879,1.6903,1.7407,1.5054,1.4915,1.5431,1.5431,1.5431,1.5431,1.5431,1.4908,1.4727,1.5982,1.5966,1.6116,1.7286,1.7789,1.804,1.804,1.8201,1.8442,1.87,1.945,1.9825,1.9608,2.0001,2.0079,1.9618,2.0382,2.1135,2.1962,2.1832,2.1983,2.2478,2.3243,2.3548,2.322,2.4409,2.5158,2.5312,2.5312,2.5312,2.5312,2.5312,2.5312,0.0,0.0,0.0,0.0,0.0,0.0,0.0,0.0,0.0,0.0,0.0,0.0,0.0,0.0,0.0,0.0,0.0,0.0,0.0,0.0,0.0,0.0,0.0,0.0,0.0,0.0,0.0,0.0,0.0,3.2841,3.2841,3.3039,3.3443,3.402,3.4781,3.5397,3.5847,3.6504,3.6921,3.7114,3.7541,3.7897,3.8249,3.688,3.6708,3.7492,3.7536,3.8043,3.884,3.8784,3.6898,3.3956,3.2983,3.1125,2.8761,2.7102,2.695,2.7391,2.6722,2.5073,2.3458,2.4135,2.2722,2.07,2.1074,2.1181,2.0663,1.8266,1.7963,1.7811,1.5726,1.534,1.5431,1.5431,1.5431,1.5431,1.568,1.5499,1.5492,1.6484,1.664,1.6796,1.7546,1.7878,1.804,1.804,1.8282,1.8612,1.87,1.9301,1.9835,1.9844,1.9923,1.9923,2.0079,2.0682,2.1364,2.1897,2.1832,2.2048,2.2553,2.3169,2.3316,2.3073,2.4564,2.5312,2.5312,2.5312,2.5312,2.5312,2.5312,2.5312,0.0,0.0,0.0,0.0,0.0,0.0,0.0,0.0,0.0,0.0,0.0,0.0,0.0,0.0,0.0,0.0,0.0,0.0,0.0,0.0,0.0,0.0,0.0,0.0,0.0,0.0,0.0,0.0,0.0,3.2398,3.2398,3.2841,3.3093,3.3182,3.4053,3.4673,3.5021,3.5759,3.6207,3.6416,3.7226,3.7721,3.7861,3.686,3.7218,3.8601,3.7197,3.7481,3.8906,3.8833,3.7536,3.5451,3.3502,3.1899,3.0308,2.7249,2.6752,2.7524,2.6319,2.4472,2.2848,2.4279,2.251,2.0051,2.18,2.1745,2.0779,1.9659,1.885,1.798,1.6566,1.5839,1.5431,1.5514,1.5514,1.559,1.6012,1.6087,1.6252,1.6738,1.7229,1.7473,1.7473,1.7797,1.804,1.804,1.8451,1.8772,1.8922,1.9301,1.9766,2.0459,1.9923,1.9844,2.0779,2.1001,2.1288,2.168,2.1756,2.2048,2.2627,2.2872,2.2947,2.285,2.4492,2.5312,2.5312,2.5312,2.5312,2.5312,2.5312,2.5312,0.0,0.0,0.0,0.0,0.0,0.0,0.0,0.0,0.0,0.0,0.0,0.0,0.0,0.0,0.0,0.0,0.0,0.0,0.0,0.0,0.0,0.0,0.0,0.0,0.0,0.0,0.0,0.0,3.2398,3.2398,3.2398,3.2437,3.2749,3.3198,3.3339,3.3903,3.4975,3.5005,3.5493,3.6433,3.6978,3.717,3.7076,3.7434,3.7959,3.8608,3.8614,3.8749,3.8986,3.8846,3.7578,3.5538,3.4067,3.266,3.1252,2.9671,2.8748,2.8363,2.8141,2.6345,2.4362,2.5779,2.4589,2.2807,2.3588,2.3254,2.2231,1.9963,1.893,1.8292,1.6968,1.5997,1.5514,1.5922,1.6004,1.6004,1.6095,1.6087,1.6335,1.7147,1.7635,1.7959,1.7959,1.7959,1.8121,1.8273,1.8531,1.9002,1.9904,2.0216,2.0382,2.0469,2.0382,2.0459,2.0769,2.0991,2.1507,2.2403,2.2048,2.2134,2.2872,2.2957,2.3316,2.3891,2.4791,2.5312,2.5312,2.5312,2.5312,2.5312,2.5312,2.5312,0.0,0.0,0.0,0.0,0.0,0.0,0.0,0.0,0.0,0.0,0.0,0.0,0.0,0.0,0.0,0.0,0.0,0.0,0.0,0.0,0.0,0.0,0.0,0.0,0.0,0.0,0.0,0.0,3.3443,3.3319,3.3319,3.3531,3.3566,3.3182,3.377,3.4301,3.4814,3.48,3.5328,3.6367,3.6409,3.6597,3.69,3.7228,3.7703,3.8342,3.8651,3.8861,3.8992,3.8893,3.8299,3.726,3.5447,3.4143,3.3072,3.1328,2.9765,2.8492,2.8492,2.6697,2.466,2.6013,2.5028,2.3323,2.3952,2.3559,2.2531,2.0285,1.9335,1.87,1.7456,1.6574,1.6162,1.6409,1.6409,1.6492,1.6738,1.682,1.6984,1.7635,1.7878,1.804,1.804,1.804,1.8112,1.8362,1.8612,1.8931,1.945,1.9687,1.9844,1.9844,1.9844,1.9923,2.0089,2.0615,2.1068,2.1308,2.1527,2.2059,2.2957,2.3032,2.3548,2.4719,2.5087,2.5312,2.5312,2.5312,2.5312,2.5312,2.5312,2.5312,0.0,0.0,0.0,0.0,0.0,0.0,0.0,0.0,0.0,0.0,0.0,0.0,0.0,0.0,0.0,0.0,0.0,0.0,0.0,0.0,0.0,0.0,0.0,0.0,0.0,0.0,0.0,0.0,3.4202,3.3986,3.3986,3.4317,3.4252,3.3617,3.4333,3.4795,3.5057,3.5261,3.5671,3.6385,3.6174,3.6392,3.6978,3.7076,3.7506,3.8249,3.8486,3.879,3.9129,3.8957,3.8856,3.8604,3.662,3.5376,3.4359,3.2505,3.0412,2.8492,2.8492,2.6925,2.511,2.6164,2.5264,2.3784,2.4036,2.3559,2.2531,2.0518,1.958,1.9027,1.787,1.7147,1.6738,1.682,1.6894,1.6984,1.731,1.7473,1.7635,1.7959,1.804,1.804,1.804,1.804,1.8201,1.8442,1.8692,1.8931,1.9311,1.9301,1.9381,1.9608,1.946,1.946,1.9942,2.0313,2.0624,2.0644,2.1242,2.1983,2.2957,2.3169,2.3913,2.5241,2.5312,2.5312,2.5312,2.5312,2.5312,2.5312,2.5312,2.5312,0.0,0.0,0.0,0.0,0.0,0.0,0.0,0.0,0.0,0.0,0.0,0.0,0.0,0.0,0.0,0.0,0.0,0.0,0.0,0.0,0.0,0.0,0.0,0.0,0.0,0.0,0.0,0.0,3.402,3.3986,3.3986,3.402,3.4235,3.4622,3.4653,3.5148,3.601,3.651,3.6701,3.6591,3.6759,3.696,3.7173,3.7377,3.7877,3.8579,3.8579,3.8933,3.9426,3.9058,3.8861,3.867,3.72,3.5797,3.4422,3.308,3.0849,2.8492,2.8492,2.7604,2.6383,2.6465,2.5886,2.5075,2.4337,2.3559,2.2531,2.0518,1.958,1.9107,1.8184,1.731,1.6812,1.7229,1.7392,1.7392,1.7392,1.7716,1.7951,1.804,1.804,1.804,1.804,1.8193,1.8442,1.862,1.8851,1.9311,2.0313,1.9766,1.9608,2.0382,1.9766,1.9766,2.0904,2.0391,2.0469,2.169,2.1766,2.2134,2.2957,2.3683,2.442,2.53,2.5312,2.5312,2.5312,2.5312,2.5312,2.5312,2.5312,2.5312,0.0,0.0,0.0,0.0,0.0,0.0,0.0,0.0,0.0,0.0,0.0,0.0,0.0,0.0,0.0,0.0,0.0,0.0,0.0,0.0,0.0,0.0,0.0,0.0,0.0,0.0,0.0,0.0,0.0,3.5021,3.5021,3.5328,3.5386,3.5199,3.5464,3.5753,3.6111,3.6768,3.6917,3.6574,3.6474,3.6684,3.719,3.719,3.7817,3.8939,3.8906,3.9182,3.9567,3.9585,3.9445,3.9129,3.8596,3.6808,3.4559,3.4065,3.1905,2.9156,2.8684,2.792,2.7095,2.6658,2.5955,2.5241,2.4933,2.3998,2.2767,2.1583,2.0827,2.007,1.8913,1.8434,1.8112,1.7878,1.7797,1.7797,1.7797,1.7878,1.804,1.804,1.804,1.804,1.804,1.8201,1.8442,1.87,1.8851,1.9152,1.9687,1.946,1.9381,1.9687,1.946,1.9539,2.0089,1.9863,2.002,2.0789,2.1318,2.2059,2.2957,2.3672,2.4492,2.53,2.5312,2.5312,2.5312,2.5312,2.5312,2.5312,2.5312,2.5382,0.0,0.0,0.0,0.0,0.0,0.0,0.0,0.0,0.0,0.0,0.0,0.0,0.0,0.0,0.0,0.0,0.0,0.0,0.0,0.0,0.0,0.0,0.0,0.0,0.0,0.0,0.0,0.0,0.0,0.0,3.5827,3.6131,3.6156,3.5803,3.6288,3.6579,3.6579,3.6981,3.7111,3.6935,3.6655,3.686,3.7487,3.7414,3.7983,3.9114,3.9208,3.9421,3.9754,3.9935,3.974,3.9325,3.9297,3.7371,3.4605,3.4605,3.25,2.9546,2.903,2.8247,2.7417,2.6973,2.6289,2.5664,2.5382,2.4587,2.3486,2.2339,2.1669,2.0924,1.9381,1.8834,1.8603,1.8362,1.8362,1.8362,1.8362,1.8201,1.804,1.804,1.804,1.804,1.8121,1.8362,1.8612,1.8772,1.9002,1.9152,1.9301,1.9301,1.9301,1.9301,1.9301,1.9381,1.9715,1.9715,1.9872,2.0342,2.1385,2.2285,2.2957,2.3975,2.4779,2.5312,2.5312,2.5312,2.5312,2.5312,2.5312,2.5312,2.5312,2.5382,0.0,0.0,0.0,0.0,0.0,0.0,0.0,0.0,0.0,0.0,0.0,0.0,0.0,0.0,0.0,0.0,0.0,0.0,0.0,0.0,0.0,0.0,0.0,0.0,0.0,0.0,0.0,0.0,3.6343,3.6343,3.6343,3.6343,3.6343,3.6343,3.7132,3.7542,3.7542,3.7321,3.7319,3.7594,3.7372,3.7577,3.8101,3.8117,3.8473,3.911,3.9397,3.9696,3.9994,4.0013,3.9706,3.9221,3.9294,3.7385,3.4605,3.4605,3.25,2.9623,2.9623,2.8712,2.755,2.7484,2.704,2.6314,2.5594,2.5312,2.4791,2.2702,2.2027,2.1583,1.9529,1.8523,1.8201,1.8834,1.9002,1.9002,1.9002,1.8523,1.8031,1.804,1.804,1.8121,1.8353,1.8612,1.8772,1.9002,1.9152,1.9301,1.9301,1.9301,1.9301,1.9301,1.9301,1.946,1.9863,1.9863,2.0098,2.0566,2.2134,2.3032,2.3032,2.4504,2.5312,2.5312,2.5312,2.5312,2.5312,2.5312,2.5312,2.5312,2.5312,2.5465,2.8097,0.0,0.0,0.0,0.0,0.0,0.0,0.0,0.0,0.0,0.0,0.0,0.0,0.0,0.0,0.0,0.0,0.0,0.0,0.0,0.0,0.0,0.0,0.0,0.0,0.0,0.0,0.0,3.702,3.696,3.6741,3.7173,3.747,3.747,3.7808,3.7998,3.7998,3.7504,3.7317,3.7372,3.7182,3.7449,3.8101,3.8358,3.8691,3.9137,3.9891,4.0169,4.0087,4.0285,4.0096,3.9721,3.974,3.7627,3.4605,3.4605,3.2807,3.0251,2.9747,2.903,2.8117,2.767,2.6676,2.5664,2.6025,2.5358,2.4337,2.3661,2.3095,2.2371,2.0779,1.9539,1.8913,1.952,1.9678,1.9678,1.9678,1.952,1.9125,1.8193,1.804,1.8121,1.8353,1.8612,1.8772,1.9002,1.9152,1.9301,1.9301,1.9301,1.9301,1.9301,1.9301,1.939,1.9636,1.9794,2.002,2.0342,2.2059,2.3032,2.3032,2.4504,2.5312,2.5312,2.5312,2.5312,2.5312,2.5312,2.5312,2.5312,2.5606,2.5828,0.0,0.0,0.0,0.0,0.0,0.0,3.9358,3.9831,0.0,0.0,0.0,0.0,0.0,0.0,0.0,0.0,0.0,0.0,0.0,0.0,0.0,0.0,0.0,0.0,0.0,3.8107,3.7925,3.7683,3.7701,3.7524,3.721,3.7667,3.779,3.7506,3.7911,3.8132,3.8132,3.7559,3.7449,3.7739,3.7241,3.7468,3.8296,3.8501,3.8831,3.9345,4.0017,4.0312,4.0314,4.0268,4.0112,3.9888,3.9885,3.7875,3.5003,3.5003,3.3281,3.0911,3.0524,2.958,2.8427,2.8051,2.6934,2.5886,2.6383,2.5873,2.4992,2.4264,2.318,2.2004,2.1451,2.0372,1.9529,2.0148,2.0304,2.0372,2.0527,2.0605,2.0138,1.8825,1.8514,1.8594,1.8683,1.8763,1.8922,1.9073,1.9222,1.9301,1.9301,1.9301,1.9301,1.9301,1.9301,1.939,1.9715,1.9863,2.002,2.042,2.2059,2.3032,2.3032,2.4504,2.5312,2.5312,2.5312,2.5312,2.5382,2.5312,2.5312,2.5453,2.5828,2.6062,0.0,0.0,0.0,0.0,0.0,0.0,3.9251,3.9662,4.0029,0.0,0.0,0.0,0.0,0.0,0.0,0.0,0.0,0.0,0.0,0.0,0.0,0.0,0.0,0.0,3.8438,3.8327,3.8314,3.8282,3.8269,3.8107,3.7754,3.7977,3.7807,3.7135,3.7737,3.8077,3.8077,3.7578,3.7667,3.835,3.7504,3.765,3.8633,3.8617,3.8999,3.9652,3.9976,4.0294,4.0579,4.0148,3.9939,3.9889,3.9842,3.8053,3.5514,3.5514,3.3828,3.1537,3.1537,3.024,2.8492,2.8492,2.7604,2.6533,2.6533,2.6465,2.6025,2.4552,2.2638,2.1155,2.1897,2.1048,2.0138,2.0857,2.1021,2.1165,2.1548,2.1538,2.1155,1.9766,1.945,1.9301,1.9152,1.9073,1.9073,1.9381,1.9381,1.9301,1.9301,1.9301,1.9301,1.9301,1.9301,1.9469,1.9863,1.9942,2.0098,2.0566,2.2134,2.3032,2.3032,2.4504,2.5312,2.5312,2.5312,2.5382,2.5606,2.5453,2.5465,2.5688,2.605,2.6213,0.0,0.0,0.0,0.0,0.0,0.0,3.8981,3.9615,4.0024,0.0,0.0,0.0,0.0,0.0,0.0,0.0,0.0,0.0,0.0,0.0,0.0,0.0,0.0,0.0,3.9427,3.9231,3.9017,3.8865,3.8695,3.8634,3.873,3.8778,3.8748,3.8591,3.856,3.856,3.856,3.8132,3.7982,3.8168,3.7966,3.8287,3.9005,3.9194,3.952,3.9948,4.0546,4.0731,4.0587,4.05,4.0238,3.988,3.9547,3.7808,3.5514,3.5617,3.3974,3.1637,3.1637,3.036,2.8712,2.8556,2.7604,2.6533,2.6533,2.6025,2.53,2.4337,2.2999,2.1973,2.2606,2.1766,2.0857,2.1492,2.1873,2.209,2.2252,2.1949,2.1568,2.0934,2.0226,1.9825,1.9972,1.945,1.9311,2.0157,1.9687,1.9301,1.9301,1.9301,1.9301,1.9301,1.9469,1.9557,1.9636,2.0029,2.0264,2.0342,2.1983,2.3032,2.3032,2.4504,2.5312,2.5312,2.5453,2.5535,2.5606,2.5688,2.591,2.6062,2.6131,2.627,0.0,0.0,0.0,3.4173,0.0,0.0,0.0,3.9339,3.9654,0.0,0.0,0.0,0.0,0.0,0.0,0.0,0.0,0.0,0.0,0.0,0.0,0.0,0.0,0.0,3.9967,3.983,3.963,3.9383,3.9101,3.8921,3.8836,3.897,3.897,3.8826,3.8865,3.8894,3.8894,3.8517,3.8442,3.8597,3.8198,3.8487,3.9357,3.9416,3.9738,4.0281,4.0811,4.0953,4.0764,4.0441,4.0171,3.9917,3.9537,3.8046,3.6104,3.6162,3.4502,3.2241,3.2114,3.0675,2.8903,2.8712,2.7829,2.6739,2.6658,2.6025,2.53,2.5288,2.3975,2.266,2.3338,2.2446,2.1492,2.1949,2.2252,2.2478,2.2927,2.2852,2.2553,2.2166,2.1766,2.1211,2.045,1.9991,1.9923,2.0391,1.9844,1.9301,1.9301,1.9301,1.9301,1.9469,1.9557,1.9724,1.9951,2.0186,2.0489,2.1011,2.2285,2.3169,2.3537,2.4647,2.5312,2.5312,2.5606,2.5758,2.5758,2.6037,2.6188,2.6213,2.627,2.6396,0.0,0.0,0.0,0.0,0.0,3.7057,0.0,0.0,0.0,0.0,0.0,0.0,0.0,0.0,0.0,0.0,0.0,0.0,0.0,0.0,0.0,0.0,0.0,0.0,4.0295,4.0204,4.0043,3.9769,3.9433,3.9137,3.8876,3.9027,3.897,3.87,3.897,3.911,3.9183,3.8865,3.8865,3.9165,3.8468,3.8678,3.9675,3.9559,3.9904,4.0604,4.0955,4.1064,4.0952,4.0292,4.0024,3.9959,3.9392,3.8156,3.6707,3.6549,3.4956,3.2841,3.2648,3.1056,2.9016,2.8903,2.796,2.6875,2.6577,2.6013,2.5664,2.6164,2.4933,2.3632,2.412,2.318,2.2241,2.2478,2.2553,2.2777,2.3446,2.3519,2.3372,2.3075,2.3001,2.2542,2.1231,2.0692,2.0537,2.0692,1.9913,1.9381,1.9539,1.946,1.9469,1.9794,1.9794,1.9882,2.0264,2.0489,2.0944,2.1756,2.2649,2.3463,2.4047,2.4862,2.5312,2.5382,2.5676,2.591,2.598,2.6327,2.6396,2.627,2.6396,2.6533,0.0,0.0,0.0,0.0,3.5673,0.0,0.0,0.0,0.0,3.9314,0.0,3.9849,4.0081,0.0,0.0,0.0,0.0,0.0,0.0,0.0,0.0,0.0,0.0,0.0,0.0,4.0202,3.9983,3.9868,3.9618,3.9433,3.9408,3.9219,3.9073,3.9027,3.9073,3.9219,3.9433,3.9192,3.9192,3.9433,3.9055,3.9264,3.9948,3.9947,4.0269,4.0859,4.1035,4.1064,4.0951,4.0333,4.0092,3.9959,3.8543,3.7453,3.6628,3.6111,3.4667,3.2986,3.2933,3.1317,2.9233,2.9016,2.7934,2.6577,2.5918,2.6013,2.6233,2.5861,2.5487,2.5205,2.4779,2.412,2.3463,2.3065,2.3224,2.3519,2.3593,2.3298,2.3075,2.3001,2.3001,2.2927,2.2767,2.1461,2.0769,2.1527,2.0294,1.9529,2.0304,1.9942,1.9872,2.0634,2.0411,2.0264,2.0264,2.1088,2.169,2.1756,2.3158,2.4036,2.4108,2.4862,2.5382,2.5535,2.5758,2.598,2.6131,2.6396,2.6465,2.6465,2.6465,2.6533,0.0,0.0,0.0,0.0,0.0,0.0,3.8107,0.0,3.8943,0.0,0.0,0.0,0.0,0.0,0.0,0.0,3.947,0.0,0.0,0.0,0.0,0.0,0.0,0.0,0.0,0.0,0.0,0.0,3.998,3.9813,3.9728,3.9641,3.9476,3.9272,3.9451,3.9502,3.9452,3.9462,3.9491,3.9604,3.9513,3.974,4.0233,4.0219,4.0505,4.0968,4.1049,4.1089,4.1015,4.035,4.0108,3.9955,3.8368,3.756,3.7253,3.6816,3.5324,3.3499,3.3431,3.1641,2.9268,2.839,2.7894,2.7497,2.6824,2.6645,2.6739,2.6508,2.6057,2.5685,2.5405,2.4815,2.4241,2.3913,2.3925,2.4009,2.3959,2.3824,2.3677,2.3677,2.3677,2.3677,2.3677,2.2371,2.1385,2.1756,2.076,2.0148,2.0469,2.0401,2.0557,2.1011,2.0644,2.0566,2.1088,2.1538,2.2199,2.3084,2.4192,2.4791,2.4791,2.5229,2.5535,2.5606,2.591,2.6131,2.6213,2.6396,2.6533,2.6533,2.6533,2.6533,2.7867,0.0,0.0,0.0,0.0,0.0,0.0,0.0,0.0,0.0,0.0,0.0,0.0,0.0,3.9411,0.0,0.0,3.9233,0.0,0.0,0.0,0.0,0.0,0.0,0.0,0.0,0.0,0.0,0.0,4.0142,4.0043,3.9967,3.9804,3.9556,3.9722,3.9746,3.958,3.9659,3.9724,3.9788,3.9794,4.0005,4.0385,4.0389,4.0607,4.0953,4.1027,4.0995,4.0851,4.0294,4.0027,3.9832,3.8424,3.791,3.7789,3.6914,3.544,3.3872,3.3451,3.1754,2.9518,2.796,2.7842,2.8157,2.7523,2.7146,2.7024,2.7079,2.6633,2.6183,2.6045,2.5603,2.5181,2.4909,2.4707,2.4576,2.4467,2.4334,2.42,2.42,2.42,2.42,2.42,2.3054,2.2145,2.2145,2.1451,2.0991,2.1221,2.1155,2.1165,2.1548,2.0867,2.0789,2.168,2.1983,2.2798,2.4337,2.5016,2.5312,2.5382,2.5535,2.5688,2.5758,2.6062,2.6201,2.627,2.6396,2.6533,2.6533,2.6533,2.6533,0.0,0.0,0.0,3.423,0.0,0.0,0.0,0.0,3.8707,0.0,0.0,0.0,0.0,3.8892,3.8564,0.0,0.0,0.0,0.0,0.0,0.0,0.0,0.0,0.0,0.0,0.0,0.0,0.0,4.0587,0.0,4.0373,4.0133,3.9967,3.988,3.9895,3.9937,3.9963,3.9804,3.9804,4.0002,3.9861,3.9985,4.031,4.0361,4.0548,4.0818,4.0879,4.0715,4.0403,4.013,3.9852,3.9523,3.8715,3.8382,3.808,3.5676,3.4397,3.3772,3.2772,3.1564,3.0147,2.8026,2.7789,2.8157,2.7523,2.7146,2.7011,2.7214,2.7268,2.7134,2.6552,2.6496,2.6496,2.6,2.5429,2.5004,2.5016,2.4539,2.42,2.42,2.42,2.42,2.42,2.3519,2.2927,2.2927,2.236,2.2264,2.3095,2.2209,2.1776,2.2553,2.1405,2.0944,2.1766,2.2499,2.3621,2.5158,2.5312,2.5382,2.5606,2.5606,2.5758,2.6131,2.6201,2.627,2.6465,2.6533,2.6533,2.6533,2.6533,2.6533,0.0,0.0,3.0893,3.4982,0.0,0.0,0.0,0.0,0.0,0.0,0.0,0.0,0.0,0.0,0.0,0.0,0.0,0.0,0.0,0.0,0.0,0.0,0.0,0.0,0.0,0.0,0.0,0.0,4.0852,0.0,4.0681,4.0584,4.0434,4.0173,4.0329,4.0349,4.0196,4.0196,4.0234,4.0396,4.036,4.0434,4.0622,4.0649,4.0738,4.0859,4.0831,4.0687,4.044,4.0123,3.9773,3.934,3.8674,3.8285,3.7948,3.626,3.5296,3.4587,3.2447,3.1721,3.1377,2.8889,2.8839,2.947,2.7894,2.7723,2.7908,2.7523,2.7403,2.739,2.7175,2.7188,2.7121,2.6577,2.6,2.5581,2.5581,2.5158,2.4743,2.4743,2.4743,2.4611,2.4261,2.397,2.3666,2.3276,2.3032,2.301,2.3379,2.2745,2.2392,2.2703,2.1405,2.1165,2.251,2.3756,2.4719,2.5241,2.5312,2.5382,2.5606,2.5758,2.591,2.6201,2.6339,2.6396,2.6533,2.6533,2.6533,2.6533,2.6533,2.6533,3.1082,3.099,0.0,3.5645,3.6046,0.0,3.8209,0.0,0.0,0.0,0.0,0.0,0.0,0.0,0.0,0.0,0.0,0.0,0.0,3.9376,0.0,0.0,0.0,0.0,0.0,0.0,0.0,4.0957,4.1013,4.0987,0.0,4.0874,4.0752,4.0494,4.0662,4.066,4.0415,4.0463,4.0538,4.0602,4.0642,4.0718,4.0789,4.0803,4.0817,4.0826,4.0752,4.0557,4.0226,4.0024,3.9599,3.9085,3.8591,3.8252,3.7809,3.6143,3.4927,3.3792,3.1992,3.1721,3.1694,2.958,2.958,3.0147,2.8403,2.8157,2.8352,2.7723,2.7523,2.7523,2.7523,2.7523,2.739,2.7053,2.6564,2.6151,2.6151,2.5721,2.5288,2.5288,2.5158,2.4945,2.4611,2.4406,2.4189,2.3801,2.379,2.3852,2.4047,2.3338,2.2905,2.3202,2.1918,2.168,2.3243,2.4564,2.5312,2.5312,2.5382,2.5535,2.5688,2.591,2.6032,2.5971,2.6283,2.642,2.6151,2.6433,2.6533,2.6533,2.6533,2.6533]}]]